Time,TemperatureF,DewpointF,PressureIn,WindDirection,WindDirectionDegrees,WindSpeedMPH,WindSpeedGustMPH,Humidity,HourlyPrecipIn,Conditions,Clouds,dailyrainin,SoftwareType,DateUTC
2013-06-04 00:00:00,79.6,78.7,29.94,SSW,208,6.0,7.0,97,0.00,,OVC200,0.04,VWS V14.01,2013-06-04 04:00:00,
2013-06-04 00:01:00,79.6,78.7,29.94,SW,216,7.0,10.0,97,0.00,,BKN200,0.00,VWS V14.01,2013-06-04 04:01:00,
2013-06-04 00:02:00,79.6,78.7,29.94,SSW,204,10.0,10.0,97,0.00,,OVC200,0.00,VWS V14.01,2013-06-04 04:02:00,
2013-06-04 00:03:00,79.6,78.7,29.94,SSW,209,10.0,10.0,97,0.00,,OVC200,0.00,VWS V14.01,2013-06-04 04:03:00,
2013-06-04 00:04:00,79.6,78.7,29.94,SSW,213,10.0,11.0,97,0.00,,OVC200,0.00,VWS V14.01,2013-06-04 04:04:00,
2013-06-04 00:05:00,79.6,78.7,29.94,SSW,211,9.0,10.0,97,0.00,,OVC200,0.00,VWS V14.01,2013-06-04 04:05:00,
2013-06-04 00:06:00,79.6,78.7,29.94,SSW,194,10.0,11.0,97,0.00,,BKN200,0.00,VWS V14.01,2013-06-04 04:06:00,
2013-06-04 00:07:00,79.6,78.7,29.94,SSW,194,10.0,11.0,97,0.00,,OVC200,0.00,VWS V14.01,2013-06-04 04:07:00,
2013-06-04 00:08:00,79.6,78.7,29.94,SSW,194,12.0,12.0,97,0.00,,OVC200,0.00,VWS V14.01,2013-06-04 04:08:00,
2013-06-04 00:09:00,79.6,78.7,29.94,SSW,198,11.0,12.0,97,0.00,,OVC200,0.00,VWS V14.01,2013-06-04 04:09:00,
2013-06-04 00:10:00,79.6,78.7,29.94,South,170,10.0,11.0,97,0.00,,OVC200,0.00,VWS V14.01,2013-06-04 04:10:00,
2013-06-04 00:11:00,79.6,78.7,29.94,SW,214,9.0,14.0,97,0.00,,BKN200,0.00,VWS V14.01,2013-06-04 04:11:00,
2013-06-04 00:12:00,79.6,78.7,29.94,SW,214,9.0,14.0,97,0.00,,OVC200,0.00,VWS V14.01,2013-06-04 04:12:00,
2013-06-04 00:13:00,79.6,78.7,29.94,South,191,12.0,15.0,97,0.00,,OVC200,0.00,VWS V14.01,2013-06-04 04:13:00,
2013-06-04 00:14:00,79.6,78.7,29.94,South,185,10.0,12.0,97,0.00,,OVC200,0.00,VWS V14.01,2013-06-04 04:14:00,
2013-06-04 00:15:00,79.6,78.7,29.94,SSW,198,10.0,12.0,97,0.00,,OVC200,0.00,VWS V14.01,2013-06-04 04:15:00,
2013-06-04 00:16:00,79.6,78.7,29.94,South,190,12.0,12.0,97,0.00,,BKN200,0.00,VWS V14.01,2013-06-04 04:16:00,
2013-06-04 00:17:00,79.6,78.7,29.94,South,190,12.0,12.0,97,0.00,,OVC200,0.00,VWS V14.01,2013-06-04 04:17:00,
2013-06-04 00:18:00,79.4,78.5,29.94,SSW,211,10.0,12.0,97,0.00,,OVC200,0.00,VWS V14.01,2013-06-04 04:18:00,
2013-06-04 00:19:00,79.4,78.5,29.93,South,178,11.0,12.0,97,0.00,,OVC200,0.00,VWS V14.01,2013-06-04 04:19:00,
2013-06-04 00:20:00,79.2,78.0,29.94,SW,221,12.0,12.0,96,0.00,,OVC200,0.00,VWS V14.01,2013-06-04 04:20:00,
2013-06-04 00:21:00,79.2,78.0,29.94,SSW,203,11.0,11.0,96,0.00,,BKN200,0.00,VWS V14.01,2013-06-04 04:21:00,
2013-06-04 00:22:00,79.2,78.0,29.94,SSW,203,11.0,11.0,96,0.00,,OVC200,0.00,VWS V14.01,2013-06-04 04:22:00,
2013-06-04 00:23:00,79.0,77.8,29.94,SW,214,9.0,11.0,96,0.00,,OVC200,0.00,VWS V14.01,2013-06-04 04:23:00,
2013-06-04 00:24:00,79.2,78.0,29.94,SW,223,10.0,12.0,96,0.00,,OVC200,0.00,VWS V14.01,2013-06-04 04:24:00,
2013-06-04 00:25:00,79.0,77.8,29.94,SSW,209,10.0,12.0,96,0.00,,OVC200,0.00,VWS V14.01,2013-06-04 04:25:00,
2013-06-04 00:26:00,79.0,77.8,29.94,SW,219,5.0,8.0,96,0.00,,BKN200,0.00,VWS V14.01,2013-06-04 04:26:00,
2013-06-04 00:27:00,79.0,77.8,29.94,SSW,203,8.0,12.0,96,0.00,,OVC200,0.00,VWS V14.01,2013-06-04 04:27:00,
2013-06-04 00:28:00,79.0,77.8,29.94,SSW,196,8.0,11.0,96,0.00,,OVC200,0.00,VWS V14.01,2013-06-04 04:28:00,
2013-06-04 00:29:00,79.0,77.8,29.94,SSW,212,8.0,11.0,96,0.00,,OVC200,0.00,VWS V14.01,2013-06-04 04:29:00,
2013-06-04 00:30:00,79.2,78.0,29.94,SSW,202,10.0,13.0,96,0.00,,OVC200,0.00,VWS V14.01,2013-06-04 04:30:00,
2013-06-04 00:31:00,79.0,77.8,29.93,SW,225,11.0,11.0,96,0.00,,BKN200,0.00,VWS V14.01,2013-06-04 04:31:00,
2013-06-04 00:32:00,79.0,77.8,29.93,SW,225,11.0,11.0,96,0.00,,OVC200,0.00,VWS V14.01,2013-06-04 04:32:00,
2013-06-04 00:33:00,79.0,77.8,29.93,South,176,8.0,12.0,96,0.00,,OVC200,0.00,VWS V14.01,2013-06-04 04:33:00,
2013-06-04 00:34:00,79.0,77.8,29.93,SSW,200,9.0,10.0,96,0.00,,OVC200,0.00,VWS V14.01,2013-06-04 04:34:00,
2013-06-04 00:35:00,79.0,77.8,29.93,South,178,11.0,13.0,96,0.00,,OVC200,0.00,VWS V14.01,2013-06-04 04:35:00,
2013-06-04 00:36:00,78.8,77.2,29.93,South,173,9.0,12.0,95,0.00,,BKN200,0.00,VWS V14.01,2013-06-04 04:36:00,
2013-06-04 00:37:00,78.8,77.2,29.93,South,173,9.0,12.0,95,0.00,,OVC200,0.00,VWS V14.01,2013-06-04 04:37:00,
2013-06-04 00:38:00,79.0,77.8,29.93,SW,221,11.0,12.0,96,0.00,,OVC200,0.00,VWS V14.01,2013-06-04 04:38:00,
2013-06-04 00:39:00,79.0,77.8,29.93,SSW,199,12.0,12.0,96,0.00,,OVC200,0.00,VWS V14.01,2013-06-04 04:39:00,
2013-06-04 00:40:00,79.0,77.8,29.93,South,191,10.0,12.0,96,0.00,,OVC200,0.00,VWS V14.01,2013-06-04 04:40:00,
2013-06-04 00:41:00,78.8,77.2,29.93,SSE,167,15.0,15.0,95,0.00,,FEW120,0.00,VWS V14.01,2013-06-04 04:41:00,
2013-06-04 00:42:00,78.8,77.2,29.93,SSE,167,15.0,15.0,95,0.00,,OVC200,0.00,VWS V14.01,2013-06-04 04:42:00,
2013-06-04 00:43:00,78.8,77.2,29.93,SSE,148,10.0,15.0,95,0.00,,OVC200,0.00,VWS V14.01,2013-06-04 04:43:00,
2013-06-04 00:44:00,78.8,77.2,29.93,South,171,12.0,15.0,95,0.00,,OVC200,0.00,VWS V14.01,2013-06-04 04:44:00,
2013-06-04 00:45:00,78.6,77.1,29.93,South,171,12.0,17.0,95,0.00,,OVC200,0.00,VWS V14.01,2013-06-04 04:45:00,
2013-06-04 00:46:00,78.6,77.1,29.93,SSE,167,13.0,14.0,95,0.00,,FEW120,0.00,VWS V14.01,2013-06-04 04:46:00,
2013-06-04 00:47:00,78.6,77.1,29.93,SSE,167,13.0,14.0,95,0.00,,OVC200,0.00,VWS V14.01,2013-06-04 04:47:00,
2013-06-04 00:48:00,78.6,77.1,29.93,South,171,11.0,13.0,95,0.00,,OVC200,0.00,VWS V14.01,2013-06-04 04:48:00,
2013-06-04 00:49:00,78.6,77.1,29.93,South,175,13.0,14.0,95,0.00,,OVC200,0.00,VWS V14.01,2013-06-04 04:49:00,
2013-06-04 00:50:00,78.6,76.7,29.93,SSE,157,12.0,13.0,94,0.00,,OVC200,0.00,VWS V14.01,2013-06-04 04:50:00,
2013-06-04 00:51:00,78.6,77.1,29.93,South,181,10.0,12.0,95,0.00,,FEW120,0.00,VWS V14.01,2013-06-04 04:51:00,
2013-06-04 00:52:00,78.6,77.1,29.93,South,181,10.0,12.0,95,0.00,,OVC200,0.00,VWS V14.01,2013-06-04 04:52:00,
2013-06-04 00:53:00,78.6,76.7,29.93,South,173,14.0,14.0,94,0.00,,OVC200,0.00,VWS V14.01,2013-06-04 04:53:00,
2013-06-04 00:54:00,78.6,76.7,29.93,South,174,11.0,14.0,94,0.00,,OVC200,0.00,VWS V14.01,2013-06-04 04:54:00,
2013-06-04 00:55:00,78.6,76.7,29.93,South,186,12.0,16.0,94,0.00,,OVC200,0.00,VWS V14.01,2013-06-04 04:55:00,
2013-06-04 00:56:00,78.6,76.7,29.93,South,178,15.0,15.0,94,0.00,,FEW120,0.00,VWS V14.01,2013-06-04 04:56:00,
2013-06-04 00:57:00,78.6,76.7,29.93,South,178,15.0,15.0,94,0.00,,OVC200,0.00,VWS V14.01,2013-06-04 04:57:00,
2013-06-04 00:58:00,78.5,76.6,29.93,SSE,162,8.0,15.0,94,0.00,,OVC200,0.00,VWS V14.01,2013-06-04 04:58:00,
2013-06-04 00:59:00,78.5,76.6,29.93,South,180,12.0,13.0,94,0.00,,OVC200,0.00,VWS V14.01,2013-06-04 04:59:00,
2013-06-04 01:00:00,78.5,76.3,29.93,SSE,162,10.0,14.0,93,0.00,,OVC200,0.00,VWS V14.01,2013-06-04 05:00:00,
2013-06-04 01:01:00,78.5,76.3,29.93,South,176,10.0,14.0,93,0.00,,FEW120,0.00,VWS V14.01,2013-06-04 05:01:00,
2013-06-04 01:02:00,78.5,76.3,29.93,South,176,10.0,14.0,93,0.00,,OVC200,0.00,VWS V14.01,2013-06-04 05:02:00,
2013-06-04 01:03:00,78.5,76.3,29.93,South,180,12.0,12.0,93,0.00,,OVC200,0.00,VWS V14.01,2013-06-04 05:03:00,
2013-06-04 01:04:00,78.3,76.1,29.93,South,190,11.0,12.0,93,0.00,,OVC200,0.00,VWS V14.01,2013-06-04 05:04:00,
2013-06-04 01:05:00,78.3,75.8,29.93,South,175,11.0,13.0,92,0.00,,OVC200,0.00,VWS V14.01,2013-06-04 05:05:00,
2013-06-04 01:06:00,78.3,75.8,29.93,South,172,10.0,12.0,92,0.00,,FEW120,0.00,VWS V14.01,2013-06-04 05:06:00,
2013-06-04 01:07:00,78.3,75.8,29.93,South,172,10.0,12.0,92,0.00,,OVC200,0.00,VWS V14.01,2013-06-04 05:07:00,
2013-06-04 01:08:00,78.5,76.0,29.93,South,184,9.0,13.0,92,0.00,,OVC200,0.00,VWS V14.01,2013-06-04 05:08:00,
2013-06-04 01:09:00,78.5,76.0,29.93,South,184,12.0,12.0,92,0.00,,OVC200,0.00,VWS V14.01,2013-06-04 05:09:00,
2013-06-04 01:10:00,78.5,76.0,29.93,SSE,165,10.0,12.0,92,0.00,,OVC200,0.00,VWS V14.01,2013-06-04 05:10:00,
2013-06-04 01:11:00,78.5,76.0,29.93,South,191,12.0,12.0,92,0.00,,FEW120,0.00,VWS V14.01,2013-06-04 05:11:00,
2013-06-04 01:12:00,78.5,76.0,29.93,South,191,12.0,12.0,92,0.00,,OVC200,0.00,VWS V14.01,2013-06-04 05:12:00,
2013-06-04 01:13:00,78.5,76.0,29.93,SSW,192,9.0,12.0,92,0.00,,OVC200,0.00,VWS V14.01,2013-06-04 05:13:00,
2013-06-04 01:14:00,78.5,76.0,29.93,South,184,12.0,12.0,92,0.00,,OVC200,0.00,VWS V14.01,2013-06-04 05:14:00,
2013-06-04 01:15:00,78.6,76.1,29.93,SSW,198,10.0,12.0,92,0.00,,OVC200,0.00,VWS V14.01,2013-06-04 05:15:00,
2013-06-04 01:16:00,78.6,76.1,29.93,SSW,207,9.0,9.0,92,0.00,,FEW120,0.00,VWS V14.01,2013-06-04 05:16:00,
2013-06-04 01:17:00,78.6,76.1,29.93,South,185,9.0,12.0,92,0.00,,OVC200,0.00,VWS V14.01,2013-06-04 05:17:00,
2013-06-04 01:18:00,78.6,76.1,29.93,SSW,208,7.0,10.0,92,0.00,,OVC200,0.00,VWS V14.01,2013-06-04 05:18:00,
2013-06-04 01:19:00,78.6,76.1,29.93,South,184,11.0,11.0,92,0.00,,OVC200,0.00,VWS V14.01,2013-06-04 05:19:00,
2013-06-04 01:20:00,78.6,75.8,29.93,SSW,194,15.0,15.0,91,0.00,,OVC200,0.00,VWS V14.01,2013-06-04 05:20:00,
2013-06-04 01:21:00,78.6,75.8,29.93,South,179,9.0,12.0,91,0.00,,FEW120,0.00,VWS V14.01,2013-06-04 05:21:00,
2013-06-04 01:22:00,78.6,75.8,29.93,SW,224,12.0,12.0,91,0.00,,OVC200,0.00,VWS V14.01,2013-06-04 05:22:00,
2013-06-04 01:23:00,78.6,75.8,29.93,SSW,207,8.0,12.0,91,0.00,,OVC200,0.00,VWS V14.01,2013-06-04 05:23:00,
2013-06-04 01:24:00,78.6,75.8,29.93,South,190,12.0,12.0,91,0.00,,OVC200,0.00,VWS V14.01,2013-06-04 05:24:00,
2013-06-04 01:25:00,78.6,75.8,29.93,SSW,205,6.0,12.0,91,0.00,,OVC200,0.00,VWS V14.01,2013-06-04 05:25:00,
2013-06-04 01:26:00,78.6,75.8,29.93,SSW,192,12.0,12.0,91,0.00,,FEW120,0.00,VWS V14.01,2013-06-04 05:26:00,
2013-06-04 01:27:00,78.6,75.8,29.93,SSW,211,9.0,11.0,91,0.00,,OVC200,0.00,VWS V14.01,2013-06-04 05:27:00,
2013-06-04 01:28:00,78.6,75.4,29.93,South,176,8.0,12.0,90,0.00,,OVC200,0.00,VWS V14.01,2013-06-04 05:28:00,
2013-06-04 01:29:00,78.6,75.8,29.93,South,187,12.0,13.0,91,0.00,,OVC200,0.00,VWS V14.01,2013-06-04 05:29:00,
2013-06-04 01:30:00,78.6,75.8,29.93,South,178,10.0,12.0,91,0.00,,OVC200,0.00,VWS V14.01,2013-06-04 05:30:00,
2013-06-04 01:31:00,78.6,75.8,29.92,South,186,10.0,10.0,91,0.00,,OVC200,0.00,VWS V14.01,2013-06-04 05:31:00,
2013-06-04 01:32:00,78.6,75.4,29.92,SSW,195,7.0,9.0,90,0.00,,FEW120,0.00,VWS V14.01,2013-06-04 05:32:00,
2013-06-04 01:33:00,78.6,75.4,29.92,South,191,10.0,10.0,90,0.00,,OVC200,0.00,VWS V14.01,2013-06-04 05:33:00,
2013-06-04 01:34:00,78.6,75.4,29.93,SSW,205,5.0,10.0,90,0.00,,OVC200,0.00,VWS V14.01,2013-06-04 05:34:00,
2013-06-04 01:35:00,78.6,75.4,29.92,South,184,11.0,11.0,90,0.00,,OVC200,0.00,VWS V14.01,2013-06-04 05:35:00,
2013-06-04 01:36:00,78.6,75.4,29.92,SSE,163,8.0,11.0,90,0.00,,OVC200,0.00,VWS V14.01,2013-06-04 05:36:00,
2013-06-04 01:37:00,78.6,75.4,29.92,South,183,9.0,11.0,90,0.00,,FEW120,0.00,VWS V14.01,2013-06-04 05:37:00,
2013-06-04 01:38:00,78.6,75.4,29.92,South,180,10.0,11.0,90,0.00,,OVC200,0.00,VWS V14.01,2013-06-04 05:38:00,
2013-06-04 01:39:00,78.6,75.4,29.92,South,188,10.0,11.0,90,0.00,,OVC200,0.00,VWS V14.01,2013-06-04 05:39:00,
2013-06-04 01:40:00,78.8,75.9,29.92,South,175,12.0,13.0,91,0.00,,OVC200,0.00,VWS V14.01,2013-06-04 05:40:00,
2013-06-04 01:41:00,78.8,75.9,29.92,SW,227,9.0,12.0,91,0.00,,OVC200,0.00,VWS V14.01,2013-06-04 05:41:00,
2013-06-04 01:42:00,78.8,75.9,29.92,South,178,11.0,12.0,91,0.00,,CLR,0.00,VWS V14.01,2013-06-04 05:42:00,
2013-06-04 01:43:00,78.8,75.6,29.92,South,185,11.0,13.0,90,0.00,,OVC200,0.00,VWS V14.01,2013-06-04 05:43:00,
2013-06-04 01:44:00,78.8,75.9,29.92,South,185,10.0,12.0,91,0.00,,OVC200,0.00,VWS V14.01,2013-06-04 05:44:00,
2013-06-04 01:45:00,78.8,75.9,29.92,South,190,14.0,14.0,91,0.00,,OVC200,0.00,VWS V14.01,2013-06-04 05:45:00,
2013-06-04 01:46:00,78.8,75.9,29.92,SSE,158,10.0,14.0,91,0.00,,OVC200,0.00,VWS V14.01,2013-06-04 05:46:00,
2013-06-04 01:47:00,78.8,75.9,29.92,South,177,15.0,15.0,91,0.00,,CLR,0.00,VWS V14.01,2013-06-04 05:47:00,
2013-06-04 01:48:00,78.8,75.9,29.92,South,178,14.0,15.0,91,0.00,,OVC200,0.00,VWS V14.01,2013-06-04 05:48:00,
2013-06-04 01:49:00,78.8,75.9,29.92,South,178,14.0,14.0,91,0.00,,OVC200,0.00,VWS V14.01,2013-06-04 05:49:00,
2013-06-04 01:50:00,78.8,75.9,29.92,SSW,197,9.0,14.0,91,0.00,,OVC200,0.00,VWS V14.01,2013-06-04 05:50:00,
2013-06-04 01:51:00,78.8,75.9,29.92,SSW,203,12.0,12.0,91,0.00,,OVC200,0.00,VWS V14.01,2013-06-04 05:51:00,
2013-06-04 01:52:00,78.8,75.9,29.92,South,183,10.0,12.0,91,0.00,,CLR,0.00,VWS V14.01,2013-06-04 05:52:00,
2013-06-04 01:53:00,78.8,76.3,29.92,South,181,12.0,12.0,92,0.00,,OVC200,0.00,VWS V14.01,2013-06-04 05:53:00,
2013-06-04 01:54:00,78.8,75.9,29.92,South,182,9.0,13.0,91,0.00,,OVC200,0.00,VWS V14.01,2013-06-04 05:54:00,
2013-06-04 01:55:00,78.8,75.9,29.92,SSW,194,10.0,13.0,91,0.00,,OVC200,0.00,VWS V14.01,2013-06-04 05:55:00,
2013-06-04 01:56:00,78.8,75.9,29.92,SSW,198,7.0,13.0,91,0.00,,OVC200,0.00,VWS V14.01,2013-06-04 05:56:00,
2013-06-04 01:57:00,78.8,76.3,29.92,South,189,10.0,10.0,92,0.00,,CLR,0.00,VWS V14.01,2013-06-04 05:57:00,
2013-06-04 01:58:00,78.8,76.3,29.92,SSW,210,9.0,10.0,92,0.00,,OVC200,0.00,VWS V14.01,2013-06-04 05:58:00,
2013-06-04 01:59:00,78.8,76.3,29.92,South,186,12.0,12.0,92,0.00,,OVC200,0.00,VWS V14.01,2013-06-04 05:59:00,
2013-06-04 02:00:00,78.8,76.3,29.92,South,183,10.0,12.0,92,0.00,,OVC200,0.00,VWS V14.01,2013-06-04 06:00:00,
2013-06-04 02:01:00,78.8,76.3,29.92,SSW,209,9.0,10.0,92,0.00,,OVC200,0.00,VWS V14.01,2013-06-04 06:01:00,
2013-06-04 02:02:00,78.8,76.3,29.92,SSW,202,6.0,13.0,92,0.00,,CLR,0.00,VWS V14.01,2013-06-04 06:02:00,
2013-06-04 02:03:00,78.8,76.6,29.92,South,184,7.0,13.0,93,0.00,,OVC200,0.00,VWS V14.01,2013-06-04 06:03:00,
2013-06-04 02:04:00,78.8,76.6,29.92,South,189,10.0,10.0,93,0.00,,OVC200,0.00,VWS V14.01,2013-06-04 06:04:00,
2013-06-04 02:05:00,78.8,76.3,29.92,SSW,198,10.0,11.0,92,0.00,,OVC200,0.00,VWS V14.01,2013-06-04 06:05:00,
2013-06-04 02:06:00,78.8,76.3,29.92,South,183,11.0,12.0,92,0.00,,OVC200,0.00,VWS V14.01,2013-06-04 06:06:00,
2013-06-04 02:07:00,78.8,76.6,29.92,SSW,205,10.0,11.0,93,0.00,,CLR,0.00,VWS V14.01,2013-06-04 06:07:00,
2013-06-04 02:08:00,78.8,76.6,29.92,SW,231,9.0,11.0,93,0.00,,OVC200,0.00,VWS V14.01,2013-06-04 06:08:00,
2013-06-04 02:09:00,78.8,76.6,29.92,South,185,10.0,10.0,93,0.00,,OVC200,0.00,VWS V14.01,2013-06-04 06:09:00,
2013-06-04 02:10:00,78.8,76.6,29.92,South,175,11.0,12.0,93,0.00,,OVC200,0.00,VWS V14.01,2013-06-04 06:10:00,
2013-06-04 02:11:00,78.8,76.6,29.92,South,174,12.0,14.0,93,0.00,,OVC200,0.00,VWS V14.01,2013-06-04 06:11:00,
2013-06-04 02:12:00,78.8,76.6,29.92,SSW,200,10.0,11.0,93,0.00,,CLR,0.00,VWS V14.01,2013-06-04 06:12:00,
2013-06-04 02:13:00,78.8,76.6,29.92,SSW,209,9.0,11.0,93,0.00,,OVC200,0.00,VWS V14.01,2013-06-04 06:13:00,
2013-06-04 02:14:00,78.8,76.6,29.92,South,190,11.0,11.0,93,0.00,,OVC200,0.00,VWS V14.01,2013-06-04 06:14:00,
2013-06-04 02:15:00,78.8,76.9,29.92,South,190,10.0,11.0,94,0.00,,OVC200,0.00,VWS V14.01,2013-06-04 06:15:00,
2013-06-04 02:16:00,78.8,76.9,29.91,SSW,196,11.0,13.0,94,0.00,,OVC200,0.00,VWS V14.01,2013-06-04 06:16:00,
2013-06-04 02:17:00,78.8,76.6,29.91,SSW,200,10.0,14.0,93,0.00,,CLR,0.00,VWS V14.01,2013-06-04 06:17:00,
2013-06-04 02:18:00,78.6,76.4,29.91,SSW,206,12.0,14.0,93,0.00,,OVC200,0.00,VWS V14.01,2013-06-04 06:18:00,
2013-06-04 02:19:00,78.6,76.7,29.91,SSW,209,12.0,14.0,94,0.00,,OVC200,0.00,VWS V14.01,2013-06-04 06:19:00,
2013-06-04 02:20:00,78.6,76.7,29.92,SSW,203,9.0,12.0,94,0.00,,OVC200,0.00,VWS V14.01,2013-06-04 06:20:00,
2013-06-04 02:21:00,78.5,76.6,29.91,South,181,10.0,10.0,94,0.00,,OVC200,0.00,VWS V14.01,2013-06-04 06:21:00,
2013-06-04 02:22:00,78.6,76.7,29.91,South,182,10.0,12.0,94,0.00,,CLR,0.00,VWS V14.01,2013-06-04 06:22:00,
2013-06-04 02:23:00,78.6,76.7,29.91,SSW,192,8.0,12.0,94,0.00,,OVC200,0.00,VWS V14.01,2013-06-04 06:23:00,
2013-06-04 02:24:00,78.6,76.7,29.91,SSW,202,11.0,11.0,94,0.00,,OVC200,0.00,VWS V14.01,2013-06-04 06:24:00,
2013-06-04 02:25:00,78.5,76.6,29.91,South,186,6.0,11.0,94,0.00,,OVC200,0.00,VWS V14.01,2013-06-04 06:25:00,
2013-06-04 02:26:00,78.5,76.6,29.91,SSW,209,9.0,9.0,94,0.00,,OVC200,0.00,VWS V14.01,2013-06-04 06:26:00,
2013-06-04 02:27:00,78.5,76.6,29.91,SW,214,9.0,12.0,94,0.00,,CLR,0.00,VWS V14.01,2013-06-04 06:27:00,
2013-06-04 02:28:00,78.5,76.6,29.91,SW,219,10.0,12.0,94,0.00,,OVC200,0.00,VWS V14.01,2013-06-04 06:28:00,
2013-06-04 02:29:00,78.5,76.6,29.91,SSW,207,11.0,12.0,94,0.00,,OVC200,0.00,VWS V14.01,2013-06-04 06:29:00,
2013-06-04 02:30:00,78.5,76.6,29.91,SW,221,7.0,12.0,94,0.00,,OVC200,0.00,VWS V14.01,2013-06-04 06:30:00,
2013-06-04 02:31:00,78.5,76.9,29.91,SSW,194,5.0,7.0,95,0.00,,OVC200,0.00,VWS V14.01,2013-06-04 06:31:00,
2013-06-04 02:32:00,78.5,76.9,29.91,SSW,209,6.0,8.0,95,0.00,,CLR,0.00,VWS V14.01,2013-06-04 06:32:00,
2013-06-04 02:33:00,78.5,76.9,29.91,SW,225,5.0,8.0,95,0.00,,OVC200,0.00,VWS V14.01,2013-06-04 06:33:00,
2013-06-04 02:34:00,78.5,76.9,29.91,SSW,213,9.0,9.0,95,0.00,,OVC200,0.00,VWS V14.01,2013-06-04 06:34:00,
2013-06-04 02:35:00,78.5,76.9,29.91,SSW,213,5.0,9.0,95,0.00,,OVC200,0.00,VWS V14.01,2013-06-04 06:35:00,
2013-06-04 02:36:00,78.5,76.9,29.91,SSW,209,10.0,10.0,95,0.00,,OVC200,0.00,VWS V14.01,2013-06-04 06:36:00,
2013-06-04 02:37:00,78.5,76.9,29.91,SSW,207,7.0,12.0,95,0.00,,CLR,0.00,VWS V14.01,2013-06-04 06:37:00,
2013-06-04 02:38:00,78.5,76.6,29.91,SSW,196,7.0,12.0,94,0.00,,OVC200,0.00,VWS V14.01,2013-06-04 06:38:00,
2013-06-04 02:39:00,78.5,76.9,29.91,WSW,241,9.0,11.0,95,0.00,,OVC200,0.00,VWS V14.01,2013-06-04 06:39:00,
2013-06-04 02:40:00,78.5,76.9,29.91,SSW,206,9.0,9.0,95,0.00,,OVC200,0.00,VWS V14.01,2013-06-04 06:40:00,
2013-06-04 02:41:00,78.5,76.9,29.91,SSW,206,10.0,11.0,95,0.00,,OVC200,0.00,VWS V14.01,2013-06-04 06:41:00,
2013-06-04 02:42:00,78.3,76.8,29.91,SW,235,9.0,11.0,95,0.00,,CLR,0.00,VWS V14.01,2013-06-04 06:42:00,
2013-06-04 02:43:00,78.3,76.8,29.91,SSW,198,12.0,15.0,95,0.00,,OVC200,0.00,VWS V14.01,2013-06-04 06:43:00,
2013-06-04 02:44:00,78.3,76.8,29.91,SW,215,12.0,12.0,95,0.00,,OVC200,0.00,VWS V14.01,2013-06-04 06:44:00,
2013-06-04 02:45:00,78.3,76.8,29.91,SSW,200,13.0,15.0,95,0.00,,OVC200,0.00,VWS V14.01,2013-06-04 06:45:00,
2013-06-04 02:46:00,78.5,76.9,29.91,SW,219,7.0,13.0,95,0.00,,OVC200,0.00,VWS V14.01,2013-06-04 06:46:00,
2013-06-04 02:47:00,78.5,76.9,29.90,SW,216,5.0,6.0,95,0.00,,CLR,0.00,VWS V14.01,2013-06-04 06:47:00,
2013-06-04 02:48:00,78.5,76.9,29.91,SSW,198,7.0,10.0,95,0.00,,OVC200,0.00,VWS V14.01,2013-06-04 06:48:00,
2013-06-04 02:49:00,78.3,76.8,29.91,SW,219,7.0,7.0,95,0.00,,OVC200,0.00,VWS V14.01,2013-06-04 06:49:00,
2013-06-04 02:50:00,78.3,76.8,29.90,South,188,9.0,9.0,95,0.00,,OVC200,0.00,VWS V14.01,2013-06-04 06:50:00,
2013-06-04 02:51:00,78.3,76.8,29.91,SSW,203,6.0,7.0,95,0.00,,CLR,0.00,VWS V14.01,2013-06-04 06:51:00,
2013-06-04 02:52:00,78.3,76.8,29.91,SW,231,7.0,7.0,95,0.00,,OVC200,0.00,VWS V14.01,2013-06-04 06:52:00,
2013-06-04 02:53:00,78.3,76.8,29.91,WSW,240,6.0,11.0,95,0.00,,OVC200,0.00,VWS V14.01,2013-06-04 06:53:00,
2013-06-04 02:54:00,78.3,76.8,29.91,SW,235,4.0,8.0,95,0.00,,OVC200,0.00,VWS V14.01,2013-06-04 06:54:00,
2013-06-04 02:55:00,78.3,76.8,29.91,SW,222,4.0,6.0,95,0.00,,OVC200,0.00,VWS V14.01,2013-06-04 06:55:00,
2013-06-04 02:56:00,78.3,76.8,29.91,SW,218,13.0,15.0,95,0.00,,CLR,0.00,VWS V14.01,2013-06-04 06:56:00,
2013-06-04 02:57:00,78.3,76.8,29.91,SW,215,14.0,17.0,95,0.00,,OVC200,0.00,VWS V14.01,2013-06-04 06:57:00,
2013-06-04 02:58:00,78.3,76.8,29.91,SW,233,14.0,15.0,95,0.00,,OVC200,0.00,VWS V14.01,2013-06-04 06:58:00,
2013-06-04 02:59:00,78.3,76.8,29.91,SSW,209,13.0,14.0,95,0.00,,OVC200,0.00,VWS V14.01,2013-06-04 06:59:00,
2013-06-04 03:00:00,78.3,76.8,29.91,SW,217,6.0,13.0,95,0.00,,OVC200,0.00,VWS V14.01,2013-06-04 07:00:00,
2013-06-04 03:01:00,78.3,76.8,29.91,WSW,250,7.0,7.0,95,0.00,,OVC200,0.00,VWS V14.01,2013-06-04 07:01:00,
2013-06-04 03:02:00,78.3,76.4,29.91,WSW,242,2.0,3.0,94,0.00,,CLR,0.00,VWS V14.01,2013-06-04 07:02:00,
2013-06-04 03:03:00,78.3,76.4,29.91,SW,232,8.0,9.0,94,0.00,,OVC200,0.00,VWS V14.01,2013-06-04 07:03:00,
2013-06-04 03:04:00,78.3,76.8,29.90,SW,232,11.0,11.0,95,0.00,,OVC200,0.00,VWS V14.01,2013-06-04 07:04:00,
2013-06-04 03:05:00,78.3,76.8,29.91,SSW,211,7.0,11.0,95,0.00,,OVC200,0.00,VWS V14.01,2013-06-04 07:05:00,
2013-06-04 03:06:00,78.3,76.8,29.90,WSW,250,4.0,7.0,95,0.00,,OVC200,0.00,VWS V14.01,2013-06-04 07:06:00,
2013-06-04 03:07:00,78.3,76.8,29.90,SSW,205,3.0,4.0,95,0.00,,CLR,0.00,VWS V14.01,2013-06-04 07:07:00,
2013-06-04 03:08:00,78.3,76.8,29.90,SW,227,4.0,4.0,95,0.00,,OVC200,0.00,VWS V14.01,2013-06-04 07:08:00,
2013-06-04 03:09:00,78.3,76.8,29.91,WSW,254,6.0,6.0,95,0.00,,OVC200,0.00,VWS V14.01,2013-06-04 07:09:00,
2013-06-04 03:10:00,78.3,76.8,29.90,SW,225,2.0,6.0,95,0.00,,OVC200,0.00,VWS V14.01,2013-06-04 07:10:00,
2013-06-04 03:11:00,78.3,76.4,29.90,SSW,202,9.0,9.0,94,0.00,,OVC200,0.00,VWS V14.01,2013-06-04 07:11:00,
2013-06-04 03:12:00,78.3,76.4,29.90,WSW,254,3.0,5.0,94,0.00,,CLR,0.00,VWS V14.01,2013-06-04 07:12:00,
2013-06-04 03:13:00,78.3,76.4,29.90,SW,223,4.0,5.0,94,0.00,,OVC200,0.00,VWS V14.01,2013-06-04 07:13:00,
2013-06-04 03:14:00,78.3,76.4,29.90,West,264,6.0,6.0,94,0.00,,OVC200,0.00,VWS V14.01,2013-06-04 07:14:00,
2013-06-04 03:15:00,78.1,76.2,29.90,WSW,244,5.0,8.0,94,0.00,,OVC200,0.00,VWS V14.01,2013-06-04 07:15:00,
2013-06-04 03:16:00,78.1,76.2,29.90,WSW,252,5.0,9.0,94,0.00,,OVC200,0.00,VWS V14.01,2013-06-04 07:16:00,
2013-06-04 03:17:00,78.1,76.2,29.90,SW,225,6.0,6.0,94,0.00,,CLR,0.00,VWS V14.01,2013-06-04 07:17:00,
2013-06-04 03:18:00,77.9,76.0,29.90,WSW,242,6.0,7.0,94,0.00,,OVC200,0.00,VWS V14.01,2013-06-04 07:18:00,
2013-06-04 03:19:00,77.9,76.0,29.90,West,271,5.0,12.0,94,0.00,,OVC200,0.00,VWS V14.01,2013-06-04 07:19:00,
2013-06-04 03:20:00,77.9,75.7,29.90,WSW,257,5.0,12.0,93,0.00,,OVC200,0.00,VWS V14.01,2013-06-04 07:20:00,
2013-06-04 03:21:00,77.9,75.7,29.90,West,266,10.0,10.0,93,0.00,,OVC200,0.00,VWS V14.01,2013-06-04 07:21:00,
2013-06-04 03:22:00,77.9,75.7,29.90,SW,236,4.0,7.0,93,0.00,,CLR,0.00,VWS V14.01,2013-06-04 07:22:00,
2013-06-04 03:23:00,77.9,75.7,29.90,SW,228,6.0,7.0,93,0.00,,OVC200,0.00,VWS V14.01,2013-06-04 07:23:00,
2013-06-04 03:24:00,77.9,75.7,29.90,West,265,4.0,9.0,93,0.00,,OVC200,0.00,VWS V14.01,2013-06-04 07:24:00,
2013-06-04 03:25:00,77.9,75.7,29.90,WSW,240,6.0,6.0,93,0.00,,OVC200,0.00,VWS V14.01,2013-06-04 07:25:00,
2013-06-04 03:26:00,78.1,75.9,29.90,WSW,238,6.0,6.0,93,0.00,,OVC200,0.00,VWS V14.01,2013-06-04 07:26:00,
2013-06-04 03:27:00,78.1,75.9,29.90,SW,233,6.0,6.0,93,0.00,,CLR,0.00,VWS V14.01,2013-06-04 07:27:00,
2013-06-04 03:28:00,78.1,75.9,29.90,WSW,246,3.0,6.0,93,0.00,,OVC200,0.00,VWS V14.01,2013-06-04 07:28:00,
2013-06-04 03:29:00,78.1,75.9,29.90,WSW,244,3.0,11.0,93,0.00,,OVC200,0.00,VWS V14.01,2013-06-04 07:29:00,
2013-06-04 03:30:00,78.1,75.9,29.90,WSW,246,5.0,5.0,93,0.00,,OVC200,0.00,VWS V14.01,2013-06-04 07:30:00,
2013-06-04 03:31:00,78.1,75.9,29.90,SW,235,2.0,9.0,93,0.00,,OVC200,0.00,VWS V14.01,2013-06-04 07:31:00,
2013-06-04 03:32:00,78.1,75.9,29.90,WSW,247,6.0,6.0,93,0.00,,CLR,0.00,VWS V14.01,2013-06-04 07:32:00,
2013-06-04 03:33:00,78.1,75.9,29.90,WSW,247,5.0,6.0,93,0.00,,OVC200,0.00,VWS V14.01,2013-06-04 07:33:00,
2013-06-04 03:34:00,78.1,75.9,29.90,West,263,4.0,6.0,93,0.00,,OVC200,0.00,VWS V14.01,2013-06-04 07:34:00,
2013-06-04 03:35:00,78.1,75.9,29.90,WSW,237,3.0,5.0,93,0.00,,OVC200,0.00,VWS V14.01,2013-06-04 07:35:00,
2013-06-04 03:36:00,78.1,75.9,29.90,WSW,244,3.0,6.0,93,0.00,,OVC200,0.00,VWS V14.01,2013-06-04 07:36:00,
2013-06-04 03:37:00,78.1,75.9,29.90,WSW,248,9.0,9.0,93,0.00,,CLR,0.00,VWS V14.01,2013-06-04 07:37:00,
2013-06-04 03:38:00,78.1,75.9,29.90,WSW,254,7.0,9.0,93,0.00,,OVC200,0.00,VWS V14.01,2013-06-04 07:38:00,
2013-06-04 03:39:00,78.1,75.9,29.90,WSW,254,6.0,7.0,93,0.00,,OVC200,0.00,VWS V14.01,2013-06-04 07:39:00,
2013-06-04 03:40:00,78.1,75.9,29.90,South,183,3.0,11.0,93,0.00,,OVC200,0.00,VWS V14.01,2013-06-04 07:40:00,
2013-06-04 03:41:00,77.9,75.7,29.90,WSW,246,10.0,11.0,93,0.00,,OVC200,0.00,VWS V14.01,2013-06-04 07:41:00,
2013-06-04 03:42:00,77.9,75.4,29.90,SW,219,5.0,7.0,92,0.00,,CLR,0.00,VWS V14.01,2013-06-04 07:42:00,
2013-06-04 03:43:00,77.9,75.4,29.90,WSW,240,4.0,7.0,92,0.00,,OVC200,0.00,VWS V14.01,2013-06-04 07:43:00,
2013-06-04 03:44:00,77.9,75.4,29.90,SW,223,5.0,5.0,92,0.00,,OVC200,0.00,VWS V14.01,2013-06-04 07:44:00,
2013-06-04 03:45:00,77.9,75.4,29.90,SW,229,5.0,12.0,92,0.00,,OVC200,0.00,VWS V14.01,2013-06-04 07:45:00,
2013-06-04 03:46:00,77.9,75.4,29.90,SW,234,8.0,11.0,92,0.00,,OVC200,0.00,VWS V14.01,2013-06-04 07:46:00,
2013-06-04 03:47:00,77.9,75.4,29.90,WSW,256,4.0,7.0,92,0.00,,CLR,0.00,VWS V14.01,2013-06-04 07:47:00,
2013-06-04 03:48:00,77.9,75.4,29.90,WSW,246,4.0,7.0,92,0.00,,OVC200,0.00,VWS V14.01,2013-06-04 07:48:00,
2013-06-04 03:49:00,77.9,75.4,29.90,SW,236,9.0,9.0,92,0.00,,OVC200,0.00,VWS V14.01,2013-06-04 07:49:00,
2013-06-04 03:50:00,77.9,75.4,29.90,WSW,256,9.0,9.0,92,0.00,,OVC200,0.00,VWS V14.01,2013-06-04 07:50:00,
2013-06-04 03:51:00,77.9,75.1,29.90,SW,236,9.0,9.0,91,0.00,,OVC200,0.00,VWS V14.01,2013-06-04 07:51:00,
2013-06-04 03:52:00,77.9,75.1,29.90,WSW,256,8.0,9.0,91,0.00,,CLR,0.00,VWS V14.01,2013-06-04 07:52:00,
2013-06-04 03:53:00,77.9,75.1,29.90,West,259,3.0,9.0,91,0.00,,OVC200,0.00,VWS V14.01,2013-06-04 07:53:00,
2013-06-04 03:54:00,77.9,75.1,29.90,WSW,243,7.0,9.0,91,0.00,,OVC200,0.00,VWS V14.01,2013-06-04 07:54:00,
2013-06-04 03:55:00,77.9,75.1,29.90,WSW,252,6.0,7.0,91,0.00,,OVC200,0.00,VWS V14.01,2013-06-04 07:55:00,
2013-06-04 03:56:00,77.7,74.9,29.90,West,274,4.0,6.0,91,0.00,,OVC200,0.00,VWS V14.01,2013-06-04 07:56:00,
2013-06-04 03:57:00,77.7,74.5,29.89,WSW,254,9.0,9.0,90,0.00,,CLR,0.00,VWS V14.01,2013-06-04 07:57:00,
2013-06-04 03:58:00,77.7,74.5,29.89,WSW,237,11.0,11.0,90,0.00,,OVC200,0.00,VWS V14.01,2013-06-04 07:58:00,
2013-06-04 03:59:00,77.7,74.5,29.89,WSW,250,5.0,11.0,90,0.00,,OVC200,0.00,VWS V14.01,2013-06-04 07:59:00,
2013-06-04 04:00:00,77.6,74.4,29.90,WSW,257,7.0,11.0,90,0.00,,OVC200,0.00,VWS V14.01,2013-06-04 08:00:00,
2013-06-04 04:01:00,77.6,74.4,29.89,WSW,248,3.0,7.0,90,0.00,,OVC200,0.00,VWS V14.01,2013-06-04 08:01:00,
2013-06-04 04:02:00,77.7,74.5,29.89,SW,231,6.0,6.0,90,0.00,,CLR,0.00,VWS V14.01,2013-06-04 08:02:00,
2013-06-04 04:03:00,77.7,74.5,29.89,West,261,9.0,9.0,90,0.00,,OVC200,0.00,VWS V14.01,2013-06-04 08:03:00,
2013-06-04 04:04:00,77.7,74.5,29.89,WSW,240,4.0,9.0,90,0.00,,OVC200,0.00,VWS V14.01,2013-06-04 08:04:00,
2013-06-04 04:05:00,77.7,74.5,29.89,WSW,254,6.0,6.0,90,0.00,,OVC200,0.00,VWS V14.01,2013-06-04 08:05:00,
2013-06-04 04:06:00,77.7,74.5,29.89,WSW,246,3.0,6.0,90,0.00,,OVC200,0.00,VWS V14.01,2013-06-04 08:06:00,
2013-06-04 04:07:00,77.7,74.5,29.89,WSW,256,10.0,10.0,90,0.00,,CLR,0.00,VWS V14.01,2013-06-04 08:07:00,
2013-06-04 04:08:00,77.7,74.5,29.89,SW,224,12.0,12.0,90,0.00,,OVC200,0.00,VWS V14.01,2013-06-04 08:08:00,
2013-06-04 04:09:00,77.7,74.5,29.89,WSW,238,5.0,12.0,90,0.00,,OVC200,0.00,VWS V14.01,2013-06-04 08:09:00,
2013-06-04 04:10:00,77.7,74.5,29.89,WSW,244,2.0,6.0,90,0.00,,OVC200,0.00,VWS V14.01,2013-06-04 08:10:00,
2013-06-04 04:11:00,77.6,74.4,29.89,SW,223,4.0,7.0,90,0.00,,OVC200,0.00,VWS V14.01,2013-06-04 08:11:00,
2013-06-04 04:12:00,77.6,74.4,29.89,SW,234,6.0,6.0,90,0.00,,CLR,0.00,VWS V14.01,2013-06-04 08:12:00,
2013-06-04 04:13:00,77.6,74.4,29.89,West,262,3.0,9.0,90,0.00,,OVC200,0.00,VWS V14.01,2013-06-04 08:13:00,
2013-06-04 04:14:00,77.6,74.4,29.89,WSW,254,2.0,5.0,90,0.00,,OVC200,0.00,VWS V14.01,2013-06-04 08:14:00,
2013-06-04 04:15:00,77.4,74.2,29.89,SW,234,6.0,11.0,90,0.00,,OVC200,0.00,VWS V14.01,2013-06-04 08:15:00,
2013-06-04 04:16:00,77.4,74.2,29.89,West,262,1.0,6.0,90,0.00,,OVC200,0.00,VWS V14.01,2013-06-04 08:16:00,
2013-06-04 04:17:00,77.4,74.2,29.89,WSW,246,9.0,9.0,90,0.00,,CLR,0.00,VWS V14.01,2013-06-04 08:17:00,
2013-06-04 04:18:00,77.4,74.2,29.89,SW,229,6.0,9.0,90,0.00,,OVC200,0.00,VWS V14.01,2013-06-04 08:18:00,
2013-06-04 04:19:00,77.2,74.0,29.89,West,264,4.0,9.0,90,0.00,,OVC200,0.00,VWS V14.01,2013-06-04 08:19:00,
2013-06-04 04:20:00,77.2,74.0,29.89,WSW,246,7.0,7.0,90,0.00,,OVC200,0.00,VWS V14.01,2013-06-04 08:20:00,
2013-06-04 04:21:00,77.2,74.0,29.89,SW,230,3.0,7.0,90,0.00,,OVC200,0.00,VWS V14.01,2013-06-04 08:21:00,
2013-06-04 04:22:00,77.2,74.0,29.89,SW,235,6.0,10.0,90,0.00,,CLR,0.00,VWS V14.01,2013-06-04 08:22:00,
2013-06-04 04:23:00,77.2,74.0,29.89,West,273,4.0,10.0,90,0.00,,OVC200,0.00,VWS V14.01,2013-06-04 08:23:00,
2013-06-04 04:24:00,77.2,74.0,29.89,SW,234,3.0,5.0,90,0.00,,OVC200,0.00,VWS V14.01,2013-06-04 08:24:00,
2013-06-04 04:25:00,77.2,74.0,29.89,WSW,250,4.0,12.0,90,0.00,,OVC200,0.00,VWS V14.01,2013-06-04 08:25:00,
2013-06-04 04:26:00,77.2,74.0,29.89,WSW,246,5.0,6.0,90,0.00,,OVC200,0.00,VWS V14.01,2013-06-04 08:26:00,
2013-06-04 04:27:00,77.2,74.0,29.89,WSW,253,6.0,7.0,90,0.00,,CLR,0.00,VWS V14.01,2013-06-04 08:27:00,
2013-06-04 04:28:00,77.2,74.0,29.89,West,266,3.0,7.0,90,0.00,,OVC200,0.00,VWS V14.01,2013-06-04 08:28:00,
2013-06-04 04:29:00,77.0,73.8,29.89,WSW,245,4.0,9.0,90,0.00,,OVC200,0.00,VWS V14.01,2013-06-04 08:29:00,
2013-06-04 04:30:00,77.0,73.8,29.89,SW,220,7.0,7.0,90,0.00,,OVC200,0.00,VWS V14.01,2013-06-04 08:30:00,
2013-06-04 04:31:00,77.0,73.8,29.89,West,261,4.0,7.0,90,0.00,,OVC200,0.00,VWS V14.01,2013-06-04 08:31:00,
2013-06-04 04:32:00,77.0,73.8,29.89,West,273,4.0,5.0,90,0.00,,CLR,0.00,VWS V14.01,2013-06-04 08:32:00,
2013-06-04 04:33:00,77.0,73.8,29.89,West,281,5.0,5.0,90,0.00,,OVC200,0.00,VWS V14.01,2013-06-04 08:33:00,
2013-06-04 04:34:00,77.0,73.8,29.89,WSW,237,5.0,7.0,90,0.00,,OVC200,0.00,VWS V14.01,2013-06-04 08:34:00,
2013-06-04 04:35:00,77.0,73.8,29.89,WNW,286,4.0,6.0,90,0.00,,OVC200,0.00,VWS V14.01,2013-06-04 08:35:00,
2013-06-04 04:36:00,77.0,73.8,29.89,WSW,257,4.0,4.0,90,0.00,,OVC200,0.00,VWS V14.01,2013-06-04 08:36:00,
2013-06-04 04:37:00,76.8,73.7,29.89,SW,226,9.0,10.0,90,0.00,,CLR,0.00,VWS V14.01,2013-06-04 08:37:00,
2013-06-04 04:38:00,76.8,73.7,29.89,WSW,237,3.0,10.0,90,0.00,,OVC200,0.00,VWS V14.01,2013-06-04 08:38:00,
2013-06-04 04:39:00,76.8,74.0,29.89,WSW,246,4.0,5.0,91,0.00,,OVC200,0.00,VWS V14.01,2013-06-04 08:39:00,
2013-06-04 04:40:00,76.8,74.0,29.89,WSW,253,7.0,7.0,91,0.00,,OVC200,0.00,VWS V14.01,2013-06-04 08:40:00,
2013-06-04 04:41:00,76.8,74.0,29.89,WSW,240,4.0,7.0,91,0.00,,OVC200,0.00,VWS V14.01,2013-06-04 08:41:00,
2013-06-04 04:42:00,76.7,73.9,29.89,WSW,239,5.0,7.0,91,0.00,,CLR,0.00,VWS V14.01,2013-06-04 08:42:00,
2013-06-04 04:43:00,76.7,73.9,29.89,WSW,242,5.0,7.0,91,0.00,,OVC200,0.00,VWS V14.01,2013-06-04 08:43:00,
2013-06-04 04:44:00,76.7,73.9,29.89,WSW,255,7.0,9.0,91,0.00,,OVC200,0.00,VWS V14.01,2013-06-04 08:44:00,
2013-06-04 04:45:00,76.7,73.9,29.89,WSW,249,3.0,7.0,91,0.00,,OVC200,0.00,VWS V14.01,2013-06-04 08:45:00,
2013-06-04 04:46:00,76.7,73.9,29.89,WSW,251,6.0,6.0,91,0.00,,OVC200,0.00,VWS V14.01,2013-06-04 08:46:00,
2013-06-04 04:47:00,76.7,73.9,29.89,West,273,5.0,5.0,91,0.00,,CLR,0.00,VWS V14.01,2013-06-04 08:47:00,
2013-06-04 04:48:00,76.7,73.9,29.89,SW,232,5.0,10.0,91,0.00,,OVC200,0.00,VWS V14.01,2013-06-04 08:48:00,
2013-06-04 04:49:00,76.7,73.9,29.89,WSW,252,6.0,6.0,91,0.00,,OVC200,0.00,VWS V14.01,2013-06-04 08:49:00,
2013-06-04 04:50:00,76.7,73.9,29.89,WSW,243,4.0,9.0,91,0.00,,OVC200,0.00,VWS V14.01,2013-06-04 08:50:00,
2013-06-04 04:51:00,76.7,73.9,29.89,West,262,4.0,6.0,91,0.00,,OVC200,0.00,VWS V14.01,2013-06-04 08:51:00,
2013-06-04 04:52:00,76.7,73.9,29.89,West,263,5.0,9.0,91,0.00,,CLR,0.00,VWS V14.01,2013-06-04 08:52:00,
2013-06-04 04:53:00,76.7,73.9,29.89,SSW,211,6.0,9.0,91,0.00,,OVC200,0.00,VWS V14.01,2013-06-04 08:53:00,
2013-06-04 04:54:00,76.7,74.2,29.89,SW,229,5.0,6.0,92,0.00,,OVC200,0.00,VWS V14.01,2013-06-04 08:54:00,
2013-06-04 04:55:00,76.7,73.9,29.90,West,271,6.0,8.0,91,0.00,,OVC200,0.00,VWS V14.01,2013-06-04 08:55:00,
2013-06-04 04:56:00,76.7,73.9,29.90,WSW,253,3.0,10.0,91,0.00,,OVC200,0.00,VWS V14.01,2013-06-04 08:56:00,
2013-06-04 04:57:00,76.7,74.2,29.90,WSW,248,3.0,6.0,92,0.00,,CLR,0.00,VWS V14.01,2013-06-04 08:57:00,
2013-06-04 04:58:00,76.7,74.2,29.90,WSW,240,5.0,7.0,92,0.00,,OVC200,0.00,VWS V14.01,2013-06-04 08:58:00,
2013-06-04 04:59:00,76.7,74.2,29.90,WSW,245,5.0,10.0,92,0.00,,OVC200,0.00,VWS V14.01,2013-06-04 08:59:00,
2013-06-04 05:00:00,76.7,74.2,29.90,WSW,245,4.0,5.0,92,0.00,,OVC200,0.00,VWS V14.01,2013-06-04 09:00:00,
2013-06-04 05:01:00,76.7,74.2,29.90,West,281,2.0,4.0,92,0.00,,OVC200,0.00,VWS V14.01,2013-06-04 09:01:00,
2013-06-04 05:02:00,76.5,74.0,29.90,WSW,251,2.0,6.0,92,0.00,,CLR,0.00,VWS V14.01,2013-06-04 09:02:00,
2013-06-04 05:03:00,76.5,74.0,29.90,WNW,287,3.0,6.0,92,0.00,,OVC200,0.00,VWS V14.01,2013-06-04 09:03:00,
2013-06-04 05:04:00,76.5,74.0,29.90,WSW,254,9.0,9.0,92,0.00,,OVC200,0.00,VWS V14.01,2013-06-04 09:04:00,
2013-06-04 05:05:00,76.5,74.0,29.90,WSW,246,6.0,9.0,92,0.00,,OVC200,0.00,VWS V14.01,2013-06-04 09:05:00,
2013-06-04 05:06:00,76.5,74.0,29.90,West,271,6.0,6.0,92,0.00,,OVC200,0.00,VWS V14.01,2013-06-04 09:06:00,
2013-06-04 05:07:00,76.5,74.0,29.90,WSW,242,6.0,6.0,92,0.00,,CLR,0.00,VWS V14.01,2013-06-04 09:07:00,
2013-06-04 05:08:00,76.5,74.0,29.90,WSW,240,5.0,9.0,92,0.00,,OVC200,0.00,VWS V14.01,2013-06-04 09:08:00,
2013-06-04 05:09:00,76.5,74.0,29.90,WSW,248,4.0,6.0,92,0.00,,OVC200,0.00,VWS V14.01,2013-06-04 09:09:00,
2013-06-04 05:10:00,76.5,74.0,29.90,West,262,4.0,6.0,92,0.00,,OVC200,0.00,VWS V14.01,2013-06-04 09:10:00,
2013-06-04 05:11:00,76.5,74.0,29.90,WSW,256,4.0,5.0,92,0.00,,OVC200,0.00,VWS V14.01,2013-06-04 09:11:00,
2013-06-04 05:12:00,76.3,73.8,29.90,West,259,2.0,7.0,92,0.00,,CLR,0.00,VWS V14.01,2013-06-04 09:12:00,
2013-06-04 05:13:00,76.3,73.8,29.90,WSW,258,4.0,7.0,92,0.00,,OVC200,0.00,VWS V14.01,2013-06-04 09:13:00,
2013-06-04 05:14:00,76.3,73.8,29.90,WNW,282,2.0,4.0,92,0.00,,OVC200,0.00,VWS V14.01,2013-06-04 09:14:00,
2013-06-04 05:15:00,76.3,73.8,29.90,West,261,2.0,4.0,92,0.00,,OVC200,0.00,VWS V14.01,2013-06-04 09:15:00,
2013-06-04 05:16:00,76.3,74.1,29.90,West,261,1.0,2.0,93,0.00,,OVC200,0.00,VWS V14.01,2013-06-04 09:16:00,
2013-06-04 05:17:00,76.3,74.1,29.90,West,275,1.0,4.0,93,0.00,,CLR,0.00,VWS V14.01,2013-06-04 09:17:00,
2013-06-04 05:18:00,76.3,74.1,29.90,WSW,252,3.0,5.0,93,0.00,,OVC200,0.00,VWS V14.01,2013-06-04 09:18:00,
2013-06-04 05:19:00,76.1,73.9,29.90,WSW,252,3.0,4.0,93,0.00,,OVC200,0.00,VWS V14.01,2013-06-04 09:19:00,
2013-06-04 05:20:00,76.1,73.9,29.90,WSW,246,5.0,7.0,93,0.00,,OVC200,0.00,VWS V14.01,2013-06-04 09:20:00,
2013-06-04 05:21:00,76.1,73.9,29.90,WSW,244,1.0,5.0,93,0.00,,OVC200,0.00,VWS V14.01,2013-06-04 09:21:00,
2013-06-04 05:22:00,76.1,73.9,29.90,WSW,245,6.0,6.0,93,0.00,,CLR,0.00,VWS V14.01,2013-06-04 09:22:00,
2013-06-04 05:23:00,76.1,73.9,29.90,WSW,254,3.0,6.0,93,0.00,,OVC200,0.00,VWS V14.01,2013-06-04 09:23:00,
2013-06-04 05:24:00,76.1,73.9,29.90,WSW,254,2.0,4.0,93,0.00,,OVC200,0.00,VWS V14.01,2013-06-04 09:24:00,
2013-06-04 05:25:00,76.1,73.9,29.90,WSW,254,3.0,3.0,93,0.00,,OVC200,0.00,VWS V14.01,2013-06-04 09:25:00,
2013-06-04 05:26:00,76.1,73.9,29.91,WSW,250,2.0,4.0,93,0.00,,CLR,0.00,VWS V14.01,2013-06-04 09:26:00,
2013-06-04 05:27:00,76.1,73.9,29.91,WSW,250,4.0,4.0,93,0.00,,OVC200,0.00,VWS V14.01,2013-06-04 09:27:00,
2013-06-04 05:28:00,76.1,73.9,29.91,WSW,250,3.0,4.0,93,0.00,,OVC200,0.00,VWS V14.01,2013-06-04 09:28:00,
2013-06-04 05:29:00,76.1,74.2,29.91,WSW,254,3.0,5.0,94,0.00,,OVC200,0.00,VWS V14.01,2013-06-04 09:29:00,
2013-06-04 05:30:00,76.0,74.2,29.91,WSW,242,2.0,5.0,94,0.00,,OVC200,0.00,VWS V14.01,2013-06-04 09:30:00,
2013-06-04 05:31:00,76.0,74.2,29.91,WSW,245,2.0,2.0,94,0.00,,CLR,0.00,VWS V14.01,2013-06-04 09:31:00,
2013-06-04 05:32:00,76.0,74.2,29.91,WSW,246,1.0,3.0,94,0.00,,OVC200,0.00,VWS V14.01,2013-06-04 09:32:00,
2013-06-04 05:33:00,76.0,74.2,29.91,WSW,244,4.0,4.0,94,0.00,,OVC200,0.00,VWS V14.01,2013-06-04 09:33:00,
2013-06-04 05:34:00,76.0,74.2,29.91,WSW,258,2.0,5.0,94,0.00,,OVC200,0.00,VWS V14.01,2013-06-04 09:34:00,
2013-06-04 05:35:00,76.0,74.2,29.91,WSW,258,2.0,2.0,94,0.00,,OVC200,0.00,VWS V14.01,2013-06-04 09:35:00,
2013-06-04 05:36:00,76.0,74.2,29.91,WSW,241,1.0,1.0,94,0.00,,CLR,0.00,VWS V14.01,2013-06-04 09:36:00,
2013-06-04 05:37:00,76.0,74.2,29.91,WSW,241,0.0,5.0,94,0.00,,OVC200,0.00,VWS V14.01,2013-06-04 09:37:00,
2013-06-04 05:38:00,76.0,74.2,29.91,WSW,238,5.0,5.0,94,0.00,,OVC200,0.00,VWS V14.01,2013-06-04 09:38:00,
2013-06-04 05:39:00,76.0,74.2,29.91,WSW,255,4.0,5.0,94,0.00,,OVC200,0.00,VWS V14.01,2013-06-04 09:39:00,
2013-06-04 05:40:00,76.0,74.2,29.91,WSW,252,2.0,4.0,94,0.00,,OVC200,0.00,VWS V14.01,2013-06-04 09:40:00,
2013-06-04 05:41:00,76.0,74.2,29.91,West,261,1.0,3.0,94,0.00,,CLR,0.00,VWS V14.01,2013-06-04 09:41:00,
2013-06-04 05:42:00,76.0,74.2,29.91,West,261,3.0,3.0,94,0.00,,OVC200,0.00,VWS V14.01,2013-06-04 09:42:00,
2013-06-04 05:43:00,76.0,74.2,29.91,West,261,1.0,3.0,94,0.00,,OVC200,0.00,VWS V14.01,2013-06-04 09:43:00,
2013-06-04 05:44:00,76.0,74.2,29.91,West,261,1.0,1.0,94,0.00,,OVC200,0.00,VWS V14.01,2013-06-04 09:44:00,
2013-06-04 05:45:00,76.0,74.2,29.91,West,261,0.0,1.0,94,0.00,,OVC200,0.00,VWS V14.01,2013-06-04 09:45:00,
2013-06-04 05:46:00,75.8,74.3,29.91,West,261,3.0,3.0,95,0.00,,CLR,0.00,VWS V14.01,2013-06-04 09:46:00,
2013-06-04 05:47:00,75.8,74.3,29.91,West,261,1.0,2.0,95,0.00,,OVC200,0.00,VWS V14.01,2013-06-04 09:47:00,
2013-06-04 05:48:00,75.8,74.3,29.91,West,263,2.0,4.0,95,0.00,,OVC200,0.00,VWS V14.01,2013-06-04 09:48:00,
2013-06-04 05:49:00,75.8,74.3,29.91,West,263,1.0,2.0,95,0.00,,OVC200,0.00,VWS V14.01,2013-06-04 09:49:00,
2013-06-04 05:50:00,75.8,74.3,29.91,West,263,3.0,3.0,95,0.00,,OVC200,0.00,VWS V14.01,2013-06-04 09:50:00,
2013-06-04 05:51:00,75.8,74.3,29.91,West,274,1.0,4.0,95,0.00,,OVC200,0.00,VWS V14.01,2013-06-04 09:51:00,
2013-06-04 05:52:00,75.8,74.3,29.91,WNW,286,2.0,4.0,95,0.00,,CLR,0.00,VWS V14.01,2013-06-04 09:52:00,
2013-06-04 05:53:00,75.8,74.3,29.91,WNW,286,1.0,4.0,95,0.00,,OVC200,0.00,VWS V14.01,2013-06-04 09:53:00,
2013-06-04 05:54:00,75.8,74.3,29.91,WNW,286,1.0,4.0,95,0.00,,OVC200,0.00,VWS V14.01,2013-06-04 09:54:00,
2013-06-04 05:55:00,75.8,74.3,29.91,WNW,286,2.0,2.0,95,0.00,,OVC200,0.00,VWS V14.01,2013-06-04 09:55:00,
2013-06-04 05:56:00,75.8,74.3,29.91,WNW,286,4.0,4.0,95,0.00,,OVC200,0.00,VWS V14.01,2013-06-04 09:56:00,
2013-06-04 05:57:00,75.8,74.3,29.91,WNW,286,2.0,2.0,95,0.00,,CLR,0.00,VWS V14.01,2013-06-04 09:57:00,
2013-06-04 05:58:00,75.8,74.3,29.91,WNW,286,3.0,3.0,95,0.00,,OVC200,0.00,VWS V14.01,2013-06-04 09:58:00,
2013-06-04 05:59:00,75.8,74.3,29.91,West,263,4.0,4.0,95,0.00,,OVC200,0.00,VWS V14.01,2013-06-04 09:59:00,
2013-06-04 06:00:00,75.8,74.3,29.91,SW,232,3.0,4.0,95,0.00,,OVC200,0.00,VWS V14.01,2013-06-04 10:00:00,
2013-06-04 06:01:00,75.8,74.3,29.91,WSW,253,2.0,3.0,95,0.00,,CLR,0.00,VWS V14.01,2013-06-04 10:01:00,
2013-06-04 06:02:00,75.8,74.3,29.91,WSW,253,3.0,4.0,95,0.00,,OVC200,0.00,VWS V14.01,2013-06-04 10:02:00,
2013-06-04 06:03:00,75.8,74.3,29.91,WSW,253,3.0,4.0,95,0.00,,OVC200,0.00,VWS V14.01,2013-06-04 10:03:00,
2013-06-04 06:04:00,75.8,74.3,29.91,WSW,253,2.0,3.0,95,0.00,,OVC200,0.00,VWS V14.01,2013-06-04 10:04:00,
2013-06-04 06:05:00,75.8,74.3,29.91,WSW,253,2.0,3.0,95,0.00,,OVC200,0.00,VWS V14.01,2013-06-04 10:05:00,
2013-06-04 06:06:00,75.8,74.3,29.91,WSW,248,2.0,4.0,95,0.00,,CLR,0.00,VWS V14.01,2013-06-04 10:06:00,
2013-06-04 06:07:00,75.8,74.3,29.91,WSW,248,4.0,5.0,95,0.00,,OVC200,0.00,VWS V14.01,2013-06-04 10:07:00,
2013-06-04 06:08:00,75.8,74.3,29.91,WSW,248,3.0,4.0,95,0.00,,OVC200,0.00,VWS V14.01,2013-06-04 10:08:00,
2013-06-04 06:09:00,75.8,74.3,29.91,WSW,248,2.0,3.0,95,0.00,,OVC200,0.00,VWS V14.01,2013-06-04 10:09:00,
2013-06-04 06:10:00,75.6,74.1,29.91,WSW,248,1.0,3.0,95,0.00,,OVC200,0.00,VWS V14.01,2013-06-04 10:10:00,
2013-06-04 06:11:00,75.6,74.1,29.91,WSW,251,2.0,3.0,95,0.00,,OVC200,0.00,VWS V14.01,2013-06-04 10:11:00,
2013-06-04 06:12:00,75.6,74.1,29.91,WSW,251,0.0,1.0,95,0.00,,CLR,0.00,VWS V14.01,2013-06-04 10:12:00,
2013-06-04 06:13:00,75.6,74.1,29.91,WSW,251,0.0,1.0,95,0.00,,OVC200,0.00,VWS V14.01,2013-06-04 10:13:00,
2013-06-04 06:14:00,75.6,74.1,29.91,WSW,251,1.0,2.0,95,0.00,,OVC200,0.00,VWS V14.01,2013-06-04 10:14:00,
2013-06-04 06:15:00,75.6,74.4,29.91,WSW,250,2.0,2.0,96,0.00,,OVC200,0.00,VWS V14.01,2013-06-04 10:15:00,
2013-06-04 06:16:00,75.6,74.4,29.91,WSW,251,2.0,2.0,96,0.00,,OVC200,0.00,VWS V14.01,2013-06-04 10:16:00,
2013-06-04 06:17:00,75.6,74.4,29.91,West,268,1.0,1.0,96,0.00,,CLR,0.00,VWS V14.01,2013-06-04 10:17:00,
2013-06-04 06:18:00,75.6,74.4,29.91,West,268,1.0,2.0,96,0.00,,OVC200,0.00,VWS V14.01,2013-06-04 10:18:00,
2013-06-04 06:19:00,75.6,74.4,29.91,West,268,4.0,4.0,96,0.00,,OVC200,0.00,VWS V14.01,2013-06-04 10:19:00,
2013-06-04 06:20:00,75.6,74.4,29.91,West,277,2.0,4.0,96,0.00,,OVC200,0.00,VWS V14.01,2013-06-04 10:20:00,
2013-06-04 06:21:00,75.6,74.4,29.91,West,279,1.0,4.0,96,0.00,,OVC200,0.00,VWS V14.01,2013-06-04 10:21:00,
2013-06-04 06:22:00,75.6,74.4,29.91,West,275,1.0,2.0,96,0.00,,CLR,0.00,VWS V14.01,2013-06-04 10:22:00,
2013-06-04 06:23:00,75.6,74.4,29.91,West,275,2.0,2.0,96,0.00,,OVC200,0.00,VWS V14.01,2013-06-04 10:23:00,
2013-06-04 06:24:00,75.6,74.4,29.91,West,275,1.0,2.0,96,0.00,,OVC200,0.00,VWS V14.01,2013-06-04 10:24:00,
2013-06-04 06:25:00,75.6,74.4,29.92,West,275,1.0,1.0,96,0.00,,OVC200,0.00,VWS V14.01,2013-06-04 10:25:00,
2013-06-04 06:26:00,75.6,74.4,29.92,West,281,2.0,4.0,96,0.00,,OVC200,0.00,VWS V14.01,2013-06-04 10:26:00,
2013-06-04 06:27:00,75.6,74.4,29.92,WNW,302,2.0,3.0,96,0.00,,CLR,0.00,VWS V14.01,2013-06-04 10:27:00,
2013-06-04 06:28:00,75.6,74.4,29.92,WNW,285,3.0,4.0,96,0.00,,OVC200,0.00,VWS V14.01,2013-06-04 10:28:00,
2013-06-04 06:29:00,75.6,74.4,29.92,WNW,286,3.0,3.0,96,0.00,,OVC200,0.00,VWS V14.01,2013-06-04 10:29:00,
2013-06-04 06:30:00,75.6,74.4,29.92,WNW,286,1.0,3.0,96,0.00,,OVC200,0.00,VWS V14.01,2013-06-04 10:30:00,
2013-06-04 06:31:00,75.6,74.4,29.92,WNW,296,2.0,3.0,96,0.00,,OVC200,0.00,VWS V14.01,2013-06-04 10:31:00,
2013-06-04 06:32:00,75.6,74.4,29.92,NW,305,2.0,2.0,96,0.00,,CLR,0.00,VWS V14.01,2013-06-04 10:32:00,
2013-06-04 06:33:00,75.6,74.4,29.92,West,267,2.0,3.0,96,0.00,,OVC200,0.00,VWS V14.01,2013-06-04 10:33:00,
2013-06-04 06:34:00,75.6,74.4,29.92,West,277,3.0,3.0,96,0.00,,OVC200,0.00,VWS V14.01,2013-06-04 10:34:00,
2013-06-04 06:35:00,75.4,74.2,29.92,WNW,286,1.0,3.0,96,0.00,,OVC200,0.00,VWS V14.01,2013-06-04 10:35:00,
2013-06-04 06:36:00,75.4,74.2,29.92,WNW,286,1.0,2.0,96,0.00,,OVC200,0.00,VWS V14.01,2013-06-04 10:36:00,
2013-06-04 06:37:00,75.4,74.2,29.92,WNW,284,2.0,2.0,96,0.00,,CLR,0.00,VWS V14.01,2013-06-04 10:37:00,
2013-06-04 06:38:00,75.4,74.2,29.92,WNW,290,3.0,3.0,96,0.00,,OVC200,0.00,VWS V14.01,2013-06-04 10:38:00,
2013-06-04 06:39:00,75.4,74.2,29.92,West,279,4.0,9.0,96,0.00,,OVC200,0.00,VWS V14.01,2013-06-04 10:39:00,
2013-06-04 06:40:00,75.4,74.2,29.92,WNW,292,2.0,4.0,96,0.00,,OVC200,0.00,VWS V14.01,2013-06-04 10:40:00,
2013-06-04 06:41:00,75.4,73.9,29.92,West,269,5.0,5.0,95,0.00,,OVC200,0.00,VWS V14.01,2013-06-04 10:41:00,
2013-06-04 06:42:00,75.4,73.9,29.92,WSW,257,2.0,2.0,95,0.00,,CLR,0.00,VWS V14.01,2013-06-04 10:42:00,
2013-06-04 06:43:00,75.4,73.9,29.92,WSW,258,3.0,3.0,95,0.00,,OVC200,0.00,VWS V14.01,2013-06-04 10:43:00,
2013-06-04 06:44:00,75.4,73.9,29.92,West,274,6.0,6.0,95,0.00,,OVC200,0.00,VWS V14.01,2013-06-04 10:44:00,
2013-06-04 06:45:00,75.4,73.9,29.92,NW,319,1.0,6.0,95,0.00,,OVC200,0.00,VWS V14.01,2013-06-04 10:45:00,
2013-06-04 06:46:00,75.4,73.9,29.92,West,267,3.0,5.0,95,0.00,,OVC200,0.00,VWS V14.01,2013-06-04 10:46:00,
2013-06-04 06:47:00,75.6,74.1,29.92,WNW,296,1.0,2.0,95,0.00,,CLR,0.00,VWS V14.01,2013-06-04 10:47:00,
2013-06-04 06:48:00,75.6,74.1,29.92,SW,234,3.0,5.0,95,0.00,,OVC200,0.00,VWS V14.01,2013-06-04 10:48:00,
2013-06-04 06:49:00,75.6,74.1,29.92,West,273,3.0,4.0,95,0.00,,OVC200,0.00,VWS V14.01,2013-06-04 10:49:00,
2013-06-04 06:50:00,75.6,74.1,29.93,NNW,331,5.0,5.0,95,0.00,,OVC200,0.00,VWS V14.01,2013-06-04 10:50:00,
2013-06-04 06:51:00,75.6,74.1,29.93,NNW,331,2.0,5.0,95,0.00,,OVC200,0.00,VWS V14.01,2013-06-04 10:51:00,
2013-06-04 06:52:00,75.6,74.1,29.93,West,279,0.0,1.0,95,0.00,,CLR,0.00,VWS V14.01,2013-06-04 10:52:00,
2013-06-04 06:53:00,75.6,74.1,29.93,West,269,2.0,5.0,95,0.00,,OVC200,0.00,VWS V14.01,2013-06-04 10:53:00,
2013-06-04 06:54:00,75.6,74.1,29.93,West,269,1.0,2.0,95,0.00,,OVC200,0.00,VWS V14.01,2013-06-04 10:54:00,
2013-06-04 06:55:00,75.6,74.1,29.93,West,269,3.0,3.0,95,0.00,,OVC200,0.00,VWS V14.01,2013-06-04 10:55:00,
2013-06-04 06:56:00,75.6,74.1,29.93,West,269,1.0,3.0,95,0.00,,OVC200,0.00,VWS V14.01,2013-06-04 10:56:00,
2013-06-04 06:57:00,75.6,74.1,29.93,West,271,3.0,4.0,95,0.00,,CLR,0.00,VWS V14.01,2013-06-04 10:57:00,
2013-06-04 06:58:00,75.6,74.1,29.93,West,276,2.0,4.0,95,0.00,,OVC200,0.00,VWS V14.01,2013-06-04 10:58:00,
2013-06-04 06:59:00,75.6,74.1,29.93,West,276,3.0,3.0,95,0.00,,OVC200,0.00,VWS V14.01,2013-06-04 10:59:00,
2013-06-04 07:00:00,75.6,74.1,29.93,West,274,1.0,4.0,95,0.00,,OVC200,0.00,VWS V14.01,2013-06-04 11:00:00,
2013-06-04 07:01:00,75.8,73.9,29.93,West,273,3.0,3.0,94,0.00,,CLR,0.00,VWS V14.01,2013-06-04 11:01:00,
2013-06-04 07:02:00,75.8,73.9,29.93,West,273,2.0,3.0,94,0.00,,OVC200,0.00,VWS V14.01,2013-06-04 11:02:00,
2013-06-04 07:03:00,75.8,73.9,29.93,West,273,2.0,3.0,94,0.00,,OVC200,0.00,VWS V14.01,2013-06-04 11:03:00,
2013-06-04 07:04:00,75.8,73.9,29.93,West,268,3.0,5.0,94,0.00,,OVC200,0.00,VWS V14.01,2013-06-04 11:04:00,
2013-06-04 07:05:00,75.8,73.9,29.93,WNW,286,1.0,3.0,94,0.00,,OVC200,0.00,VWS V14.01,2013-06-04 11:05:00,
2013-06-04 07:06:00,75.8,73.9,29.93,WNW,284,0.0,3.0,94,0.00,,OVC200,0.00,VWS V14.01,2013-06-04 11:06:00,
2013-06-04 07:07:00,75.8,73.9,29.93,WSW,237,3.0,4.0,94,0.00,,CLR,0.00,VWS V14.01,2013-06-04 11:07:00,
2013-06-04 07:08:00,75.8,73.9,29.93,WSW,251,2.0,4.0,94,0.00,,OVC200,0.00,VWS V14.01,2013-06-04 11:08:00,
2013-06-04 07:09:00,76.0,74.2,29.93,WSW,252,1.0,2.0,94,0.00,,OVC200,0.00,VWS V14.01,2013-06-04 11:09:00,
2013-06-04 07:10:00,76.0,74.2,29.93,West,261,3.0,3.0,94,0.00,,OVC200,0.00,VWS V14.01,2013-06-04 11:10:00,
2013-06-04 07:11:00,76.0,74.2,29.93,West,261,1.0,4.0,94,0.00,,OVC200,0.00,VWS V14.01,2013-06-04 11:11:00,
2013-06-04 07:12:00,76.0,74.2,29.93,West,264,0.0,0.0,94,0.00,,CLR,0.00,VWS V14.01,2013-06-04 11:12:00,
2013-06-04 07:13:00,76.0,74.2,29.93,SW,232,3.0,3.0,94,0.00,,OVC200,0.00,VWS V14.01,2013-06-04 11:13:00,
2013-06-04 07:14:00,76.0,74.2,29.93,SW,229,4.0,4.0,94,0.00,,OVC200,0.00,VWS V14.01,2013-06-04 11:14:00,
2013-06-04 07:15:00,76.1,74.2,29.93,WNW,295,4.0,4.0,94,0.00,,OVC200,0.00,VWS V14.01,2013-06-04 11:15:00,
2013-06-04 07:16:00,76.1,74.2,29.93,WSW,253,0.0,4.0,94,0.00,,OVC200,0.00,VWS V14.01,2013-06-04 11:16:00,
2013-06-04 07:17:00,76.1,74.2,29.93,WNW,295,2.0,3.0,94,0.00,,CLR,0.00,VWS V14.01,2013-06-04 11:17:00,
2013-06-04 07:18:00,76.1,74.2,29.93,WNW,295,1.0,3.0,94,0.00,,OVC200,0.00,VWS V14.01,2013-06-04 11:18:00,
2013-06-04 07:19:00,76.1,74.2,29.93,WNW,295,1.0,2.0,94,0.00,,OVC200,0.00,VWS V14.01,2013-06-04 11:19:00,
2013-06-04 07:20:00,76.3,74.4,29.93,WNW,282,2.0,3.0,94,0.00,,OVC200,0.00,VWS V14.01,2013-06-04 11:20:00,
2013-06-04 07:21:00,76.3,74.4,29.93,WNW,282,1.0,2.0,94,0.00,,OVC200,0.00,VWS V14.01,2013-06-04 11:21:00,
2013-06-04 07:22:00,76.3,74.4,29.93,WNW,284,2.0,4.0,94,0.00,,CLR,0.00,VWS V14.01,2013-06-04 11:22:00,
2013-06-04 07:23:00,76.3,74.4,29.93,WNW,284,0.0,4.0,94,0.00,,OVC200,0.00,VWS V14.01,2013-06-04 11:23:00,
2013-06-04 07:24:00,76.5,74.7,29.93,WNW,284,3.0,3.0,94,0.00,,BKN028,0.00,VWS V14.01,2013-06-04 11:24:00,
2013-06-04 07:25:00,76.5,74.3,29.93,WNW,284,0.0,3.0,93,0.00,,OVC200,0.00,VWS V14.01,2013-06-04 11:25:00,
2013-06-04 07:26:00,76.5,74.3,29.93,WSW,254,2.0,3.0,93,0.00,,OVC200,0.00,VWS V14.01,2013-06-04 11:26:00,
2013-06-04 07:27:00,76.5,74.3,29.93,WSW,254,2.0,3.0,93,0.00,,CLR,0.00,VWS V14.01,2013-06-04 11:27:00,
2013-06-04 07:28:00,76.5,74.3,29.94,WSW,254,2.0,3.0,93,0.00,,OVC200,0.00,VWS V14.01,2013-06-04 11:28:00,
2013-06-04 07:29:00,76.5,74.3,29.94,WNW,284,3.0,3.0,93,0.00,,OVC200,0.00,VWS V14.01,2013-06-04 11:29:00,
2013-06-04 07:30:00,76.7,74.5,29.94,NW,304,3.0,4.0,93,0.00,,OVC200,0.00,VWS V14.01,2013-06-04 11:30:00,
2013-06-04 07:31:00,76.7,74.5,29.94,NW,321,2.0,4.0,93,0.00,,OVC200,0.00,VWS V14.01,2013-06-04 11:31:00,
2013-06-04 07:32:00,76.7,74.5,29.94,NNW,333,1.0,1.0,93,0.00,,CLR,0.00,VWS V14.01,2013-06-04 11:32:00,
2013-06-04 07:33:00,76.7,74.5,29.94,NNW,333,0.0,1.0,93,0.00,,OVC200,0.00,VWS V14.01,2013-06-04 11:33:00,
2013-06-04 07:34:00,76.8,74.6,29.94,West,272,4.0,4.0,93,0.00,,OVC200,0.00,VWS V14.01,2013-06-04 11:34:00,
2013-06-04 07:35:00,76.8,74.6,29.94,WNW,282,1.0,4.0,93,0.00,,OVC200,0.00,VWS V14.01,2013-06-04 11:35:00,
2013-06-04 07:36:00,76.8,74.6,29.94,SW,217,5.0,5.0,93,0.00,,OVC200,0.00,VWS V14.01,2013-06-04 11:36:00,
2013-06-04 07:37:00,76.8,74.3,29.94,WSW,256,1.0,4.0,92,0.00,,CLR,0.00,VWS V14.01,2013-06-04 11:37:00,
2013-06-04 07:38:00,76.8,74.3,29.94,WSW,246,3.0,5.0,92,0.00,,OVC200,0.00,VWS V14.01,2013-06-04 11:38:00,
2013-06-04 07:39:00,76.8,74.3,29.94,WSW,246,3.0,3.0,92,0.00,,OVC200,0.00,VWS V14.01,2013-06-04 11:39:00,
2013-06-04 07:40:00,76.8,74.3,29.94,NW,317,3.0,3.0,92,0.00,,OVC200,0.00,VWS V14.01,2013-06-04 11:40:00,
2013-06-04 07:41:00,76.8,74.3,29.94,NW,311,4.0,5.0,92,0.00,,OVC200,0.00,VWS V14.01,2013-06-04 11:41:00,
2013-06-04 07:42:00,77.0,74.5,29.94,NW,311,2.0,2.0,92,0.00,,SCT200,0.00,VWS V14.01,2013-06-04 11:42:00,
2013-06-04 07:43:00,77.0,74.5,29.94,NW,311,3.0,3.0,92,0.00,,OVC200,0.00,VWS V14.01,2013-06-04 11:43:00,
2013-06-04 07:44:00,77.0,74.5,29.94,NW,308,2.0,4.0,92,0.00,,OVC200,0.00,VWS V14.01,2013-06-04 11:44:00,
2013-06-04 07:45:00,77.0,74.5,29.94,NNW,342,4.0,8.0,92,0.00,,OVC200,0.00,VWS V14.01,2013-06-04 11:45:00,
2013-06-04 07:46:00,77.0,74.2,29.94,NNW,340,4.0,4.0,91,0.00,,OVC200,0.00,VWS V14.01,2013-06-04 11:46:00,
2013-06-04 07:47:00,77.2,74.4,29.94,WNW,296,1.0,1.0,91,0.00,,SCT200,0.00,VWS V14.01,2013-06-04 11:47:00,
2013-06-04 07:48:00,77.2,74.4,29.94,NW,309,1.0,2.0,91,0.00,,OVC200,0.00,VWS V14.01,2013-06-04 11:48:00,
2013-06-04 07:49:00,77.2,74.4,29.94,NW,309,2.0,3.0,91,0.00,,OVC200,0.00,VWS V14.01,2013-06-04 11:49:00,
2013-06-04 07:50:00,77.2,74.4,29.94,NW,325,2.0,5.0,91,0.00,,OVC200,0.00,VWS V14.01,2013-06-04 11:50:00,
2013-06-04 07:51:00,77.2,74.4,29.94,WNW,297,4.0,5.0,91,0.00,,OVC200,0.00,VWS V14.01,2013-06-04 11:51:00,
2013-06-04 07:52:00,77.2,74.4,29.94,WNW,302,2.0,4.0,91,0.00,,SCT200,0.00,VWS V14.01,2013-06-04 11:52:00,
2013-06-04 07:53:00,77.2,74.4,29.94,NW,305,6.0,6.0,91,0.00,,OVC200,0.00,VWS V14.01,2013-06-04 11:53:00,
2013-06-04 07:54:00,77.4,74.2,29.94,WNW,297,2.0,6.0,90,0.00,,OVC200,0.00,VWS V14.01,2013-06-04 11:54:00,
2013-06-04 07:55:00,77.4,74.2,29.94,NW,305,5.0,6.0,90,0.00,,OVC200,0.00,VWS V14.01,2013-06-04 11:55:00,
2013-06-04 07:56:00,77.4,74.2,29.94,West,278,3.0,5.0,90,0.00,,OVC200,0.00,VWS V14.01,2013-06-04 11:56:00,
2013-06-04 07:57:00,77.4,74.2,29.95,West,277,1.0,5.0,90,0.00,,SCT200,0.00,VWS V14.01,2013-06-04 11:57:00,
2013-06-04 07:58:00,77.4,74.2,29.95,WSW,248,4.0,5.0,90,0.00,,OVC200,0.00,VWS V14.01,2013-06-04 11:58:00,
2013-06-04 07:59:00,77.4,74.2,29.90,West,273,3.0,5.0,90,0.00,,OVC200,0.00,VWS V14.01,2013-06-04 11:59:00,
2013-06-04 08:00:00,77.4,74.2,29.90,WNW,291,6.0,6.0,90,0.00,,OVC200,0.00,VWS V14.01,2013-06-04 12:00:00,
2013-06-04 08:01:00,77.4,74.2,29.90,NW,321,3.0,6.0,90,0.00,,OVC200,0.00,VWS V14.01,2013-06-04 12:01:00,
2013-06-04 08:02:00,77.6,74.4,29.90,NW,306,1.0,2.0,90,0.00,,SCT200,0.00,VWS V14.01,2013-06-04 12:02:00,
2013-06-04 08:03:00,77.6,74.4,29.90,NW,306,2.0,2.0,90,0.00,,OVC200,0.00,VWS V14.01,2013-06-04 12:03:00,
2013-06-04 08:04:00,77.6,74.4,29.90,NNW,347,3.0,5.0,90,0.00,,OVC200,0.00,VWS V14.01,2013-06-04 12:04:00,
2013-06-04 08:05:00,77.6,74.4,29.77,NNW,348,3.0,4.0,90,0.00,,OVC200,0.00,VWS V14.01,2013-06-04 12:05:00,
2013-06-04 08:06:00,77.7,74.5,29.77,NW,310,4.0,4.0,90,0.00,,OVC200,0.00,VWS V14.01,2013-06-04 12:06:00,
2013-06-04 08:07:00,77.7,74.2,29.77,NW,317,4.0,4.0,89,0.00,,SCT200,0.00,VWS V14.01,2013-06-04 12:07:00,
2013-06-04 08:08:00,77.7,74.2,29.77,NNW,336,3.0,4.0,89,0.00,,OVC200,0.00,VWS V14.01,2013-06-04 12:08:00,
2013-06-04 08:09:00,77.7,74.5,29.95,NNW,336,2.0,5.0,90,0.00,,OVC200,0.00,VWS V14.01,2013-06-04 12:09:00,
2013-06-04 08:10:00,77.9,74.7,29.95,NW,305,4.0,4.0,90,0.00,,OVC200,0.00,VWS V14.01,2013-06-04 12:10:00,
2013-06-04 08:11:00,77.9,74.4,29.95,WNW,286,4.0,7.0,89,0.00,,OVC200,0.00,VWS V14.01,2013-06-04 12:11:00,
2013-06-04 08:12:00,77.9,74.4,29.95,WNW,289,0.0,1.0,89,0.00,,SCT200,0.00,VWS V14.01,2013-06-04 12:12:00,
2013-06-04 08:13:00,77.9,74.4,29.95,NW,319,4.0,4.0,89,0.00,,OVC200,0.00,VWS V14.01,2013-06-04 12:13:00,
2013-06-04 08:14:00,77.9,74.4,29.95,NW,322,3.0,5.0,89,0.00,,OVC200,0.00,VWS V14.01,2013-06-04 12:14:00,
2013-06-04 08:15:00,78.1,74.6,29.95,WNW,296,1.0,4.0,89,0.00,,OVC200,0.00,VWS V14.01,2013-06-04 12:15:00,
2013-06-04 08:16:00,78.1,74.6,29.95,NNW,334,3.0,3.0,89,0.00,,OVC200,0.00,VWS V14.01,2013-06-04 12:16:00,
2013-06-04 08:17:00,78.1,74.6,29.95,WNW,293,5.0,5.0,89,0.00,,SCT200,0.00,VWS V14.01,2013-06-04 12:17:00,
2013-06-04 08:18:00,78.1,74.6,29.95,West,269,6.0,6.0,89,0.00,,OVC200,0.00,VWS V14.01,2013-06-04 12:18:00,
2013-06-04 08:19:00,78.1,74.6,29.95,WNW,295,4.0,6.0,89,0.00,,OVC200,0.00,VWS V14.01,2013-06-04 12:19:00,
2013-06-04 08:20:00,78.1,74.3,29.95,NW,309,3.0,6.0,88,0.00,,OVC200,0.00,VWS V14.01,2013-06-04 12:20:00,
2013-06-04 08:21:00,78.3,74.5,29.95,NW,309,2.0,3.0,88,0.00,,OVC200,0.00,VWS V14.01,2013-06-04 12:21:00,
2013-06-04 08:22:00,78.3,74.5,29.95,NW,323,4.0,4.0,88,0.00,,SCT200,0.00,VWS V14.01,2013-06-04 12:22:00,
2013-06-04 08:23:00,78.3,74.5,29.95,NW,320,1.0,4.0,88,0.00,,OVC200,0.00,VWS V14.01,2013-06-04 12:23:00,
2013-06-04 08:24:00,78.5,74.7,29.95,WNW,299,3.0,5.0,88,0.00,,OVC200,0.00,VWS V14.01,2013-06-04 12:24:00,
2013-06-04 08:25:00,78.5,74.7,29.95,WSW,252,3.0,4.0,88,0.00,,OVC200,0.00,VWS V14.01,2013-06-04 12:25:00,
2013-06-04 08:26:00,78.5,74.7,29.95,WNW,294,3.0,5.0,88,0.00,,OVC200,0.00,VWS V14.01,2013-06-04 12:26:00,
2013-06-04 08:27:00,78.6,74.8,29.95,NW,314,3.0,3.0,88,0.00,,SCT200,0.00,VWS V14.01,2013-06-04 12:27:00,
2013-06-04 08:28:00,78.6,74.8,29.95,NW,314,3.0,4.0,88,0.00,,OVC200,0.00,VWS V14.01,2013-06-04 12:28:00,
2013-06-04 08:29:00,78.6,74.8,29.95,WNW,295,4.0,4.0,88,0.00,,OVC200,0.00,VWS V14.01,2013-06-04 12:29:00,
2013-06-04 08:30:00,78.8,74.6,29.95,NW,318,2.0,4.0,87,0.00,,OVC200,0.00,VWS V14.01,2013-06-04 12:30:00,
2013-06-04 08:31:00,78.8,74.6,29.95,NW,318,2.0,2.0,87,0.00,,OVC200,0.00,VWS V14.01,2013-06-04 12:31:00,
2013-06-04 08:32:00,79.0,75.2,29.95,NW,321,4.0,4.0,88,0.00,,SCT200,0.00,VWS V14.01,2013-06-04 12:32:00,
2013-06-04 08:33:00,79.0,74.8,29.95,NW,306,3.0,4.0,87,0.00,,OVC200,0.00,VWS V14.01,2013-06-04 12:33:00,
2013-06-04 08:34:00,79.0,74.8,29.95,NW,307,2.0,5.0,87,0.00,,OVC200,0.00,VWS V14.01,2013-06-04 12:34:00,
2013-06-04 08:35:00,79.0,74.8,29.95,NW,304,5.0,5.0,87,0.00,,OVC200,0.00,VWS V14.01,2013-06-04 12:35:00,
2013-06-04 08:36:00,79.2,74.7,29.95,NW,310,4.0,5.0,86,0.00,,OVC200,0.00,VWS V14.01,2013-06-04 12:36:00,
2013-06-04 08:37:00,79.2,74.7,29.95,NW,309,4.0,4.0,86,0.00,,SCT200,0.00,VWS V14.01,2013-06-04 12:37:00,
2013-06-04 08:38:00,79.2,74.7,29.95,NW,326,3.0,4.0,86,0.00,,OVC200,0.00,VWS V14.01,2013-06-04 12:38:00,
2013-06-04 08:39:00,79.2,74.3,29.95,NNW,332,3.0,4.0,85,0.00,,OVC200,0.00,VWS V14.01,2013-06-04 12:39:00,
2013-06-04 08:40:00,79.2,74.7,29.95,NNW,332,1.0,3.0,86,0.00,,OVC200,0.00,VWS V14.01,2013-06-04 12:40:00,
2013-06-04 08:41:00,79.4,74.8,29.95,NNW,332,1.0,2.0,86,0.00,,OVC200,0.00,VWS V14.01,2013-06-04 12:41:00,
2013-06-04 08:42:00,79.4,74.5,29.95,NNW,335,3.0,4.0,85,0.00,,SCT200,0.00,VWS V14.01,2013-06-04 12:42:00,
2013-06-04 08:43:00,79.4,74.5,29.95,NNW,335,3.0,4.0,85,0.00,,OVC200,0.00,VWS V14.01,2013-06-04 12:43:00,
2013-06-04 08:44:00,79.4,74.5,29.95,NW,325,5.0,5.0,85,0.00,,OVC200,0.00,VWS V14.01,2013-06-04 12:44:00,
2013-06-04 08:45:00,79.6,74.7,29.95,North,355,5.0,5.0,85,0.00,,OVC200,0.00,VWS V14.01,2013-06-04 12:45:00,
2013-06-04 08:46:00,79.6,74.7,29.95,NNW,347,1.0,5.0,85,0.00,,OVC200,0.00,VWS V14.01,2013-06-04 12:46:00,
2013-06-04 08:47:00,79.6,74.7,29.95,North,355,6.0,6.0,85,0.00,,SCT200,0.00,VWS V14.01,2013-06-04 12:47:00,
2013-06-04 08:48:00,79.6,74.3,29.95,NNW,333,6.0,6.0,84,0.00,,OVC200,0.00,VWS V14.01,2013-06-04 12:48:00,
2013-06-04 08:49:00,79.6,74.3,29.95,NNW,346,3.0,6.0,84,0.00,,OVC200,0.00,VWS V14.01,2013-06-04 12:49:00,
2013-06-04 08:50:00,79.6,74.3,29.95,WNW,291,4.0,4.0,84,0.00,,OVC200,0.00,VWS V14.01,2013-06-04 12:50:00,
2013-06-04 08:51:00,79.6,74.7,29.95,NNW,340,5.0,7.0,85,0.00,,OVC200,0.00,VWS V14.01,2013-06-04 12:51:00,
2013-06-04 08:52:00,79.6,74.7,29.95,NNW,342,5.0,5.0,85,0.00,,SCT200,0.00,VWS V14.01,2013-06-04 12:52:00,
2013-06-04 08:53:00,79.6,74.3,29.95,NW,307,6.0,7.0,84,0.00,,OVC200,0.00,VWS V14.01,2013-06-04 12:53:00,
2013-06-04 08:54:00,79.4,74.2,29.95,WNW,284,5.0,6.0,84,0.00,,,0.00,VWS V14.01,2013-06-04 12:54:00,
2013-06-04 08:55:00,79.4,74.5,29.95,NW,306,6.0,6.0,85,0.00,,,0.00,VWS V14.01,2013-06-04 12:55:00,
2013-06-04 08:56:00,79.4,74.5,29.95,NNW,345,5.0,6.0,85,0.00,,,0.00,VWS V14.01,2013-06-04 12:56:00,
2013-06-04 08:57:00,79.4,74.5,29.95,NW,321,6.0,6.0,85,0.00,,SCT200,0.00,VWS V14.01,2013-06-04 12:57:00,
2013-06-04 08:58:00,79.4,74.5,29.95,NNW,342,4.0,6.0,85,0.00,,,0.00,VWS V14.01,2013-06-04 12:58:00,
2013-06-04 08:59:00,79.4,74.5,29.95,NW,308,5.0,6.0,85,0.00,,,0.00,VWS V14.01,2013-06-04 12:59:00,
2013-06-04 09:00:00,79.4,74.5,29.95,NW,313,5.0,5.0,85,0.00,,,0.00,VWS V14.01,2013-06-04 13:00:00,
2013-06-04 09:01:00,79.4,74.5,29.95,NNW,338,4.0,5.0,85,0.00,,,0.00,VWS V14.01,2013-06-04 13:01:00,
2013-06-04 09:02:00,79.4,74.5,29.95,WNW,296,5.0,6.0,85,0.00,,SCT200,0.00,VWS V14.01,2013-06-04 13:02:00,
2013-06-04 09:03:00,79.2,74.3,29.95,NW,315,3.0,6.0,85,0.00,,,0.00,VWS V14.01,2013-06-04 13:03:00,
2013-06-04 09:04:00,79.2,74.3,29.95,NNW,336,3.0,5.0,85,0.00,,,0.00,VWS V14.01,2013-06-04 13:04:00,
2013-06-04 09:05:00,79.2,74.3,29.95,WNW,303,4.0,6.0,85,0.00,,,0.00,VWS V14.01,2013-06-04 13:05:00,
2013-06-04 09:06:00,79.4,74.5,29.95,NNW,328,0.0,4.0,85,0.00,,,0.00,VWS V14.01,2013-06-04 13:06:00,
2013-06-04 09:07:00,79.4,74.8,29.87,NNW,348,4.0,4.0,86,0.00,,SCT200,0.00,VWS V14.01,2013-06-04 13:07:00,
2013-06-04 09:08:00,79.4,74.8,29.87,NW,322,3.0,4.0,86,0.00,,,0.00,VWS V14.01,2013-06-04 13:08:00,
2013-06-04 09:09:00,79.4,74.8,29.87,NW,316,4.0,7.0,86,0.00,,,0.00,VWS V14.01,2013-06-04 13:09:00,
2013-06-04 09:10:00,79.6,74.7,29.87,NNW,336,2.0,4.0,85,0.00,,,0.00,VWS V14.01,2013-06-04 13:10:00,
2013-06-04 09:11:00,79.6,74.7,29.87,NW,314,6.0,6.0,85,0.00,,,0.00,VWS V14.01,2013-06-04 13:11:00,
2013-06-04 09:12:00,79.4,74.5,29.96,WNW,290,5.0,5.0,85,0.00,,SCT200,0.00,VWS V14.01,2013-06-04 13:12:00,
2013-06-04 09:13:00,79.4,74.5,29.96,NNW,328,7.0,7.0,85,0.00,,,0.00,VWS V14.01,2013-06-04 13:13:00,
2013-06-04 09:14:00,79.4,74.5,29.96,NNW,340,6.0,7.0,85,0.00,,,0.00,VWS V14.01,2013-06-04 13:14:00,
2013-06-04 09:15:00,79.4,74.5,29.96,North,355,4.0,6.0,85,0.00,,,0.00,VWS V14.01,2013-06-04 13:15:00,
2013-06-04 09:16:00,79.4,74.5,29.96,NNW,348,4.0,4.0,85,0.00,,,0.00,VWS V14.01,2013-06-04 13:16:00,
2013-06-04 09:17:00,79.4,74.5,29.96,NW,305,4.0,5.0,85,0.00,,SCT200,0.00,VWS V14.01,2013-06-04 13:17:00,
2013-06-04 09:18:00,79.4,74.5,29.96,NNE,15,3.0,5.0,85,0.00,,,0.00,VWS V14.01,2013-06-04 13:18:00,
2013-06-04 09:19:00,79.4,74.5,29.96,NW,315,5.0,6.0,85,0.00,,,0.00,VWS V14.01,2013-06-04 13:19:00,
2013-06-04 09:20:00,79.6,74.7,29.96,North,5,5.0,7.0,85,0.00,,,0.00,VWS V14.01,2013-06-04 13:20:00,
2013-06-04 09:21:00,79.6,74.7,29.96,NW,307,3.0,6.0,85,0.00,,,0.00,VWS V14.01,2013-06-04 13:21:00,
2013-06-04 09:22:00,79.6,74.7,29.96,NW,304,8.0,8.0,85,0.00,,SCT200,0.00,VWS V14.01,2013-06-04 13:22:00,
2013-06-04 09:23:00,79.6,74.7,29.96,NW,325,3.0,8.0,85,0.00,,,0.00,VWS V14.01,2013-06-04 13:23:00,
2013-06-04 09:24:00,79.8,74.9,29.96,WNW,303,4.0,5.0,85,0.00,,,0.00,VWS V14.01,2013-06-04 13:24:00,
2013-06-04 09:25:00,79.8,74.9,29.96,NW,321,5.0,7.0,85,0.00,,,0.00,VWS V14.01,2013-06-04 13:25:00,
2013-06-04 09:26:00,79.8,74.9,29.96,NNE,18,4.0,5.0,85,0.00,,,0.00,VWS V14.01,2013-06-04 13:26:00,
2013-06-04 09:27:00,79.9,75.0,29.96,NNE,20,3.0,3.0,85,0.00,,SCT200,0.00,VWS V14.01,2013-06-04 13:27:00,
2013-06-04 09:28:00,79.9,75.0,29.96,NNE,20,3.0,3.0,85,0.00,,,0.00,VWS V14.01,2013-06-04 13:28:00,
2013-06-04 09:29:00,79.9,74.6,29.96,NNW,333,8.0,8.0,84,0.00,,,0.00,VWS V14.01,2013-06-04 13:29:00,
2013-06-04 09:30:00,79.9,74.6,29.96,NW,307,5.0,8.0,84,0.00,,,0.00,VWS V14.01,2013-06-04 13:30:00,
2013-06-04 09:31:00,79.9,74.6,29.96,NW,317,3.0,5.0,84,0.00,,,0.00,VWS V14.01,2013-06-04 13:31:00,
2013-06-04 09:32:00,80.1,74.8,29.96,North,351,4.0,4.0,84,0.00,,SCT200,0.00,VWS V14.01,2013-06-04 13:32:00,
2013-06-04 09:33:00,80.1,74.8,29.96,North,350,1.0,4.0,84,0.00,,,0.00,VWS V14.01,2013-06-04 13:33:00,
2013-06-04 09:34:00,80.3,75.4,29.96,NNE,22,1.0,3.0,85,0.00,,,0.00,VWS V14.01,2013-06-04 13:34:00,
2013-06-04 09:35:00,80.3,75.0,29.96,NE,50,3.0,5.0,84,0.00,,,0.00,VWS V14.01,2013-06-04 13:35:00,
2013-06-04 09:36:00,80.7,75.4,29.96,NE,50,0.0,3.0,84,0.00,,,0.00,VWS V14.01,2013-06-04 13:36:00,
2013-06-04 09:37:00,80.9,75.6,29.96,NE,50,0.0,2.0,84,0.00,,SCT200,0.00,VWS V14.01,2013-06-04 13:37:00,
2013-06-04 09:38:00,81.1,75.8,29.96,NE,50,1.0,2.0,84,0.00,,,0.00,VWS V14.01,2013-06-04 13:38:00,
2013-06-04 09:39:00,81.2,75.9,29.96,NE,50,1.0,2.0,84,0.00,,,0.00,VWS V14.01,2013-06-04 13:39:00,
2013-06-04 09:40:00,81.2,75.9,29.96,NE,40,2.0,5.0,84,0.00,,,0.00,VWS V14.01,2013-06-04 13:40:00,
2013-06-04 09:41:00,81.4,75.4,29.96,NNE,22,2.0,5.0,82,0.00,,,0.00,VWS V14.01,2013-06-04 13:41:00,
2013-06-04 09:42:00,81.4,75.4,29.96,NW,309,5.0,5.0,82,0.00,,SCT100,0.00,VWS V14.01,2013-06-04 13:42:00,
2013-06-04 09:43:00,81.4,75.0,29.96,NW,315,1.0,5.0,81,0.00,,,0.00,VWS V14.01,2013-06-04 13:43:00,
2013-06-04 09:44:00,81.4,75.0,29.96,NNW,344,3.0,7.0,81,0.00,,,0.00,VWS V14.01,2013-06-04 13:44:00,
2013-06-04 09:45:00,81.4,75.0,29.96,NNW,348,2.0,3.0,81,0.00,,,0.00,VWS V14.01,2013-06-04 13:45:00,
2013-06-04 09:46:00,81.6,75.6,29.96,NNW,327,4.0,6.0,82,0.00,,,0.00,VWS V14.01,2013-06-04 13:46:00,
2013-06-04 09:47:00,81.6,75.2,29.96,NW,321,3.0,4.0,81,0.00,,SCT100,0.00,VWS V14.01,2013-06-04 13:47:00,
2013-06-04 09:48:00,81.6,74.8,29.96,NW,321,2.0,4.0,80,0.00,,,0.00,VWS V14.01,2013-06-04 13:48:00,
2013-06-04 09:49:00,81.6,75.2,29.96,NW,321,1.0,3.0,81,0.00,,,0.00,VWS V14.01,2013-06-04 13:49:00,
2013-06-04 09:50:00,81.6,75.2,29.96,NE,34,3.0,4.0,81,0.00,,,0.00,VWS V14.01,2013-06-04 13:50:00,
2013-06-04 09:51:00,81.8,75.4,29.96,NE,46,2.0,4.0,81,0.00,,,0.00,VWS V14.01,2013-06-04 13:51:00,
2013-06-04 09:52:00,82.0,75.2,29.96,NNE,30,2.0,3.0,80,0.00,,SCT100,0.00,VWS V14.01,2013-06-04 13:52:00,
2013-06-04 09:53:00,82.0,75.6,29.96,NNE,30,1.0,3.0,81,0.00,,,0.00,VWS V14.01,2013-06-04 13:53:00,
2013-06-04 09:54:00,82.2,75.8,29.96,NW,323,2.0,5.0,81,0.00,,,0.00,VWS V14.01,2013-06-04 13:54:00,
2013-06-04 09:55:00,82.2,75.4,29.96,NE,49,1.0,5.0,80,0.00,,,0.00,VWS V14.01,2013-06-04 13:55:00,
2013-06-04 09:56:00,82.2,75.4,29.96,NE,48,2.0,2.0,80,0.00,,,0.00,VWS V14.01,2013-06-04 13:56:00,
2013-06-04 09:57:00,82.6,75.8,29.88,NE,49,3.0,3.0,80,0.00,,SCT100,0.00,VWS V14.01,2013-06-04 13:57:00,
2013-06-04 09:58:00,82.6,75.8,29.88,NE,49,3.0,3.0,80,0.00,,,0.00,VWS V14.01,2013-06-04 13:58:00,
2013-06-04 09:59:00,82.6,75.1,29.88,NE,49,2.0,3.0,78,0.00,,,0.00,VWS V14.01,2013-06-04 13:59:00,
2013-06-04 10:00:00,82.8,75.2,29.75,NE,49,1.0,2.0,78,0.00,,,0.00,VWS V14.01,2013-06-04 14:00:00,
2013-06-04 10:01:00,83.0,75.4,29.75,NE,49,1.0,1.0,78,0.00,,,0.00,VWS V14.01,2013-06-04 14:01:00,
2013-06-04 10:02:00,83.2,74.8,29.75,NE,52,6.0,6.0,76,0.00,,SCT100,0.00,VWS V14.01,2013-06-04 14:02:00,
2013-06-04 10:03:00,83.2,74.8,29.75,ENE,63,4.0,6.0,76,0.00,,,0.00,VWS V14.01,2013-06-04 14:03:00,
2013-06-04 10:04:00,83.2,74.8,29.75,ENE,57,4.0,5.0,76,0.00,,,0.00,VWS V14.01,2013-06-04 14:04:00,
2013-06-04 10:05:00,83.2,74.8,29.96,ENE,57,2.0,4.0,76,0.00,,,0.00,VWS V14.01,2013-06-04 14:05:00,
2013-06-04 10:06:00,83.2,75.2,29.96,NW,315,3.0,5.0,77,0.00,,,0.00,VWS V14.01,2013-06-04 14:06:00,
2013-06-04 10:07:00,83.2,74.8,29.96,NNW,332,2.0,3.0,76,0.00,,SCT100,0.00,VWS V14.01,2013-06-04 14:07:00,
2013-06-04 10:08:00,83.2,74.8,29.96,NNW,332,3.0,3.0,76,0.00,,,0.00,VWS V14.01,2013-06-04 14:08:00,
2013-06-04 10:09:00,83.2,74.8,29.96,NNW,327,3.0,4.0,76,0.00,,,0.00,VWS V14.01,2013-06-04 14:09:00,
2013-06-04 10:10:00,83.4,75.0,29.96,NW,325,0.0,3.0,76,0.00,,,0.00,VWS V14.01,2013-06-04 14:10:00,
2013-06-04 10:11:00,83.4,75.0,29.96,North,11,2.0,4.0,76,0.00,,,0.00,VWS V14.01,2013-06-04 14:11:00,
2013-06-04 10:12:00,83.6,75.2,29.96,NE,51,1.0,2.0,76,0.00,,SCT100,0.00,VWS V14.01,2013-06-04 14:12:00,
2013-06-04 10:13:00,83.6,75.2,29.96,NE,51,2.0,4.0,76,0.00,,,0.00,VWS V14.01,2013-06-04 14:13:00,
2013-06-04 10:14:00,83.6,75.2,29.96,WNW,296,3.0,5.0,76,0.00,,,0.00,VWS V14.01,2013-06-04 14:14:00,
2013-06-04 10:15:00,83.6,75.2,29.97,North,355,4.0,5.0,76,0.00,,,0.00,VWS V14.01,2013-06-04 14:15:00,
2013-06-04 10:16:00,83.6,75.2,29.97,North,355,3.0,4.0,76,0.00,,,0.00,VWS V14.01,2013-06-04 14:16:00,
2013-06-04 10:17:00,83.8,75.4,29.92,North,5,1.0,2.0,76,0.00,,SCT100,0.00,VWS V14.01,2013-06-04 14:17:00,
2013-06-04 10:18:00,83.8,75.4,29.92,NNE,26,3.0,3.0,76,0.00,,,0.00,VWS V14.01,2013-06-04 14:18:00,
2013-06-04 10:19:00,83.8,75.0,29.75,NNE,27,2.0,3.0,75,0.00,,,0.00,VWS V14.01,2013-06-04 14:19:00,
2013-06-04 10:20:00,84.0,75.2,29.75,NNE,32,3.0,3.0,75,0.00,,,0.00,VWS V14.01,2013-06-04 14:20:00,
2013-06-04 10:21:00,84.0,75.2,29.75,ENE,63,7.0,7.0,75,0.00,,,0.00,VWS V14.01,2013-06-04 14:21:00,
2013-06-04 10:22:00,84.3,75.5,29.70,East,88,2.0,2.0,75,0.00,,SCT100,0.00,VWS V14.01,2013-06-04 14:22:00,
2013-06-04 10:23:00,84.5,76.1,29.70,East,89,2.0,2.0,76,0.00,,,0.00,VWS V14.01,2013-06-04 14:23:00,
2013-06-04 10:24:00,84.5,76.1,29.70,East,100,5.0,5.0,76,0.00,,,0.00,VWS V14.01,2013-06-04 14:24:00,
2013-06-04 10:25:00,84.5,76.1,29.70,ESE,103,4.0,5.0,76,0.00,,,0.00,VWS V14.01,2013-06-04 14:25:00,
2013-06-04 10:26:00,84.5,76.1,29.70,ESE,103,4.0,4.0,76,0.00,,,0.00,VWS V14.01,2013-06-04 14:26:00,
2013-06-04 10:27:00,84.5,76.5,29.97,East,90,3.0,3.0,77,0.00,,SCT100,0.00,VWS V14.01,2013-06-04 14:27:00,
2013-06-04 10:28:00,84.5,76.9,29.97,East,101,4.0,4.0,78,0.00,,,0.00,VWS V14.01,2013-06-04 14:28:00,
2013-06-04 10:29:00,84.5,76.5,29.97,East,96,4.0,6.0,77,0.00,,,0.00,VWS V14.01,2013-06-04 14:29:00,
2013-06-04 10:30:00,84.3,76.7,29.97,East,99,3.0,4.0,78,0.00,,,0.00,VWS V14.01,2013-06-04 14:30:00,
2013-06-04 10:31:00,84.3,76.3,29.97,ESE,103,5.0,5.0,77,0.00,,,0.00,VWS V14.01,2013-06-04 14:31:00,
2013-06-04 10:32:00,84.1,76.1,29.97,ESE,105,4.0,6.0,77,0.00,,SCT100,0.00,VWS V14.01,2013-06-04 14:32:00,
2013-06-04 10:33:00,84.1,76.1,29.97,East,101,5.0,6.0,77,0.00,,,0.00,VWS V14.01,2013-06-04 14:33:00,
2013-06-04 10:34:00,84.0,76.4,29.97,East,98,4.0,6.0,78,0.00,,,0.00,VWS V14.01,2013-06-04 14:34:00,
2013-06-04 10:35:00,83.8,76.6,29.97,ESE,102,4.0,5.0,79,0.00,,,0.00,VWS V14.01,2013-06-04 14:35:00,
2013-06-04 10:36:00,83.8,76.6,29.97,ESE,111,4.0,4.0,79,0.00,,,0.00,VWS V14.01,2013-06-04 14:36:00,
2013-06-04 10:37:00,83.6,76.4,29.97,ESE,103,6.0,6.0,79,0.00,,SCT100,0.00,VWS V14.01,2013-06-04 14:37:00,
2013-06-04 10:38:00,83.4,76.2,29.97,ESE,108,5.0,6.0,79,0.00,,,0.00,VWS V14.01,2013-06-04 14:38:00,
2013-06-04 10:39:00,83.4,77.0,29.97,ESE,103,6.0,6.0,81,0.00,,,0.00,VWS V14.01,2013-06-04 14:39:00,
2013-06-04 10:40:00,83.4,76.6,29.97,ESE,105,7.0,7.0,80,0.00,,,0.00,VWS V14.01,2013-06-04 14:40:00,
2013-06-04 10:41:00,83.2,76.8,29.97,ESE,102,7.0,9.0,81,0.00,,,0.00,VWS V14.01,2013-06-04 14:41:00,
2013-06-04 10:42:00,83.0,76.9,29.97,ESE,109,5.0,8.0,82,0.00,,SCT100,0.00,VWS V14.01,2013-06-04 14:42:00,
2013-06-04 10:43:00,83.0,76.9,29.97,ESE,105,6.0,8.0,82,0.00,,,0.00,VWS V14.01,2013-06-04 14:43:00,
2013-06-04 10:44:00,82.8,76.4,29.97,ESE,105,9.0,9.0,81,0.00,,,0.00,VWS V14.01,2013-06-04 14:44:00,
2013-06-04 10:45:00,82.8,76.4,29.88,ESE,104,5.0,9.0,81,0.00,,,0.00,VWS V14.01,2013-06-04 14:45:00,
2013-06-04 10:46:00,82.6,76.6,29.88,ESE,107,6.0,8.0,82,0.00,,,0.00,VWS V14.01,2013-06-04 14:46:00,
2013-06-04 10:47:00,82.6,76.9,29.93,ESE,103,7.0,7.0,83,0.00,,SCT100,0.00,VWS V14.01,2013-06-04 14:47:00,
2013-06-04 10:48:00,82.6,76.9,29.93,ESE,116,7.0,7.0,83,0.00,,,0.00,VWS V14.01,2013-06-04 14:48:00,
2013-06-04 10:49:00,82.6,76.6,29.93,ESE,112,6.0,7.0,82,0.00,,,0.00,VWS V14.01,2013-06-04 14:49:00,
2013-06-04 10:50:00,82.4,76.7,29.93,ESE,117,8.0,8.0,83,0.00,,,0.00,VWS V14.01,2013-06-04 14:50:00,
2013-06-04 10:51:00,82.2,76.2,29.93,ESE,106,6.0,8.0,82,0.00,,,0.00,VWS V14.01,2013-06-04 14:51:00,
2013-06-04 10:52:00,82.2,76.5,29.93,East,101,6.0,6.0,83,0.00,,SCT100,0.00,VWS V14.01,2013-06-04 14:52:00,
2013-06-04 10:53:00,82.2,76.5,29.93,East,98,5.0,6.0,83,0.00,,,0.00,VWS V14.01,2013-06-04 14:53:00,
2013-06-04 10:54:00,82.2,76.5,29.93,ESE,105,6.0,6.0,83,0.00,,,0.00,VWS V14.01,2013-06-04 14:54:00,
2013-06-04 10:55:00,82.0,76.0,29.93,ESE,109,6.0,7.0,82,0.00,,,0.00,VWS V14.01,2013-06-04 14:55:00,
2013-06-04 10:56:00,82.0,76.3,29.97,ESE,107,5.0,6.0,83,0.00,,,0.00,VWS V14.01,2013-06-04 14:56:00,
2013-06-04 10:57:00,82.0,76.3,29.97,ESE,102,4.0,6.0,83,0.00,,SCT100,0.00,VWS V14.01,2013-06-04 14:57:00,
2013-06-04 10:58:00,82.0,76.3,29.97,East,101,4.0,6.0,83,0.00,,,0.00,VWS V14.01,2013-06-04 14:58:00,
2013-06-04 10:59:00,82.0,76.7,29.97,ESE,103,5.0,5.0,84,0.00,,,0.00,VWS V14.01,2013-06-04 14:59:00,
2013-06-04 11:00:00,82.0,76.7,29.97,ESE,105,5.0,6.0,84,0.00,,,0.00,VWS V14.01,2013-06-04 15:00:00,
2013-06-04 11:01:00,82.0,76.7,29.97,ESE,103,5.0,5.0,84,0.00,,,0.00,VWS V14.01,2013-06-04 15:01:00,
2013-06-04 11:02:00,82.2,76.9,29.67,ESE,105,4.0,5.0,84,0.00,,SCT100,0.00,VWS V14.01,2013-06-04 15:02:00,
2013-06-04 11:03:00,82.2,76.9,29.67,ESE,105,6.0,6.0,84,0.00,,,0.00,VWS V14.01,2013-06-04 15:03:00,
2013-06-04 11:04:00,82.4,77.1,29.67,East,101,6.0,6.0,84,0.00,,,0.00,VWS V14.01,2013-06-04 15:04:00,
2013-06-04 11:05:00,82.2,76.5,29.67,ESE,105,5.0,6.0,83,0.00,,,0.00,VWS V14.01,2013-06-04 15:05:00,
2013-06-04 11:06:00,82.2,76.5,29.80,ESE,111,6.0,7.0,83,0.00,,,0.00,VWS V14.01,2013-06-04 15:06:00,
2013-06-04 11:07:00,82.2,76.5,29.80,ESE,103,7.0,7.0,83,0.00,,SCT100,0.00,VWS V14.01,2013-06-04 15:07:00,
2013-06-04 11:08:00,82.2,76.9,29.80,ESE,103,6.0,7.0,84,0.00,,,0.00,VWS V14.01,2013-06-04 15:08:00,
2013-06-04 11:09:00,82.2,76.9,29.80,ESE,104,6.0,9.0,84,0.00,,,0.00,VWS V14.01,2013-06-04 15:09:00,
2013-06-04 11:10:00,82.2,76.9,29.80,East,98,6.0,7.0,84,0.00,,,0.00,VWS V14.01,2013-06-04 15:10:00,
2013-06-04 11:11:00,82.0,76.7,29.80,ESE,108,7.0,9.0,84,0.00,,,0.00,VWS V14.01,2013-06-04 15:11:00,
2013-06-04 11:12:00,82.0,76.7,29.93,ESE,102,7.0,7.0,84,0.00,,SCT100,0.00,VWS V14.01,2013-06-04 15:12:00,
2013-06-04 11:13:00,82.0,76.7,29.93,ESE,102,4.0,7.0,84,0.00,,,0.00,VWS V14.01,2013-06-04 15:13:00,
2013-06-04 11:14:00,82.0,76.7,29.93,East,99,7.0,7.0,84,0.00,,,0.00,VWS V14.01,2013-06-04 15:14:00,
2013-06-04 11:15:00,81.8,76.1,29.93,ESE,104,5.0,7.0,83,0.00,,,0.00,VWS V14.01,2013-06-04 15:15:00,
2013-06-04 11:16:00,81.8,76.5,29.93,ESE,103,6.0,6.0,84,0.00,,,0.00,VWS V14.01,2013-06-04 15:16:00,
2013-06-04 11:17:00,82.0,76.7,29.93,ESE,104,5.0,5.0,84,0.00,,SCT100,0.00,VWS V14.01,2013-06-04 15:17:00,
2013-06-04 11:18:00,82.0,76.7,29.93,ESE,105,7.0,7.0,84,0.00,,,0.00,VWS V14.01,2013-06-04 15:18:00,
2013-06-04 11:19:00,82.0,76.7,29.93,ESE,107,6.0,7.0,84,0.00,,,0.00,VWS V14.01,2013-06-04 15:19:00,
2013-06-04 11:20:00,82.0,76.7,29.93,ESE,109,5.0,7.0,84,0.00,,,0.00,VWS V14.01,2013-06-04 15:20:00,
2013-06-04 11:21:00,82.0,76.7,29.93,ESE,105,4.0,7.0,84,0.00,,,0.00,VWS V14.01,2013-06-04 15:21:00,
2013-06-04 11:22:00,82.0,76.7,29.93,East,99,6.0,7.0,84,0.00,,SCT100,0.00,VWS V14.01,2013-06-04 15:22:00,
2013-06-04 11:23:00,82.0,76.7,29.93,ESE,103,7.0,8.0,84,0.00,,,0.00,VWS V14.01,2013-06-04 15:23:00,
2013-06-04 11:24:00,82.0,76.7,29.93,ESE,110,6.0,7.0,84,0.00,,,0.00,VWS V14.01,2013-06-04 15:24:00,
2013-06-04 11:25:00,82.0,76.7,29.93,ESE,118,9.0,10.0,84,0.00,,,0.00,VWS V14.01,2013-06-04 15:25:00,
2013-06-04 11:26:00,81.8,76.1,29.97,ESE,117,7.0,10.0,83,0.00,,,0.00,VWS V14.01,2013-06-04 15:26:00,
2013-06-04 11:27:00,81.6,76.7,29.97,ESE,117,6.0,9.0,85,0.00,,SCT100,0.00,VWS V14.01,2013-06-04 15:27:00,
2013-06-04 11:28:00,81.6,76.7,29.97,ESE,117,10.0,10.0,85,0.00,,,0.00,VWS V14.01,2013-06-04 15:28:00,
2013-06-04 11:29:00,81.6,76.7,29.97,ESE,116,10.0,10.0,85,0.00,,,0.00,VWS V14.01,2013-06-04 15:29:00,
2013-06-04 11:30:00,81.6,76.3,29.89,ESE,123,10.0,11.0,84,0.00,,,0.00,VWS V14.01,2013-06-04 15:30:00,
2013-06-04 11:31:00,81.4,76.1,29.89,SE,130,10.0,11.0,84,0.00,,,0.00,VWS V14.01,2013-06-04 15:31:00,
2013-06-04 11:32:00,81.2,76.3,29.89,ESE,119,11.0,11.0,85,0.00,,SCT100,0.00,VWS V14.01,2013-06-04 15:32:00,
2013-06-04 11:33:00,81.2,76.3,29.89,ESE,119,10.0,11.0,85,0.00,,,0.00,VWS V14.01,2013-06-04 15:33:00,
2013-06-04 11:34:00,81.1,75.8,29.89,ESE,117,9.0,10.0,84,0.00,,,0.00,VWS V14.01,2013-06-04 15:34:00,
2013-06-04 11:35:00,81.2,76.3,29.89,ESE,123,9.0,10.0,85,0.00,,,0.00,VWS V14.01,2013-06-04 15:35:00,
2013-06-04 11:36:00,81.1,76.2,29.89,ESE,123,9.0,10.0,85,0.00,,,0.00,VWS V14.01,2013-06-04 15:36:00,
2013-06-04 11:37:00,81.1,76.5,29.89,ESE,120,7.0,9.0,86,0.00,,SCT100,0.00,VWS V14.01,2013-06-04 15:37:00,
2013-06-04 11:38:00,81.2,76.6,29.89,ESE,107,7.0,9.0,86,0.00,,,0.00,VWS V14.01,2013-06-04 15:38:00,
2013-06-04 11:39:00,81.2,77.0,29.89,ESE,120,9.0,9.0,87,0.00,,,0.00,VWS V14.01,2013-06-04 15:39:00,
2013-06-04 11:40:00,81.2,75.9,29.89,ESE,106,6.0,9.0,84,0.00,,,0.00,VWS V14.01,2013-06-04 15:40:00,
2013-06-04 11:41:00,81.1,76.2,29.97,ESE,118,6.0,7.0,85,0.00,,,0.00,VWS V14.01,2013-06-04 15:41:00,
2013-06-04 11:42:00,81.2,76.3,29.97,ESE,112,7.0,8.0,85,0.00,,SCT200,0.00,VWS V14.01,2013-06-04 15:42:00,
2013-06-04 11:43:00,81.2,76.3,29.97,ESE,113,8.0,10.0,85,0.00,,,0.00,VWS V14.01,2013-06-04 15:43:00,
2013-06-04 11:44:00,81.2,76.3,29.98,East,101,10.0,10.0,85,0.00,,,0.00,VWS V14.01,2013-06-04 15:44:00,
2013-06-04 11:45:00,81.4,76.5,29.97,ESE,108,5.0,10.0,85,0.00,,,0.00,VWS V14.01,2013-06-04 15:45:00,
2013-06-04 11:46:00,81.4,76.5,29.97,ESE,119,8.0,9.0,85,0.00,,,0.00,VWS V14.01,2013-06-04 15:46:00,
2013-06-04 11:47:00,81.6,76.7,29.97,ESE,111,11.0,11.0,85,0.00,,SCT200,0.00,VWS V14.01,2013-06-04 15:47:00,
2013-06-04 11:48:00,81.4,76.5,29.97,ESE,117,9.0,11.0,85,0.00,,,0.00,VWS V14.01,2013-06-04 15:48:00,
2013-06-04 11:49:00,81.4,76.5,29.97,ESE,114,10.0,11.0,85,0.00,,,0.00,VWS V14.01,2013-06-04 15:49:00,
2013-06-04 11:50:00,81.4,76.5,29.97,ESE,119,10.0,10.0,85,0.00,,,0.00,VWS V14.01,2013-06-04 15:50:00,
2013-06-04 11:51:00,81.4,76.5,29.97,ESE,115,11.0,11.0,85,0.00,,,0.00,VWS V14.01,2013-06-04 15:51:00,
2013-06-04 11:52:00,81.2,76.3,29.97,ESE,117,10.0,11.0,85,0.00,,SCT200,0.00,VWS V14.01,2013-06-04 15:52:00,
2013-06-04 11:53:00,81.2,76.3,29.97,ESE,117,11.0,11.0,85,0.00,,,0.00,VWS V14.01,2013-06-04 15:53:00,
2013-06-04 11:54:00,81.2,76.3,29.97,ESE,119,10.0,11.0,85,0.00,,,0.00,VWS V14.01,2013-06-04 15:54:00,
2013-06-04 11:55:00,81.2,76.3,29.97,ESE,112,11.0,11.0,85,0.00,,,0.00,VWS V14.01,2013-06-04 15:55:00,
2013-06-04 11:56:00,81.2,76.6,29.97,ESE,121,9.0,11.0,86,0.00,,,0.00,VWS V14.01,2013-06-04 15:56:00,
2013-06-04 11:57:00,81.4,76.5,29.97,ESE,111,9.0,9.0,85,0.00,,SCT200,0.00,VWS V14.01,2013-06-04 15:57:00,
2013-06-04 11:58:00,81.4,76.8,29.97,ESE,117,9.0,10.0,86,0.00,,,0.00,VWS V14.01,2013-06-04 15:58:00,
2013-06-04 11:59:00,81.6,77.0,29.97,ESE,122,9.0,10.0,86,0.00,,,0.00,VWS V14.01,2013-06-04 15:59:00,
2013-06-04 12:00:00,81.6,76.7,29.97,ESE,115,11.0,11.0,85,0.00,,,0.00,VWS V14.01,2013-06-04 16:00:00,
2013-06-04 12:01:00,81.6,76.7,29.97,ESE,103,10.0,11.0,85,0.00,,,0.00,VWS V14.01,2013-06-04 16:01:00,
2013-06-04 12:02:00,81.6,76.3,29.97,ESE,109,10.0,11.0,84,0.00,,SCT200,0.00,VWS V14.01,2013-06-04 16:02:00,
2013-06-04 12:03:00,81.6,76.3,29.97,ESE,111,9.0,11.0,84,0.00,,,0.00,VWS V14.01,2013-06-04 16:03:00,
2013-06-04 12:04:00,81.6,76.7,29.97,ESE,115,10.0,10.0,85,0.00,,,0.00,VWS V14.01,2013-06-04 16:04:00,
2013-06-04 12:05:00,81.6,77.0,29.97,ESE,121,11.0,11.0,86,0.00,,,0.00,VWS V14.01,2013-06-04 16:05:00,
2013-06-04 12:06:00,81.6,76.7,29.97,ESE,119,11.0,11.0,85,0.00,,,0.00,VWS V14.01,2013-06-04 16:06:00,
2013-06-04 12:07:00,81.4,76.8,29.97,ESE,117,9.0,10.0,86,0.00,,SCT200,0.00,VWS V14.01,2013-06-04 16:07:00,
2013-06-04 12:08:00,81.4,76.8,29.97,ESE,117,11.0,11.0,86,0.00,,,0.00,VWS V14.01,2013-06-04 16:08:00,
2013-06-04 12:09:00,81.4,76.8,29.97,ESE,117,11.0,11.0,86,0.00,,,0.00,VWS V14.01,2013-06-04 16:09:00,
2013-06-04 12:10:00,81.6,77.0,29.97,ESE,117,11.0,11.0,86,0.00,,,0.00,VWS V14.01,2013-06-04 16:10:00,
2013-06-04 12:11:00,81.4,76.8,29.97,ESE,116,12.0,12.0,86,0.00,,,0.00,VWS V14.01,2013-06-04 16:11:00,
2013-06-04 12:12:00,81.2,76.3,29.97,ESE,117,10.0,11.0,85,0.00,,SCT200,0.00,VWS V14.01,2013-06-04 16:12:00,
2013-06-04 12:13:00,81.2,76.3,29.97,ESE,123,12.0,13.0,85,0.00,,,0.00,VWS V14.01,2013-06-04 16:13:00,
2013-06-04 12:14:00,81.2,76.3,29.98,ESE,115,11.0,12.0,85,0.00,,,0.00,VWS V14.01,2013-06-04 16:14:00,
2013-06-04 12:15:00,81.1,76.5,29.98,ESE,116,10.0,11.0,86,0.00,,,0.00,VWS V14.01,2013-06-04 16:15:00,
2013-06-04 12:16:00,81.1,76.2,29.98,ESE,114,9.0,10.0,85,0.00,,,0.00,VWS V14.01,2013-06-04 16:16:00,
2013-06-04 12:17:00,81.1,76.5,29.98,SE,127,9.0,9.0,86,0.00,,SCT200,0.00,VWS V14.01,2013-06-04 16:17:00,
2013-06-04 12:18:00,81.1,76.5,29.98,ESE,118,9.0,9.0,86,0.00,,,0.00,VWS V14.01,2013-06-04 16:18:00,
2013-06-04 12:19:00,81.1,76.9,29.98,ESE,112,7.0,9.0,87,0.00,,,0.00,VWS V14.01,2013-06-04 16:19:00,
2013-06-04 12:20:00,81.1,76.5,29.98,ESE,116,7.0,8.0,86,0.00,,,0.00,VWS V14.01,2013-06-04 16:20:00,
2013-06-04 12:21:00,81.1,76.9,29.98,SE,124,7.0,7.0,87,0.00,,,0.00,VWS V14.01,2013-06-04 16:21:00,
2013-06-04 12:22:00,80.9,76.3,29.98,ESE,115,6.0,8.0,86,0.00,,SCT200,0.00,VWS V14.01,2013-06-04 16:22:00,
2013-06-04 12:23:00,80.9,76.3,29.98,ESE,122,10.0,10.0,86,0.00,,,0.00,VWS V14.01,2013-06-04 16:23:00,
2013-06-04 12:24:00,80.7,76.5,29.94,ESE,123,6.0,10.0,87,0.00,,,0.00,VWS V14.01,2013-06-04 16:24:00,
2013-06-04 12:25:00,80.7,76.5,29.94,ESE,105,7.0,9.0,87,0.00,,,0.00,VWS V14.01,2013-06-04 16:25:00,
2013-06-04 12:26:00,80.7,76.5,29.98,ESE,118,9.0,9.0,87,0.00,,,0.00,VWS V14.01,2013-06-04 16:26:00,
2013-06-04 12:27:00,80.7,76.8,29.98,SE,127,11.0,11.0,88,0.00,,SCT200,0.00,VWS V14.01,2013-06-04 16:27:00,
2013-06-04 12:28:00,80.5,76.6,29.98,SE,128,11.0,11.0,88,0.00,,,0.00,VWS V14.01,2013-06-04 16:28:00,
2013-06-04 12:29:00,80.3,76.1,29.98,ESE,120,7.0,11.0,87,0.00,,,0.00,VWS V14.01,2013-06-04 16:29:00,
2013-06-04 12:30:00,80.3,76.4,29.98,ESE,119,9.0,9.0,88,0.00,,,0.00,VWS V14.01,2013-06-04 16:30:00,
2013-06-04 12:31:00,80.1,76.2,29.98,ESE,117,8.0,10.0,88,0.00,,,0.00,VWS V14.01,2013-06-04 16:31:00,
2013-06-04 12:32:00,80.1,76.6,29.98,SE,133,8.0,9.0,89,0.00,,SCT200,0.00,VWS V14.01,2013-06-04 16:32:00,
2013-06-04 12:33:00,80.1,76.9,29.98,SE,126,12.0,12.0,90,0.00,,,0.00,VWS V14.01,2013-06-04 16:33:00,
2013-06-04 12:34:00,79.9,76.4,29.98,SE,126,7.0,12.0,89,0.00,,,0.00,VWS V14.01,2013-06-04 16:34:00,
2013-06-04 12:35:00,79.9,76.7,29.98,SE,126,7.0,10.0,90,0.00,,,0.00,VWS V14.01,2013-06-04 16:35:00,
2013-06-04 12:36:00,79.8,76.6,29.98,SE,126,7.0,7.0,90,0.00,,,0.00,VWS V14.01,2013-06-04 16:36:00,
2013-06-04 12:37:00,79.8,76.6,29.98,ESE,121,6.0,7.0,90,0.00,,SCT200,0.00,VWS V14.01,2013-06-04 16:37:00,
2013-06-04 12:38:00,79.6,76.4,29.98,SE,127,7.0,9.0,90,0.00,,,0.00,VWS V14.01,2013-06-04 16:38:00,
2013-06-04 12:39:00,79.6,76.4,29.98,ESE,120,9.0,9.0,90,0.00,,,0.00,VWS V14.01,2013-06-04 16:39:00,
2013-06-04 12:40:00,79.6,76.4,29.98,ESE,117,9.0,9.0,90,0.01,,,0.01,VWS V14.01,2013-06-04 16:40:00,
2013-06-04 12:41:00,79.6,76.8,29.98,ESE,111,7.0,9.0,91,0.01,,,0.01,VWS V14.01,2013-06-04 16:41:00,
2013-06-04 12:42:00,79.4,76.6,29.98,ESE,109,6.0,7.0,91,0.01,,SCT060,0.01,VWS V14.01,2013-06-04 16:42:00,
2013-06-04 12:43:00,79.4,76.6,29.94,ESE,113,7.0,9.0,91,0.01,,,0.01,VWS V14.01,2013-06-04 16:43:00,
2013-06-04 12:44:00,79.6,77.1,29.94,SE,126,8.0,8.0,92,0.01,,,0.01,VWS V14.01,2013-06-04 16:44:00,
2013-06-04 12:45:00,79.4,76.6,29.94,SE,127,6.0,8.0,91,0.01,,,0.01,VWS V14.01,2013-06-04 16:45:00,
2013-06-04 12:46:00,79.4,76.6,29.94,ESE,123,6.0,9.0,91,0.01,,,0.01,VWS V14.01,2013-06-04 16:46:00,
2013-06-04 12:47:00,79.4,76.9,29.98,SE,128,9.0,9.0,92,0.01,,SCT060,0.01,VWS V14.01,2013-06-04 16:47:00,
2013-06-04 12:48:00,79.4,76.9,29.98,SE,124,8.0,9.0,92,0.01,,,0.01,VWS V14.01,2013-06-04 16:48:00,
2013-06-04 12:49:00,79.4,76.6,29.98,ESE,122,6.0,8.0,91,0.01,,,0.01,VWS V14.01,2013-06-04 16:49:00,
2013-06-04 12:50:00,79.4,76.6,29.98,SE,128,7.0,7.0,91,0.01,,,0.01,VWS V14.01,2013-06-04 16:50:00,
2013-06-04 12:51:00,79.2,76.7,29.98,SE,133,5.0,8.0,92,0.01,,,0.01,VWS V14.01,2013-06-04 16:51:00,
2013-06-04 12:52:00,79.2,76.7,29.98,SE,138,5.0,6.0,92,0.01,,SCT060,0.01,VWS V14.01,2013-06-04 16:52:00,
2013-06-04 12:53:00,79.2,76.7,29.98,SE,138,3.0,6.0,92,0.01,,,0.01,VWS V14.01,2013-06-04 16:53:00,
2013-06-04 12:54:00,79.2,76.7,29.98,SE,138,5.0,5.0,92,0.01,,,0.01,VWS V14.01,2013-06-04 16:54:00,
2013-06-04 12:55:00,79.2,76.7,29.98,SE,133,4.0,5.0,92,0.01,,,0.01,VWS V14.01,2013-06-04 16:55:00,
2013-06-04 12:56:00,79.2,76.7,29.98,SE,133,4.0,4.0,92,0.01,,,0.01,VWS V14.01,2013-06-04 16:56:00,
2013-06-04 12:57:00,79.2,76.7,29.98,SE,133,2.0,3.0,92,0.01,,SCT060,0.01,VWS V14.01,2013-06-04 16:57:00,
2013-06-04 12:58:00,79.2,76.7,29.98,SE,133,3.0,3.0,92,0.01,,,0.01,VWS V14.01,2013-06-04 16:58:00,
2013-06-04 12:59:00,79.2,76.7,29.98,SE,133,3.0,3.0,92,0.01,,,0.01,VWS V14.01,2013-06-04 16:59:00,
2013-06-04 13:00:00,79.2,76.3,29.98,SE,133,4.0,4.0,91,0.01,,,0.01,VWS V14.01,2013-06-04 17:00:00,
2013-06-04 13:01:00,79.2,76.3,29.98,SE,133,3.0,4.0,91,0.01,,,0.01,VWS V14.01,2013-06-04 17:01:00,
2013-06-04 13:02:00,79.2,76.7,29.98,SE,131,6.0,6.0,92,0.01,,SCT060,0.01,VWS V14.01,2013-06-04 17:02:00,
2013-06-04 13:03:00,79.2,76.7,29.98,SE,131,4.0,6.0,92,0.01,,,0.01,VWS V14.01,2013-06-04 17:03:00,
2013-06-04 13:04:00,79.2,76.3,29.98,SE,131,4.0,5.0,91,0.01,,,0.01,VWS V14.01,2013-06-04 17:04:00,
2013-06-04 13:05:00,79.2,76.7,29.98,ESE,119,5.0,5.0,92,0.01,,,0.01,VWS V14.01,2013-06-04 17:05:00,
2013-06-04 13:06:00,79.2,76.3,29.98,ESE,119,2.0,5.0,91,0.01,,,0.01,VWS V14.01,2013-06-04 17:06:00,
2013-06-04 13:07:00,79.2,76.7,29.98,ESE,119,2.0,3.0,92,0.01,,SCT060,0.01,VWS V14.01,2013-06-04 17:07:00,
2013-06-04 13:08:00,79.2,76.7,29.98,ESE,119,1.0,3.0,92,0.01,,,0.01,VWS V14.01,2013-06-04 17:08:00,
2013-06-04 13:09:00,79.4,76.9,29.98,ESE,119,3.0,3.0,92,0.01,,,0.01,VWS V14.01,2013-06-04 17:09:00,
2013-06-04 13:10:00,79.4,76.9,29.98,ESE,119,2.0,3.0,92,0.01,,,0.01,VWS V14.01,2013-06-04 17:10:00,
2013-06-04 13:11:00,79.4,76.9,29.98,ESE,119,2.0,2.0,92,0.01,,,0.01,VWS V14.01,2013-06-04 17:11:00,
2013-06-04 13:12:00,79.6,76.8,29.97,ESE,118,2.0,4.0,91,0.01,,SCT060,0.01,VWS V14.01,2013-06-04 17:12:00,
2013-06-04 13:13:00,79.6,76.8,29.97,ESE,118,4.0,4.0,91,0.01,,,0.01,VWS V14.01,2013-06-04 17:13:00,
2013-06-04 13:14:00,79.6,76.8,29.97,ESE,118,4.0,4.0,91,0.01,,,0.01,VWS V14.01,2013-06-04 17:14:00,
2013-06-04 13:15:00,79.6,76.8,29.97,ESE,118,3.0,4.0,91,0.01,,,0.01,VWS V14.01,2013-06-04 17:15:00,
2013-06-04 13:16:00,79.6,76.8,29.97,ESE,118,3.0,3.0,91,0.01,,,0.01,VWS V14.01,2013-06-04 17:16:00,
2013-06-04 13:17:00,79.6,76.8,29.98,ESE,118,3.0,3.0,91,0.01,,SCT060,0.01,VWS V14.01,2013-06-04 17:17:00,
2013-06-04 13:18:00,79.6,76.8,29.98,ESE,118,3.0,4.0,91,0.01,,,0.01,VWS V14.01,2013-06-04 17:18:00,
2013-06-04 13:19:00,79.6,76.8,29.98,ESE,118,3.0,4.0,91,0.01,,,0.01,VWS V14.01,2013-06-04 17:19:00,
2013-06-04 13:20:00,79.6,76.8,29.98,ESE,118,4.0,4.0,91,0.01,,,0.01,VWS V14.01,2013-06-04 17:20:00,
2013-06-04 13:21:00,79.6,76.8,29.98,ESE,118,2.0,4.0,91,0.01,,,0.01,VWS V14.01,2013-06-04 17:21:00,
2013-06-04 13:22:00,79.6,76.8,29.98,ESE,118,2.0,3.0,91,0.01,,SCT060,0.01,VWS V14.01,2013-06-04 17:22:00,
2013-06-04 13:23:00,79.4,76.6,29.98,ESE,118,2.0,3.0,91,0.01,,,0.01,VWS V14.01,2013-06-04 17:23:00,
2013-06-04 13:24:00,79.4,76.2,29.98,ESE,118,0.0,2.0,90,0.01,,,0.01,VWS V14.01,2013-06-04 17:24:00,
2013-06-04 13:25:00,79.4,76.6,29.98,ESE,118,3.0,3.0,91,0.01,,,0.01,VWS V14.01,2013-06-04 17:25:00,
2013-06-04 13:26:00,79.4,76.2,29.98,ESE,118,1.0,3.0,90,0.01,,,0.01,VWS V14.01,2013-06-04 17:26:00,
2013-06-04 13:27:00,79.4,76.2,29.97,ESE,118,2.0,3.0,90,0.01,,SCT060,0.01,VWS V14.01,2013-06-04 17:27:00,
2013-06-04 13:28:00,79.4,76.2,29.97,ESE,118,2.0,3.0,90,0.01,,,0.01,VWS V14.01,2013-06-04 17:28:00,
2013-06-04 13:29:00,79.4,76.2,29.97,ESE,118,3.0,4.0,90,0.01,,,0.01,VWS V14.01,2013-06-04 17:29:00,
2013-06-04 13:30:00,79.6,76.4,29.97,ESE,117,2.0,3.0,90,0.01,,,0.01,VWS V14.01,2013-06-04 17:30:00,
2013-06-04 13:31:00,79.6,76.4,29.97,ESE,114,5.0,5.0,90,0.01,,,0.01,VWS V14.01,2013-06-04 17:31:00,
2013-06-04 13:32:00,79.6,76.4,29.97,ESE,106,4.0,4.0,90,0.01,,SCT060,0.01,VWS V14.01,2013-06-04 17:32:00,
2013-06-04 13:33:00,79.8,76.9,29.97,ESE,109,4.0,4.0,91,0.01,,,0.01,VWS V14.01,2013-06-04 17:33:00,
2013-06-04 13:34:00,79.8,76.6,29.97,ESE,104,5.0,5.0,90,0.01,,,0.01,VWS V14.01,2013-06-04 17:34:00,
2013-06-04 13:35:00,79.8,76.6,29.97,ESE,103,5.0,5.0,90,0.01,,,0.01,VWS V14.01,2013-06-04 17:35:00,
2013-06-04 13:36:00,79.8,76.6,29.96,ESE,106,5.0,5.0,90,0.01,,,0.01,VWS V14.01,2013-06-04 17:36:00,
2013-06-04 13:37:00,79.8,76.6,29.96,ESE,106,5.0,5.0,90,0.01,,SCT060,0.01,VWS V14.01,2013-06-04 17:37:00,
2013-06-04 13:38:00,79.8,76.6,29.96,East,101,3.0,5.0,90,0.01,,,0.01,VWS V14.01,2013-06-04 17:38:00,
2013-06-04 13:39:00,79.9,76.7,29.96,ESE,105,3.0,5.0,90,0.01,,,0.01,VWS V14.01,2013-06-04 17:39:00,
2013-06-04 13:40:00,79.9,76.7,29.96,East,99,4.0,5.0,90,0.01,,,0.01,VWS V14.01,2013-06-04 17:40:00,
2013-06-04 13:41:00,79.9,76.7,29.97,East,101,4.0,5.0,90,0.00,,,0.01,VWS V14.01,2013-06-04 17:41:00,
2013-06-04 13:42:00,80.1,76.9,29.97,ESE,107,4.0,5.0,90,0.00,,BKN100,0.01,VWS V14.01,2013-06-04 17:42:00,
2013-06-04 13:43:00,80.1,76.6,29.97,SE,126,6.0,6.0,89,0.00,,,0.01,VWS V14.01,2013-06-04 17:43:00,
2013-06-04 13:44:00,80.1,76.6,29.97,ESE,122,4.0,6.0,89,0.00,,,0.01,VWS V14.01,2013-06-04 17:44:00,
2013-06-04 13:45:00,80.1,76.6,29.97,ESE,122,4.0,5.0,89,0.00,,,0.01,VWS V14.01,2013-06-04 17:45:00,
2013-06-04 13:46:00,79.9,76.4,29.97,ESE,121,5.0,6.0,89,0.00,,,0.01,VWS V14.01,2013-06-04 17:46:00,
2013-06-04 13:47:00,80.1,76.6,29.97,ESE,109,5.0,6.0,89,0.00,,BKN100,0.01,VWS V14.01,2013-06-04 17:47:00,
2013-06-04 13:48:00,80.1,76.6,29.97,ESE,103,4.0,6.0,89,0.00,,,0.01,VWS V14.01,2013-06-04 17:48:00,
2013-06-04 13:49:00,80.1,76.6,29.96,ESE,105,5.0,5.0,89,0.00,,,0.01,VWS V14.01,2013-06-04 17:49:00,
2013-06-04 13:50:00,80.1,76.6,29.96,ESE,115,5.0,7.0,89,0.00,,,0.01,VWS V14.01,2013-06-04 17:50:00,
2013-06-04 13:51:00,80.1,76.6,29.96,ESE,115,6.0,6.0,89,0.00,,,0.01,VWS V14.01,2013-06-04 17:51:00,
2013-06-04 13:52:00,80.1,76.6,29.96,ESE,113,6.0,6.0,89,0.00,,BKN100,0.01,VWS V14.01,2013-06-04 17:52:00,
2013-06-04 13:53:00,79.9,76.0,29.96,ESE,117,7.0,7.0,88,0.00,,,0.01,VWS V14.01,2013-06-04 17:53:00,
2013-06-04 13:54:00,79.9,76.0,29.96,ESE,117,5.0,7.0,88,0.00,,,0.01,VWS V14.01,2013-06-04 17:54:00,
2013-06-04 13:55:00,79.9,76.0,29.96,ESE,117,7.0,7.0,88,0.00,,,0.01,VWS V14.01,2013-06-04 17:55:00,
2013-06-04 13:56:00,79.9,76.0,29.97,ESE,114,5.0,7.0,88,0.00,,,0.01,VWS V14.01,2013-06-04 17:56:00,
2013-06-04 13:57:00,79.9,76.0,29.96,ESE,115,4.0,5.0,88,0.00,,BKN100,0.01,VWS V14.01,2013-06-04 17:57:00,
2013-06-04 13:58:00,79.9,76.0,29.96,ESE,105,7.0,7.0,88,0.00,,,0.01,VWS V14.01,2013-06-04 17:58:00,
2013-06-04 13:59:00,79.9,76.4,29.96,ESE,107,5.0,7.0,89,0.00,,,0.01,VWS V14.01,2013-06-04 17:59:00,
2013-06-04 14:00:00,79.9,76.0,29.96,ESE,106,7.0,7.0,88,0.00,,,0.01,VWS V14.01,2013-06-04 18:00:00,
2013-06-04 14:01:00,79.9,76.0,29.96,ESE,105,6.0,7.0,88,0.00,,,0.01,VWS V14.01,2013-06-04 18:01:00,
2013-06-04 14:02:00,79.9,76.0,29.96,ESE,105,6.0,6.0,88,0.00,,BKN100,0.01,VWS V14.01,2013-06-04 18:02:00,
2013-06-04 14:03:00,80.1,76.2,29.96,ESE,106,6.0,6.0,88,0.00,,,0.01,VWS V14.01,2013-06-04 18:03:00,
2013-06-04 14:04:00,80.1,76.6,29.96,ESE,107,5.0,6.0,89,0.00,,,0.01,VWS V14.01,2013-06-04 18:04:00,
2013-06-04 14:05:00,80.3,76.8,29.96,ESE,115,7.0,7.0,89,0.00,,,0.01,VWS V14.01,2013-06-04 18:05:00,
2013-06-04 14:06:00,80.3,76.8,29.96,ESE,113,6.0,7.0,89,0.00,,,0.01,VWS V14.01,2013-06-04 18:06:00,
2013-06-04 14:07:00,80.3,76.4,29.96,ESE,104,5.0,5.0,88,0.00,,BKN100,0.01,VWS V14.01,2013-06-04 18:07:00,
2013-06-04 14:08:00,80.3,76.4,29.96,ESE,115,6.0,6.0,88,0.00,,,0.01,VWS V14.01,2013-06-04 18:08:00,
2013-06-04 14:09:00,80.3,76.4,29.96,ESE,109,5.0,7.0,88,0.00,,,0.01,VWS V14.01,2013-06-04 18:09:00,
2013-06-04 14:10:00,80.3,76.4,29.95,ESE,105,5.0,6.0,88,0.00,,,0.01,VWS V14.01,2013-06-04 18:10:00,
2013-06-04 14:11:00,80.3,76.4,29.96,ESE,108,4.0,5.0,88,0.00,,,0.01,VWS V14.01,2013-06-04 18:11:00,
2013-06-04 14:12:00,80.3,76.4,29.95,East,101,4.0,5.0,88,0.00,,BKN100,0.01,VWS V14.01,2013-06-04 18:12:00,
2013-06-04 14:13:00,80.3,76.4,29.95,East,101,5.0,5.0,88,0.00,,,0.01,VWS V14.01,2013-06-04 18:13:00,
2013-06-04 14:14:00,80.3,76.4,29.95,ESE,103,5.0,5.0,88,0.00,,,0.01,VWS V14.01,2013-06-04 18:14:00,
2013-06-04 14:15:00,80.3,76.4,29.95,ESE,102,6.0,6.0,88,0.00,,,0.01,VWS V14.01,2013-06-04 18:15:00,
2013-06-04 14:16:00,80.3,76.4,29.95,ESE,103,5.0,6.0,88,0.00,,,0.01,VWS V14.01,2013-06-04 18:16:00,
2013-06-04 14:17:00,80.5,76.6,29.95,East,100,3.0,6.0,88,0.00,,BKN100,0.01,VWS V14.01,2013-06-04 18:17:00,
2013-06-04 14:18:00,80.5,76.6,29.95,ESE,107,4.0,6.0,88,0.00,,,0.01,VWS V14.01,2013-06-04 18:18:00,
2013-06-04 14:19:00,80.5,76.3,29.95,ESE,103,6.0,6.0,87,0.00,,,0.01,VWS V14.01,2013-06-04 18:19:00,
2013-06-04 14:20:00,80.7,76.5,29.95,ESE,109,7.0,7.0,87,0.00,,,0.01,VWS V14.01,2013-06-04 18:20:00,
2013-06-04 14:21:00,80.7,76.5,29.95,ESE,108,6.0,7.0,87,0.00,,,0.01,VWS V14.01,2013-06-04 18:21:00,
2013-06-04 14:22:00,80.7,76.5,29.95,East,101,4.0,6.0,87,0.00,,BKN100,0.01,VWS V14.01,2013-06-04 18:22:00,
2013-06-04 14:23:00,80.7,76.5,29.95,East,98,3.0,6.0,87,0.00,,,0.01,VWS V14.01,2013-06-04 18:23:00,
2013-06-04 14:24:00,80.7,76.5,29.95,East,101,5.0,5.0,87,0.00,,,0.01,VWS V14.01,2013-06-04 18:24:00,
2013-06-04 14:25:00,80.9,76.7,29.95,ESE,105,3.0,5.0,87,0.00,,,0.01,VWS V14.01,2013-06-04 18:25:00,
2013-06-04 14:26:00,81.1,76.9,29.95,East,95,3.0,6.0,87,0.00,,,0.01,VWS V14.01,2013-06-04 18:26:00,
2013-06-04 14:27:00,81.2,77.0,29.95,ESE,106,8.0,8.0,87,0.00,,BKN100,0.01,VWS V14.01,2013-06-04 18:27:00,
2013-06-04 14:28:00,81.2,77.0,29.95,East,96,8.0,9.0,87,0.00,,,0.01,VWS V14.01,2013-06-04 18:28:00,
2013-06-04 14:29:00,81.4,77.2,29.95,ESE,105,5.0,8.0,87,0.00,,,0.01,VWS V14.01,2013-06-04 18:29:00,
2013-06-04 14:30:00,81.4,76.8,29.95,ESE,107,6.0,7.0,86,0.00,,,0.01,VWS V14.01,2013-06-04 18:30:00,
2013-06-04 14:31:00,81.2,76.3,29.95,East,96,5.0,6.0,85,0.00,,,0.01,VWS V14.01,2013-06-04 18:31:00,
2013-06-04 14:32:00,81.2,76.6,29.95,East,100,6.0,9.0,86,0.00,,BKN100,0.01,VWS V14.01,2013-06-04 18:32:00,
2013-06-04 14:33:00,81.2,76.6,29.95,ESE,108,8.0,9.0,86,0.00,,,0.01,VWS V14.01,2013-06-04 18:33:00,
2013-06-04 14:34:00,81.2,76.3,29.95,ESE,106,7.0,11.0,85,0.00,,,0.01,VWS V14.01,2013-06-04 18:34:00,
2013-06-04 14:35:00,81.2,76.6,29.95,East,95,7.0,10.0,86,0.00,,,0.01,VWS V14.01,2013-06-04 18:35:00,
2013-06-04 14:36:00,81.2,76.6,29.95,East,98,8.0,9.0,86,0.00,,,0.01,VWS V14.01,2013-06-04 18:36:00,
2013-06-04 14:37:00,81.1,76.9,29.95,ESE,104,10.0,11.0,87,0.00,,BKN100,0.01,VWS V14.01,2013-06-04 18:37:00,
2013-06-04 14:38:00,81.1,76.9,29.95,East,98,7.0,11.0,87,0.00,,,0.01,VWS V14.01,2013-06-04 18:38:00,
2013-06-04 14:39:00,80.9,76.3,29.95,East,91,7.0,9.0,86,0.00,,,0.01,VWS V14.01,2013-06-04 18:39:00,
2013-06-04 14:40:00,80.9,76.3,29.95,ESE,104,6.0,7.0,86,0.00,,,0.01,VWS V14.01,2013-06-04 18:40:00,
2013-06-04 14:41:00,80.7,76.5,29.95,ESE,102,7.0,9.0,87,0.00,,,0.01,VWS V14.01,2013-06-04 18:41:00,
2013-06-04 14:42:00,80.9,76.7,29.95,ESE,103,5.0,7.0,87,0.00,,BKN100,0.01,VWS V14.01,2013-06-04 18:42:00,
2013-06-04 14:43:00,80.9,76.7,29.95,ESE,104,6.0,7.0,87,0.00,,,0.01,VWS V14.01,2013-06-04 18:43:00,
2013-06-04 14:44:00,80.9,77.0,29.95,East,91,9.0,9.0,88,0.00,,,0.01,VWS V14.01,2013-06-04 18:44:00,
2013-06-04 14:45:00,80.7,76.8,29.95,ESE,106,9.0,10.0,88,0.00,,,0.01,VWS V14.01,2013-06-04 18:45:00,
2013-06-04 14:46:00,80.7,76.5,29.95,East,99,11.0,11.0,87,0.00,,,0.01,VWS V14.01,2013-06-04 18:46:00,
2013-06-04 14:47:00,80.5,76.6,29.95,ESE,109,9.0,10.0,88,0.00,,CLR,0.01,VWS V14.01,2013-06-04 18:47:00,
2013-06-04 14:48:00,80.3,76.4,29.95,East,99,6.0,10.0,88,0.00,,,0.01,VWS V14.01,2013-06-04 18:48:00,
2013-06-04 14:49:00,80.3,76.4,29.95,ESE,103,11.0,11.0,88,0.00,,,0.01,VWS V14.01,2013-06-04 18:49:00,
2013-06-04 14:50:00,80.3,76.4,29.95,ESE,110,6.0,11.0,88,0.00,,,0.01,VWS V14.01,2013-06-04 18:50:00,
2013-06-04 14:51:00,80.1,76.6,29.95,ESE,102,7.0,9.0,89,0.00,,,0.01,VWS V14.01,2013-06-04 18:51:00,
2013-06-04 14:52:00,80.1,76.6,29.95,East,101,6.0,7.0,89,0.00,,CLR,0.01,VWS V14.01,2013-06-04 18:52:00,
2013-06-04 14:53:00,80.1,76.6,29.95,ENE,78,7.0,7.0,89,0.00,,,0.01,VWS V14.01,2013-06-04 18:53:00,
2013-06-04 14:54:00,80.1,76.6,29.95,East,101,11.0,11.0,89,0.00,,,0.01,VWS V14.01,2013-06-04 18:54:00,
2013-06-04 14:55:00,80.1,76.6,29.95,East,92,9.0,11.0,89,0.00,,,0.01,VWS V14.01,2013-06-04 18:55:00,
2013-06-04 14:56:00,80.1,76.6,29.95,ESE,105,11.0,11.0,89,0.00,,,0.01,VWS V14.01,2013-06-04 18:56:00,
2013-06-04 14:57:00,80.1,76.6,29.95,East,96,6.0,10.0,89,0.00,,CLR,0.01,VWS V14.01,2013-06-04 18:57:00,
2013-06-04 14:58:00,80.1,76.9,29.95,ESE,102,6.0,10.0,90,0.00,,,0.01,VWS V14.01,2013-06-04 18:58:00,
2013-06-04 14:59:00,80.1,76.9,29.95,East,92,7.0,9.0,90,0.00,,,0.01,VWS V14.01,2013-06-04 18:59:00,
2013-06-04 15:00:00,80.1,76.9,29.95,ESE,105,10.0,10.0,90,0.00,,,0.01,VWS V14.01,2013-06-04 19:00:00,
2013-06-04 15:01:00,80.1,76.9,29.94,East,96,11.0,11.0,90,0.00,,,0.01,VWS V14.01,2013-06-04 19:01:00,
2013-06-04 15:02:00,79.9,76.7,29.94,ESE,115,11.0,12.0,90,0.00,,CLR,0.01,VWS V14.01,2013-06-04 19:02:00,
2013-06-04 15:03:00,79.9,76.7,29.95,ESE,105,10.0,12.0,90,0.00,,,0.01,VWS V14.01,2013-06-04 19:03:00,
2013-06-04 15:04:00,79.9,76.7,29.95,East,98,7.0,10.0,90,0.00,,,0.01,VWS V14.01,2013-06-04 19:04:00,
2013-06-04 15:05:00,79.9,76.7,29.95,East,96,8.0,8.0,90,0.00,,,0.01,VWS V14.01,2013-06-04 19:05:00,
2013-06-04 15:06:00,79.9,76.7,29.95,East,101,7.0,11.0,90,0.00,,,0.01,VWS V14.01,2013-06-04 19:06:00,
2013-06-04 15:07:00,79.9,76.7,29.95,East,99,9.0,9.0,90,0.00,,CLR,0.01,VWS V14.01,2013-06-04 19:07:00,
2013-06-04 15:08:00,79.9,77.0,29.95,ESE,119,6.0,9.0,91,0.00,,,0.01,VWS V14.01,2013-06-04 19:08:00,
2013-06-04 15:09:00,79.9,76.7,29.95,East,88,4.0,7.0,90,0.00,,,0.01,VWS V14.01,2013-06-04 19:09:00,
2013-06-04 15:10:00,79.9,76.7,29.94,East,92,6.0,7.0,90,0.00,,,0.01,VWS V14.01,2013-06-04 19:10:00,
2013-06-04 15:11:00,79.9,76.7,29.94,East,97,4.0,9.0,90,0.00,,,0.01,VWS V14.01,2013-06-04 19:11:00,
2013-06-04 15:12:00,79.9,76.7,29.94,East,90,6.0,8.0,90,0.00,,CLR,0.01,VWS V14.01,2013-06-04 19:12:00,
2013-06-04 15:13:00,79.9,76.7,29.94,ESE,105,6.0,8.0,90,0.00,,,0.01,VWS V14.01,2013-06-04 19:13:00,
2013-06-04 15:14:00,79.9,76.7,29.94,East,94,5.0,7.0,90,0.00,,,0.01,VWS V14.01,2013-06-04 19:14:00,
2013-06-04 15:15:00,79.9,76.7,29.94,East,99,9.0,9.0,90,0.00,,,0.01,VWS V14.01,2013-06-04 19:15:00,
2013-06-04 15:16:00,79.9,77.0,29.94,East,91,6.0,9.0,91,0.00,,,0.01,VWS V14.01,2013-06-04 19:16:00,
2013-06-04 15:17:00,79.9,77.0,29.94,ESE,106,5.0,6.0,91,0.00,,CLR,0.01,VWS V14.01,2013-06-04 19:17:00,
2013-06-04 15:18:00,80.1,77.2,29.94,ESE,104,6.0,6.0,91,0.00,,,0.01,VWS V14.01,2013-06-04 19:18:00,
2013-06-04 15:19:00,80.1,77.2,29.94,East,88,7.0,7.0,91,0.00,,,0.01,VWS V14.01,2013-06-04 19:19:00,
2013-06-04 15:20:00,79.9,76.7,29.94,East,98,5.0,7.0,90,0.00,,,0.01,VWS V14.01,2013-06-04 19:20:00,
2013-06-04 15:21:00,79.9,76.7,29.94,East,101,4.0,6.0,90,0.00,,,0.01,VWS V14.01,2013-06-04 19:21:00,
2013-06-04 15:22:00,79.9,77.0,29.94,East,83,5.0,8.0,91,0.00,,CLR,0.01,VWS V14.01,2013-06-04 19:22:00,
2013-06-04 15:23:00,79.9,77.0,29.94,ESE,108,5.0,8.0,91,0.00,,,0.01,VWS V14.01,2013-06-04 19:23:00,
2013-06-04 15:24:00,79.9,77.0,29.94,ESE,107,5.0,7.0,91,0.00,,,0.01,VWS V14.01,2013-06-04 19:24:00,
2013-06-04 15:25:00,79.9,77.0,29.94,East,98,4.0,7.0,91,0.00,,,0.01,VWS V14.01,2013-06-04 19:25:00,
2013-06-04 15:26:00,79.9,77.0,29.94,ESE,103,7.0,7.0,91,0.00,,,0.01,VWS V14.01,2013-06-04 19:26:00,
2013-06-04 15:27:00,79.9,77.0,29.94,East,101,4.0,6.0,91,0.00,,CLR,0.01,VWS V14.01,2013-06-04 19:27:00,
2013-06-04 15:28:00,79.9,77.0,29.94,East,100,5.0,6.0,91,0.00,,,0.01,VWS V14.01,2013-06-04 19:28:00,
2013-06-04 15:29:00,79.9,76.7,29.94,East,98,6.0,7.0,90,0.00,,,0.01,VWS V14.01,2013-06-04 19:29:00,
2013-06-04 15:30:00,79.8,76.6,29.95,ESE,109,9.0,9.0,90,0.00,,,0.01,VWS V14.01,2013-06-04 19:30:00,
2013-06-04 15:31:00,79.8,76.6,29.95,ESE,115,6.0,9.0,90,0.00,,,0.01,VWS V14.01,2013-06-04 19:31:00,
2013-06-04 15:32:00,79.9,77.0,29.95,ESE,106,9.0,9.0,91,0.00,,CLR,0.01,VWS V14.01,2013-06-04 19:32:00,
2013-06-04 15:33:00,79.9,77.0,29.95,ESE,107,9.0,9.0,91,0.00,,,0.01,VWS V14.01,2013-06-04 19:33:00,
2013-06-04 15:34:00,79.9,77.0,29.95,ESE,105,5.0,9.0,91,0.00,,,0.01,VWS V14.01,2013-06-04 19:34:00,
2013-06-04 15:35:00,79.9,77.0,29.95,East,101,6.0,6.0,91,0.00,,,0.01,VWS V14.01,2013-06-04 19:35:00,
2013-06-04 15:36:00,79.9,76.7,29.95,ESE,104,5.0,6.0,90,0.00,,,0.01,VWS V14.01,2013-06-04 19:36:00,
2013-06-04 15:37:00,79.9,77.0,29.95,ESE,103,6.0,9.0,91,0.00,,CLR,0.01,VWS V14.01,2013-06-04 19:37:00,
2013-06-04 15:38:00,79.9,77.0,29.95,ESE,108,6.0,9.0,91,0.00,,,0.01,VWS V14.01,2013-06-04 19:38:00,
2013-06-04 15:39:00,79.9,77.0,29.95,East,95,5.0,6.0,91,0.00,,,0.01,VWS V14.01,2013-06-04 19:39:00,
2013-06-04 15:40:00,79.9,77.0,29.95,ESE,102,6.0,6.0,91,0.00,,,0.01,VWS V14.01,2013-06-04 19:40:00,
2013-06-04 15:41:00,79.9,77.0,29.95,ESE,107,6.0,8.0,91,0.00,,,0.01,VWS V14.01,2013-06-04 19:41:00,
2013-06-04 15:42:00,79.9,77.0,29.95,ESE,104,6.0,6.0,91,0.00,,BKN200,0.01,VWS V14.01,2013-06-04 19:42:00,
2013-06-04 15:43:00,79.9,76.0,29.95,ESE,108,9.0,9.0,88,0.00,,,0.01,VWS V14.01,2013-06-04 19:43:00,
2013-06-04 15:44:00,79.9,77.0,29.95,ESE,103,6.0,9.0,91,0.00,,,0.01,VWS V14.01,2013-06-04 19:44:00,
2013-06-04 15:45:00,79.9,77.0,29.94,ESE,105,6.0,9.0,91,0.00,,,0.01,VWS V14.01,2013-06-04 19:45:00,
2013-06-04 15:46:00,79.8,76.9,29.94,ESE,106,6.0,6.0,91,0.00,,,0.01,VWS V14.01,2013-06-04 19:46:00,
2013-06-04 15:47:00,79.8,76.9,29.94,ESE,106,7.0,8.0,91,0.00,,BKN200,0.01,VWS V14.01,2013-06-04 19:47:00,
2013-06-04 15:48:00,79.8,76.9,29.94,ESE,106,7.0,8.0,91,0.00,,,0.01,VWS V14.01,2013-06-04 19:48:00,
2013-06-04 15:49:00,79.8,76.9,29.94,ESE,103,7.0,9.0,91,0.00,,,0.01,VWS V14.01,2013-06-04 19:49:00,
2013-06-04 15:50:00,79.8,76.9,29.94,ESE,102,5.0,7.0,91,0.00,,,0.01,VWS V14.01,2013-06-04 19:50:00,
2013-06-04 15:51:00,79.8,76.9,29.94,East,101,5.0,6.0,91,0.00,,,0.01,VWS V14.01,2013-06-04 19:51:00,
2013-06-04 15:52:00,79.9,77.0,29.94,East,101,3.0,4.0,91,0.00,,BKN200,0.01,VWS V14.01,2013-06-04 19:52:00,
2013-06-04 15:53:00,79.9,77.4,29.94,East,101,4.0,4.0,92,0.00,,,0.01,VWS V14.01,2013-06-04 19:53:00,
2013-06-04 15:54:00,79.9,77.0,29.94,East,101,4.0,5.0,91,0.00,,,0.01,VWS V14.01,2013-06-04 19:54:00,
2013-06-04 15:55:00,80.1,77.2,29.94,East,100,6.0,6.0,91,0.00,,,0.01,VWS V14.01,2013-06-04 19:55:00,
2013-06-04 15:56:00,80.1,77.2,29.94,East,93,7.0,7.0,91,0.00,,,0.01,VWS V14.01,2013-06-04 19:56:00,
2013-06-04 15:57:00,80.3,77.4,29.94,ESE,105,6.0,9.0,91,0.00,,BKN200,0.01,VWS V14.01,2013-06-04 19:57:00,
2013-06-04 15:58:00,80.3,77.4,29.94,East,100,7.0,9.0,91,0.00,,,0.01,VWS V14.01,2013-06-04 19:58:00,
2013-06-04 15:59:00,80.3,77.1,29.94,East,101,7.0,7.0,90,0.00,,,0.01,VWS V14.01,2013-06-04 19:59:00,
2013-06-04 16:00:00,80.3,77.1,29.94,East,96,7.0,7.0,90,0.00,,,0.01,VWS V14.01,2013-06-04 20:00:00,
2013-06-04 16:01:00,80.3,77.1,29.95,ESE,108,9.0,10.0,90,0.00,,,0.01,VWS V14.01,2013-06-04 20:01:00,
2013-06-04 16:02:00,80.3,77.1,29.95,ESE,112,10.0,10.0,90,0.00,,BKN200,0.01,VWS V14.01,2013-06-04 20:02:00,
2013-06-04 16:03:00,80.3,77.1,29.95,ESE,119,9.0,10.0,90,0.00,,,0.01,VWS V14.01,2013-06-04 20:03:00,
2013-06-04 16:04:00,80.3,77.4,29.95,East,101,9.0,9.0,91,0.00,,,0.01,VWS V14.01,2013-06-04 20:04:00,
2013-06-04 16:05:00,80.3,77.1,29.95,East,101,6.0,9.0,90,0.00,,,0.01,VWS V14.01,2013-06-04 20:05:00,
2013-06-04 16:06:00,80.3,77.1,29.95,ESE,103,5.0,7.0,90,0.00,,,0.01,VWS V14.01,2013-06-04 20:06:00,
2013-06-04 16:07:00,80.3,77.1,29.94,ESE,104,5.0,6.0,90,0.00,,BKN200,0.01,VWS V14.01,2013-06-04 20:07:00,
2013-06-04 16:08:00,80.3,77.1,29.94,ESE,104,4.0,6.0,90,0.00,,,0.01,VWS V14.01,2013-06-04 20:08:00,
2013-06-04 16:09:00,80.3,77.1,29.94,ESE,107,4.0,7.0,90,0.00,,,0.01,VWS V14.01,2013-06-04 20:09:00,
2013-06-04 16:10:00,80.3,77.1,29.94,East,91,4.0,6.0,90,0.00,,,0.01,VWS V14.01,2013-06-04 20:10:00,
2013-06-04 16:11:00,80.3,77.4,29.94,East,92,6.0,6.0,91,0.00,,,0.01,VWS V14.01,2013-06-04 20:11:00,
2013-06-04 16:12:00,80.3,77.1,29.95,East,94,4.0,6.0,90,0.00,,BKN200,0.01,VWS V14.01,2013-06-04 20:12:00,
2013-06-04 16:13:00,80.3,77.1,29.95,East,94,3.0,6.0,90,0.00,,,0.01,VWS V14.01,2013-06-04 20:13:00,
2013-06-04 16:14:00,80.3,77.4,29.95,East,101,5.0,5.0,91,0.00,,,0.01,VWS V14.01,2013-06-04 20:14:00,
2013-06-04 16:15:00,80.5,77.6,29.95,East,98,6.0,6.0,91,0.00,,,0.01,VWS V14.01,2013-06-04 20:15:00,
2013-06-04 16:16:00,80.3,77.1,29.95,East,101,4.0,6.0,90,0.00,,,0.01,VWS V14.01,2013-06-04 20:16:00,
2013-06-04 16:17:00,80.3,77.1,29.96,East,101,5.0,5.0,90,0.00,,BKN200,0.01,VWS V14.01,2013-06-04 20:17:00,
2013-06-04 16:18:00,80.3,77.1,29.96,East,101,4.0,5.0,90,0.00,,,0.01,VWS V14.01,2013-06-04 20:18:00,
2013-06-04 16:19:00,80.3,77.1,29.96,East,98,5.0,5.0,90,0.00,,,0.01,VWS V14.01,2013-06-04 20:19:00,
2013-06-04 16:20:00,80.3,77.4,29.95,East,101,2.0,5.0,91,0.00,,,0.01,VWS V14.01,2013-06-04 20:20:00,
2013-06-04 16:21:00,80.3,77.1,29.95,East,96,5.0,5.0,90,0.00,,,0.01,VWS V14.01,2013-06-04 20:21:00,
2013-06-04 16:22:00,80.3,77.4,29.95,ESE,114,4.0,6.0,91,0.00,,BKN200,0.01,VWS V14.01,2013-06-04 20:22:00,
2013-06-04 16:23:00,80.3,77.4,29.95,ESE,111,4.0,6.0,91,0.00,,,0.01,VWS V14.01,2013-06-04 20:23:00,
2013-06-04 16:24:00,80.5,77.3,29.95,ESE,108,6.0,6.0,90,0.00,,,0.01,VWS V14.01,2013-06-04 20:24:00,
2013-06-04 16:25:00,80.3,77.1,29.95,East,96,6.0,9.0,90,0.00,,,0.01,VWS V14.01,2013-06-04 20:25:00,
2013-06-04 16:26:00,80.3,77.1,29.95,ESE,102,6.0,9.0,90,0.00,,,0.01,VWS V14.01,2013-06-04 20:26:00,
2013-06-04 16:27:00,80.3,77.1,29.95,ESE,109,7.0,7.0,90,0.00,,BKN200,0.01,VWS V14.01,2013-06-04 20:27:00,
2013-06-04 16:28:00,80.3,77.1,29.95,ESE,103,7.0,7.0,90,0.00,,,0.01,VWS V14.01,2013-06-04 20:28:00,
2013-06-04 16:29:00,80.3,77.1,29.95,East,98,5.0,7.0,90,0.00,,,0.01,VWS V14.01,2013-06-04 20:29:00,
2013-06-04 16:30:00,80.3,77.1,29.95,East,98,5.0,6.0,90,0.00,,,0.01,VWS V14.01,2013-06-04 20:30:00,
2013-06-04 16:31:00,80.3,77.1,29.95,ESE,102,5.0,6.0,90,0.00,,,0.01,VWS V14.01,2013-06-04 20:31:00,
2013-06-04 16:32:00,80.3,77.4,29.95,East,97,4.0,6.0,91,0.00,,BKN200,0.01,VWS V14.01,2013-06-04 20:32:00,
2013-06-04 16:33:00,80.3,77.4,29.95,East,97,4.0,6.0,91,0.00,,,0.01,VWS V14.01,2013-06-04 20:33:00,
2013-06-04 16:34:00,80.3,77.1,29.95,East,80,3.0,6.0,90,0.00,,,0.01,VWS V14.01,2013-06-04 20:34:00,
2013-06-04 16:35:00,80.3,77.4,29.94,East,97,7.0,7.0,91,0.00,,,0.01,VWS V14.01,2013-06-04 20:35:00,
2013-06-04 16:36:00,80.3,77.1,29.94,East,94,6.0,7.0,90,0.00,,,0.01,VWS V14.01,2013-06-04 20:36:00,
2013-06-04 16:37:00,80.3,77.1,29.94,East,88,4.0,8.0,90,0.00,,BKN200,0.01,VWS V14.01,2013-06-04 20:37:00,
2013-06-04 16:38:00,80.3,77.1,29.94,East,88,4.0,8.0,90,0.00,,,0.01,VWS V14.01,2013-06-04 20:38:00,
2013-06-04 16:39:00,80.5,77.6,29.94,East,94,6.0,6.0,91,0.00,,,0.01,VWS V14.01,2013-06-04 20:39:00,
2013-06-04 16:40:00,80.5,77.3,29.94,ESE,104,8.0,8.0,90,0.00,,,0.01,VWS V14.01,2013-06-04 20:40:00,
2013-06-04 16:41:00,80.5,77.3,29.94,East,101,6.0,8.0,90,0.00,,,0.01,VWS V14.01,2013-06-04 20:41:00,
2013-06-04 16:42:00,80.3,77.1,29.94,ESE,103,9.0,9.0,90,0.00,,BKN200,0.01,VWS V14.01,2013-06-04 20:42:00,
2013-06-04 16:43:00,80.3,77.1,29.94,ESE,103,9.0,9.0,90,0.00,,,0.01,VWS V14.01,2013-06-04 20:43:00,
2013-06-04 16:44:00,80.3,77.1,29.94,East,100,6.0,9.0,90,0.00,,,0.01,VWS V14.01,2013-06-04 20:44:00,
2013-06-04 16:45:00,80.3,77.1,29.94,ESE,109,10.0,10.0,90,0.00,,,0.01,VWS V14.01,2013-06-04 20:45:00,
2013-06-04 16:46:00,80.1,76.9,29.94,East,98,7.0,10.0,90,0.00,,,0.01,VWS V14.01,2013-06-04 20:46:00,
2013-06-04 16:47:00,80.1,77.2,29.94,East,99,6.0,6.0,91,0.00,,BKN200,0.01,VWS V14.01,2013-06-04 20:47:00,
2013-06-04 16:48:00,80.1,77.2,29.94,East,99,6.0,6.0,91,0.00,,,0.01,VWS V14.01,2013-06-04 20:48:00,
2013-06-04 16:49:00,80.1,77.2,29.94,East,83,7.0,9.0,91,0.00,,,0.01,VWS V14.01,2013-06-04 20:49:00,
2013-06-04 16:50:00,79.9,77.0,29.94,East,94,7.0,7.0,91,0.00,,,0.01,VWS V14.01,2013-06-04 20:50:00,
2013-06-04 16:51:00,79.9,77.0,29.94,ESE,105,8.0,9.0,91,0.00,,,0.01,VWS V14.01,2013-06-04 20:51:00,
2013-06-04 16:52:00,79.9,77.0,29.94,East,92,10.0,10.0,91,0.00,,BKN200,0.01,VWS V14.01,2013-06-04 20:52:00,
2013-06-04 16:53:00,79.9,77.0,29.94,East,88,10.0,10.0,91,0.00,,,0.01,VWS V14.01,2013-06-04 20:53:00,
2013-06-04 16:54:00,79.8,76.9,29.94,ESE,105,10.0,12.0,91,0.00,,,0.01,VWS V14.01,2013-06-04 20:54:00,
2013-06-04 16:55:00,79.8,77.3,29.94,ESE,108,10.0,10.0,92,0.00,,,0.01,VWS V14.01,2013-06-04 20:55:00,
2013-06-04 16:56:00,79.8,77.3,29.94,East,96,10.0,10.0,92,0.00,,,0.01,VWS V14.01,2013-06-04 20:56:00,
2013-06-04 16:57:00,79.8,77.3,29.94,ESE,105,10.0,12.0,92,0.00,,BKN200,0.01,VWS V14.01,2013-06-04 20:57:00,
2013-06-04 16:58:00,79.8,77.3,29.94,ESE,108,12.0,12.0,92,0.00,,,0.01,VWS V14.01,2013-06-04 20:58:00,
2013-06-04 16:59:00,79.8,77.3,29.94,East,100,12.0,12.0,92,0.00,,,0.01,VWS V14.01,2013-06-04 20:59:00,
2013-06-04 17:00:00,79.8,77.3,29.94,East,99,8.0,12.0,92,0.00,,,0.01,VWS V14.01,2013-06-04 21:00:00,
2013-06-04 17:01:00,79.8,77.6,29.94,East,97,8.0,11.0,93,0.00,,,0.01,VWS V14.01,2013-06-04 21:01:00,
2013-06-04 17:02:00,79.8,77.6,29.94,East,96,9.0,14.0,93,0.00,,BKN200,0.01,VWS V14.01,2013-06-04 21:02:00,
2013-06-04 17:03:00,79.8,77.6,29.94,ESE,106,12.0,14.0,93,0.00,,,0.01,VWS V14.01,2013-06-04 21:03:00,
2013-06-04 17:04:00,79.8,78.6,29.94,ESE,103,9.0,12.0,96,0.00,,,0.01,VWS V14.01,2013-06-04 21:04:00,
2013-06-04 17:05:00,79.6,77.4,29.94,East,98,9.0,11.0,93,0.00,,,0.01,VWS V14.01,2013-06-04 21:05:00,
2013-06-04 17:06:00,79.6,77.4,29.94,East,100,7.0,9.0,93,0.00,,,0.01,VWS V14.01,2013-06-04 21:06:00,
2013-06-04 17:07:00,79.6,77.4,29.95,East,99,11.0,12.0,93,0.00,,BKN200,0.01,VWS V14.01,2013-06-04 21:07:00,
2013-06-04 17:08:00,79.6,77.4,29.95,East,99,11.0,12.0,93,0.00,,,0.01,VWS V14.01,2013-06-04 21:08:00,
2013-06-04 17:09:00,79.6,77.1,29.95,ESE,102,11.0,11.0,92,0.00,,,0.01,VWS V14.01,2013-06-04 21:09:00,
2013-06-04 17:10:00,79.6,77.4,29.95,ESE,111,12.0,12.0,93,0.00,,,0.01,VWS V14.01,2013-06-04 21:10:00,
2013-06-04 17:11:00,79.6,77.4,29.95,ESE,109,12.0,12.0,93,0.00,,,0.01,VWS V14.01,2013-06-04 21:11:00,
2013-06-04 17:12:00,79.4,77.2,29.95,ESE,105,12.0,12.0,93,0.00,,BKN200,0.01,VWS V14.01,2013-06-04 21:12:00,
2013-06-04 17:13:00,79.4,77.2,29.95,ESE,105,12.0,12.0,93,0.00,,,0.01,VWS V14.01,2013-06-04 21:13:00,
2013-06-04 17:14:00,79.4,77.2,29.95,ESE,111,10.0,12.0,93,0.00,,,0.01,VWS V14.01,2013-06-04 21:14:00,
2013-06-04 17:15:00,79.4,77.2,29.95,ESE,117,11.0,14.0,93,0.00,,,0.01,VWS V14.01,2013-06-04 21:15:00,
2013-06-04 17:16:00,79.4,77.2,29.95,ESE,110,11.0,12.0,93,0.00,,,0.01,VWS V14.01,2013-06-04 21:16:00,
2013-06-04 17:17:00,79.4,77.2,29.95,ESE,110,12.0,13.0,93,0.00,,BKN200,0.01,VWS V14.01,2013-06-04 21:17:00,
2013-06-04 17:18:00,79.4,77.2,29.95,ESE,110,12.0,13.0,93,0.00,,,0.01,VWS V14.01,2013-06-04 21:18:00,
2013-06-04 17:19:00,79.4,77.2,29.95,ESE,119,13.0,13.0,93,0.00,,,0.01,VWS V14.01,2013-06-04 21:19:00,
2013-06-04 17:20:00,79.2,76.7,29.95,ESE,114,13.0,15.0,92,0.00,,,0.01,VWS V14.01,2013-06-04 21:20:00,
2013-06-04 17:21:00,79.2,77.0,29.95,ESE,107,11.0,13.0,93,0.00,,,0.01,VWS V14.01,2013-06-04 21:21:00,
2013-06-04 17:22:00,79.2,77.0,29.95,ESE,119,13.0,14.0,93,0.00,,BKN200,0.01,VWS V14.01,2013-06-04 21:22:00,
2013-06-04 17:23:00,79.2,77.0,29.95,ESE,117,12.0,14.0,93,0.00,,,0.01,VWS V14.01,2013-06-04 21:23:00,
2013-06-04 17:24:00,79.2,76.7,29.95,SE,125,11.0,14.0,92,0.00,,,0.01,VWS V14.01,2013-06-04 21:24:00,
2013-06-04 17:25:00,79.4,77.2,29.95,ESE,120,13.0,13.0,93,0.00,,,0.01,VWS V14.01,2013-06-04 21:25:00,
2013-06-04 17:26:00,79.4,77.2,29.95,ESE,121,12.0,13.0,93,0.00,,,0.01,VWS V14.01,2013-06-04 21:26:00,
2013-06-04 17:27:00,79.2,77.0,29.95,ESE,121,12.0,13.0,93,0.00,,BKN200,0.01,VWS V14.01,2013-06-04 21:27:00,
2013-06-04 17:28:00,79.2,77.0,29.95,ESE,123,11.0,13.0,93,0.00,,,0.01,VWS V14.01,2013-06-04 21:28:00,
2013-06-04 17:29:00,79.2,77.0,29.95,ESE,117,10.0,12.0,93,0.00,,,0.01,VWS V14.01,2013-06-04 21:29:00,
2013-06-04 17:30:00,79.2,77.0,29.95,ESE,123,10.0,11.0,93,0.00,,,0.01,VWS V14.01,2013-06-04 21:30:00,
2013-06-04 17:31:00,79.2,77.0,29.95,ESE,119,11.0,11.0,93,0.00,,,0.01,VWS V14.01,2013-06-04 21:31:00,
2013-06-04 17:32:00,79.0,76.8,29.95,SE,128,13.0,13.0,93,0.00,,BKN200,0.01,VWS V14.01,2013-06-04 21:32:00,
2013-06-04 17:33:00,79.0,76.8,29.95,SE,128,12.0,13.0,93,0.00,,,0.01,VWS V14.01,2013-06-04 21:33:00,
2013-06-04 17:34:00,79.0,76.8,29.95,ESE,123,10.0,12.0,93,0.00,,,0.01,VWS V14.01,2013-06-04 21:34:00,
2013-06-04 17:35:00,79.0,76.8,29.95,SE,126,13.0,13.0,93,0.00,,,0.01,VWS V14.01,2013-06-04 21:35:00,
2013-06-04 17:36:00,79.0,76.8,29.95,SE,128,10.0,13.0,93,0.00,,,0.01,VWS V14.01,2013-06-04 21:36:00,
2013-06-04 17:37:00,79.0,76.8,29.95,ESE,120,11.0,11.0,93,0.00,,BKN200,0.01,VWS V14.01,2013-06-04 21:37:00,
2013-06-04 17:38:00,79.0,76.8,29.95,ESE,122,10.0,11.0,93,0.00,,,0.01,VWS V14.01,2013-06-04 21:38:00,
2013-06-04 17:39:00,79.0,76.8,29.95,SE,125,12.0,12.0,93,0.00,,,0.01,VWS V14.01,2013-06-04 21:39:00,
2013-06-04 17:40:00,79.0,76.8,29.95,ESE,115,11.0,12.0,93,0.00,,,0.01,VWS V14.01,2013-06-04 21:40:00,
2013-06-04 17:41:00,79.0,76.8,29.95,ESE,123,13.0,13.0,93,0.00,,,0.01,VWS V14.01,2013-06-04 21:41:00,
2013-06-04 17:42:00,78.8,76.6,29.94,ESE,119,9.0,10.0,93,0.00,,BKN200,0.01,VWS V14.01,2013-06-04 21:42:00,
2013-06-04 17:43:00,78.8,76.6,29.94,ESE,119,9.0,10.0,93,0.00,,,0.01,VWS V14.01,2013-06-04 21:43:00,
2013-06-04 17:44:00,78.8,76.6,29.94,ESE,116,7.0,9.0,93,0.00,,,0.01,VWS V14.01,2013-06-04 21:44:00,
2013-06-04 17:45:00,78.8,76.6,29.95,ESE,116,7.0,9.0,93,0.00,,,0.01,VWS V14.01,2013-06-04 21:45:00,
2013-06-04 17:46:00,78.8,76.6,29.95,ESE,120,9.0,10.0,93,0.00,,,0.01,VWS V14.01,2013-06-04 21:46:00,
2013-06-04 17:47:00,78.8,76.6,29.95,SE,125,9.0,11.0,93,0.00,,BKN200,0.01,VWS V14.01,2013-06-04 21:47:00,
2013-06-04 17:48:00,78.8,76.6,29.95,SE,132,11.0,11.0,93,0.00,,,0.01,VWS V14.01,2013-06-04 21:48:00,
2013-06-04 17:49:00,78.8,76.6,29.95,ESE,119,9.0,11.0,93,0.00,,,0.01,VWS V14.01,2013-06-04 21:49:00,
2013-06-04 17:50:00,78.8,76.6,29.95,ESE,115,8.0,9.0,93,0.00,,,0.01,VWS V14.01,2013-06-04 21:50:00,
2013-06-04 17:51:00,79.0,77.1,29.95,ESE,120,10.0,11.0,94,0.00,,,0.01,VWS V14.01,2013-06-04 21:51:00,
2013-06-04 17:52:00,78.8,76.6,29.95,ESE,123,11.0,11.0,93,0.00,,BKN200,0.01,VWS V14.01,2013-06-04 21:52:00,
2013-06-04 17:53:00,78.8,76.6,29.95,ESE,123,11.0,11.0,93,0.00,,,0.01,VWS V14.01,2013-06-04 21:53:00,
2013-06-04 17:54:00,78.8,76.6,29.95,SE,130,11.0,12.0,93,0.00,,,0.01,VWS V14.01,2013-06-04 21:54:00,
2013-06-04 17:55:00,78.8,76.6,29.95,SE,125,10.0,11.0,93,0.00,,,0.01,VWS V14.01,2013-06-04 21:55:00,
2013-06-04 17:56:00,78.8,76.6,29.95,ESE,114,10.0,11.0,93,0.00,,,0.01,VWS V14.01,2013-06-04 21:56:00,
2013-06-04 17:57:00,78.8,76.6,29.95,ESE,115,11.0,11.0,93,0.00,,BKN200,0.01,VWS V14.01,2013-06-04 21:57:00,
2013-06-04 17:58:00,78.8,76.6,29.95,ESE,115,11.0,11.0,93,0.00,,,0.01,VWS V14.01,2013-06-04 21:58:00,
2013-06-04 17:59:00,78.8,76.6,29.95,SE,129,10.0,11.0,93,0.00,,,0.01,VWS V14.01,2013-06-04 21:59:00,
2013-06-04 18:00:00,78.8,76.6,29.95,SE,131,8.0,10.0,93,0.00,,,0.01,VWS V14.01,2013-06-04 22:00:00,
2013-06-04 18:01:00,78.8,76.6,29.95,SE,130,11.0,11.0,93,0.00,,,0.01,VWS V14.01,2013-06-04 22:01:00,
2013-06-04 18:02:00,78.8,76.6,29.95,ESE,117,10.0,10.0,93,0.00,,BKN200,0.01,VWS V14.01,2013-06-04 22:02:00,
2013-06-04 18:03:00,78.8,76.6,29.95,ESE,113,10.0,10.0,93,0.00,,,0.01,VWS V14.01,2013-06-04 22:03:00,
2013-06-04 18:04:00,78.8,76.6,29.95,ESE,123,10.0,11.0,93,0.00,,,0.01,VWS V14.01,2013-06-04 22:04:00,
2013-06-04 18:05:00,78.8,76.3,29.95,ESE,122,11.0,11.0,92,0.00,,,0.01,VWS V14.01,2013-06-04 22:05:00,
2013-06-04 18:06:00,78.6,76.1,29.95,SE,127,11.0,12.0,92,0.00,,,0.01,VWS V14.01,2013-06-04 22:06:00,
2013-06-04 18:07:00,78.8,76.6,29.95,ESE,123,12.0,12.0,93,0.00,,BKN200,0.01,VWS V14.01,2013-06-04 22:07:00,
2013-06-04 18:08:00,78.8,76.3,29.95,SE,128,12.0,12.0,92,0.00,,,0.01,VWS V14.01,2013-06-04 22:08:00,
2013-06-04 18:09:00,78.8,76.6,29.95,SE,126,11.0,13.0,93,0.00,,,0.01,VWS V14.01,2013-06-04 22:09:00,
2013-06-04 18:10:00,78.8,76.6,29.95,ESE,118,12.0,12.0,93,0.00,,,0.01,VWS V14.01,2013-06-04 22:10:00,
2013-06-04 18:11:00,78.8,76.6,29.95,ESE,118,12.0,12.0,93,0.00,,,0.01,VWS V14.01,2013-06-04 22:11:00,
2013-06-04 18:12:00,78.8,76.6,29.95,SE,128,11.0,12.0,93,0.00,,BKN200,0.01,VWS V14.01,2013-06-04 22:12:00,
2013-06-04 18:13:00,78.8,76.6,29.95,SE,125,12.0,12.0,93,0.00,,,0.01,VWS V14.01,2013-06-04 22:13:00,
2013-06-04 18:14:00,78.8,76.6,29.95,ESE,120,12.0,13.0,93,0.00,,,0.01,VWS V14.01,2013-06-04 22:14:00,
2013-06-04 18:15:00,78.8,76.6,29.95,ESE,123,11.0,12.0,93,0.00,,,0.01,VWS V14.01,2013-06-04 22:15:00,
2013-06-04 18:16:00,78.8,76.3,29.96,ESE,123,11.0,11.0,92,0.00,,,0.01,VWS V14.01,2013-06-04 22:16:00,
2013-06-04 18:17:00,78.8,76.3,29.96,ESE,114,10.0,11.0,92,0.00,,BKN200,0.01,VWS V14.01,2013-06-04 22:17:00,
2013-06-04 18:18:00,78.8,76.3,29.96,ESE,114,10.0,11.0,92,0.00,,,0.01,VWS V14.01,2013-06-04 22:18:00,
2013-06-04 18:19:00,78.8,76.3,29.96,ESE,121,9.0,10.0,92,0.00,,,0.01,VWS V14.01,2013-06-04 22:19:00,
2013-06-04 18:20:00,78.8,76.3,29.96,ESE,112,8.0,9.0,92,0.00,,,0.01,VWS V14.01,2013-06-04 22:20:00,
2013-06-04 18:21:00,78.8,76.3,29.96,ESE,115,8.0,9.0,92,0.00,,,0.01,VWS V14.01,2013-06-04 22:21:00,
2013-06-04 18:22:00,78.8,76.3,29.96,ESE,109,6.0,7.0,92,0.00,,BKN200,0.01,VWS V14.01,2013-06-04 22:22:00,
2013-06-04 18:23:00,78.8,76.3,29.96,East,101,6.0,7.0,92,0.00,,,0.01,VWS V14.01,2013-06-04 22:23:00,
2013-06-04 18:24:00,79.0,76.8,29.96,East,101,5.0,9.0,93,0.00,,,0.01,VWS V14.01,2013-06-04 22:24:00,
2013-06-04 18:25:00,79.0,76.8,29.96,ESE,104,7.0,9.0,93,0.00,,,0.01,VWS V14.01,2013-06-04 22:25:00,
2013-06-04 18:26:00,79.0,76.8,29.96,East,99,6.0,7.0,93,0.00,,,0.01,VWS V14.01,2013-06-04 22:26:00,
2013-06-04 18:27:00,79.0,76.5,29.96,ESE,102,8.0,10.0,92,0.00,,BKN200,0.01,VWS V14.01,2013-06-04 22:27:00,
2013-06-04 18:28:00,79.0,76.5,29.96,ESE,116,10.0,10.0,92,0.00,,,0.01,VWS V14.01,2013-06-04 22:28:00,
2013-06-04 18:29:00,79.0,76.5,29.96,ESE,103,9.0,10.0,92,0.00,,,0.01,VWS V14.01,2013-06-04 22:29:00,
2013-06-04 18:30:00,79.0,76.5,29.96,ESE,120,11.0,11.0,92,0.00,,,0.01,VWS V14.01,2013-06-04 22:30:00,
2013-06-04 18:31:00,79.0,76.5,29.96,ESE,106,9.0,11.0,92,0.00,,,0.01,VWS V14.01,2013-06-04 22:31:00,
2013-06-04 18:32:00,79.0,76.5,29.96,ESE,114,7.0,10.0,92,0.00,,BKN200,0.01,VWS V14.01,2013-06-04 22:32:00,
2013-06-04 18:33:00,79.0,76.5,29.96,ESE,108,7.0,10.0,92,0.00,,,0.01,VWS V14.01,2013-06-04 22:33:00,
2013-06-04 18:34:00,79.0,76.5,29.96,ESE,116,10.0,10.0,92,0.00,,,0.01,VWS V14.01,2013-06-04 22:34:00,
2013-06-04 18:35:00,79.0,76.8,29.96,ESE,105,6.0,10.0,93,0.00,,,0.01,VWS V14.01,2013-06-04 22:35:00,
2013-06-04 18:36:00,79.0,76.5,29.96,ESE,106,7.0,7.0,92,0.00,,,0.01,VWS V14.01,2013-06-04 22:36:00,
2013-06-04 18:37:00,79.0,76.8,29.96,ESE,109,6.0,8.0,93,0.00,,BKN200,0.01,VWS V14.01,2013-06-04 22:37:00,
2013-06-04 18:38:00,79.0,76.8,29.96,ESE,109,7.0,8.0,93,0.00,,,0.01,VWS V14.01,2013-06-04 22:38:00,
2013-06-04 18:39:00,79.2,77.0,29.96,ESE,107,6.0,10.0,93,0.00,,,0.01,VWS V14.01,2013-06-04 22:39:00,
2013-06-04 18:40:00,79.2,77.0,29.96,ESE,103,7.0,10.0,93,0.00,,,0.01,VWS V14.01,2013-06-04 22:40:00,
2013-06-04 18:41:00,79.2,77.0,29.96,ESE,111,9.0,9.0,93,0.00,,,0.01,VWS V14.01,2013-06-04 22:41:00,
2013-06-04 18:42:00,79.0,76.8,29.96,ESE,112,9.0,9.0,93,0.00,,OVC200,0.01,VWS V14.01,2013-06-04 22:42:00,
2013-06-04 18:43:00,79.0,76.8,29.96,East,101,7.0,9.0,93,0.00,,,0.01,VWS V14.01,2013-06-04 22:43:00,
2013-06-04 18:44:00,79.0,76.8,29.96,ESE,103,7.0,9.0,93,0.00,,,0.01,VWS V14.01,2013-06-04 22:44:00,
2013-06-04 18:45:00,79.2,77.0,29.96,ESE,108,7.0,7.0,93,0.00,,,0.01,VWS V14.01,2013-06-04 22:45:00,
2013-06-04 18:46:00,79.2,77.0,29.96,ESE,105,10.0,11.0,93,0.00,,,0.01,VWS V14.01,2013-06-04 22:46:00,
2013-06-04 18:47:00,79.2,77.0,29.96,East,98,9.0,10.0,93,0.00,,OVC200,0.01,VWS V14.01,2013-06-04 22:47:00,
2013-06-04 18:48:00,79.2,77.0,29.96,ESE,113,10.0,10.0,93,0.00,,,0.01,VWS V14.01,2013-06-04 22:48:00,
2013-06-04 18:49:00,79.2,77.0,29.96,ESE,111,7.0,10.0,93,0.00,,,0.01,VWS V14.01,2013-06-04 22:49:00,
2013-06-04 18:50:00,79.2,77.0,29.96,East,99,12.0,12.0,93,0.00,,,0.01,VWS V14.01,2013-06-04 22:50:00,
2013-06-04 18:51:00,79.2,77.0,29.96,ESE,117,12.0,12.0,93,0.00,,,0.01,VWS V14.01,2013-06-04 22:51:00,
2013-06-04 18:52:00,79.2,77.0,29.96,ESE,113,9.0,11.0,93,0.00,,OVC200,0.01,VWS V14.01,2013-06-04 22:52:00,
2013-06-04 18:53:00,79.2,77.0,29.96,ESE,113,9.0,11.0,93,0.00,,,0.01,VWS V14.01,2013-06-04 22:53:00,
2013-06-04 18:54:00,79.2,77.3,29.96,ESE,117,9.0,10.0,94,0.00,,,0.01,VWS V14.01,2013-06-04 22:54:00,
2013-06-04 18:55:00,79.2,77.3,29.96,ESE,123,11.0,11.0,94,0.00,,,0.01,VWS V14.01,2013-06-04 22:55:00,
2013-06-04 18:56:00,79.0,76.8,29.96,ESE,121,8.0,11.0,93,0.00,,,0.01,VWS V14.01,2013-06-04 22:56:00,
2013-06-04 18:57:00,79.0,76.8,29.97,ESE,111,6.0,7.0,93,0.00,,OVC200,0.01,VWS V14.01,2013-06-04 22:57:00,
2013-06-04 18:58:00,79.0,77.1,29.97,ESE,111,6.0,7.0,94,0.00,,,0.01,VWS V14.01,2013-06-04 22:58:00,
2013-06-04 18:59:00,79.0,76.8,29.97,ESE,121,8.0,9.0,93,0.00,,,0.01,VWS V14.01,2013-06-04 22:59:00,
2013-06-04 19:00:00,79.0,77.1,29.97,SE,126,9.0,10.0,94,0.00,,,0.01,VWS V14.01,2013-06-04 23:00:00,
2013-06-04 19:01:00,79.0,76.8,29.97,SE,127,10.0,10.0,93,0.00,,,0.01,VWS V14.01,2013-06-04 23:01:00,
2013-06-04 19:02:00,79.0,76.8,29.97,SE,138,10.0,10.0,93,0.00,,OVC200,0.01,VWS V14.01,2013-06-04 23:02:00,
2013-06-04 19:03:00,79.0,77.1,29.97,SE,126,9.0,10.0,94,0.00,,,0.01,VWS V14.01,2013-06-04 23:03:00,
2013-06-04 19:04:00,78.8,76.6,29.97,SE,125,9.0,11.0,93,0.00,,,0.01,VWS V14.01,2013-06-04 23:04:00,
2013-06-04 19:05:00,78.8,76.6,29.96,SE,126,10.0,11.0,93,0.00,,,0.01,VWS V14.01,2013-06-04 23:05:00,
2013-06-04 19:06:00,78.8,76.6,29.96,SE,128,9.0,11.0,93,0.00,,,0.01,VWS V14.01,2013-06-04 23:06:00,
2013-06-04 19:07:00,78.8,76.6,29.97,SE,131,9.0,9.0,93,0.00,,OVC200,0.01,VWS V14.01,2013-06-04 23:07:00,
2013-06-04 19:08:00,78.8,76.6,29.97,SE,136,9.0,9.0,93,0.00,,,0.01,VWS V14.01,2013-06-04 23:08:00,
2013-06-04 19:09:00,78.8,76.6,29.97,SE,136,10.0,10.0,93,0.00,,,0.01,VWS V14.01,2013-06-04 23:09:00,
2013-06-04 19:10:00,78.8,76.6,29.97,SE,130,7.0,10.0,93,0.00,,,0.01,VWS V14.01,2013-06-04 23:10:00,
2013-06-04 19:11:00,78.8,76.6,29.97,SE,128,6.0,7.0,93,0.00,,,0.01,VWS V14.01,2013-06-04 23:11:00,
2013-06-04 19:12:00,78.8,76.6,29.97,SE,128,8.0,8.0,93,0.00,,OVC200,0.01,VWS V14.01,2013-06-04 23:12:00,
2013-06-04 19:13:00,78.8,76.6,29.97,SE,140,7.0,8.0,93,0.00,,,0.01,VWS V14.01,2013-06-04 23:13:00,
2013-06-04 19:14:00,78.8,76.6,29.97,SE,135,7.0,9.0,93,0.00,,,0.01,VWS V14.01,2013-06-04 23:14:00,
2013-06-04 19:15:00,78.8,76.6,29.97,SE,140,7.0,7.0,93,0.00,,,0.01,VWS V14.01,2013-06-04 23:15:00,
2013-06-04 19:16:00,78.8,76.6,29.97,SSE,150,5.0,7.0,93,0.00,,,0.01,VWS V14.01,2013-06-04 23:16:00,
2013-06-04 19:17:00,78.8,76.6,29.97,SE,142,7.0,10.0,93,0.00,,OVC200,0.01,VWS V14.01,2013-06-04 23:17:00,
2013-06-04 19:18:00,78.8,76.6,29.97,SE,136,6.0,10.0,93,0.00,,,0.01,VWS V14.01,2013-06-04 23:18:00,
2013-06-04 19:19:00,78.8,76.6,29.97,SSE,161,6.0,8.0,93,0.00,,,0.01,VWS V14.01,2013-06-04 23:19:00,
2013-06-04 19:20:00,78.8,76.6,29.97,SSE,152,7.0,9.0,93,0.00,,,0.01,VWS V14.01,2013-06-04 23:20:00,
2013-06-04 19:21:00,78.8,76.6,29.97,SE,144,9.0,9.0,93,0.00,,,0.01,VWS V14.01,2013-06-04 23:21:00,
2013-06-04 19:22:00,78.8,76.6,29.97,SSE,148,8.0,9.0,93,0.00,,OVC200,0.01,VWS V14.01,2013-06-04 23:22:00,
2013-06-04 19:23:00,78.8,76.6,29.97,SSE,165,6.0,9.0,93,0.00,,,0.01,VWS V14.01,2013-06-04 23:23:00,
2013-06-04 19:24:00,78.8,76.6,29.97,SE,132,10.0,11.0,93,0.00,,,0.01,VWS V14.01,2013-06-04 23:24:00,
2013-06-04 19:25:00,78.8,76.6,29.97,SE,145,11.0,11.0,93,0.00,,,0.01,VWS V14.01,2013-06-04 23:25:00,
2013-06-04 19:26:00,78.8,76.6,29.97,SE,138,9.0,11.0,93,0.00,,,0.01,VWS V14.01,2013-06-04 23:26:00,
2013-06-04 19:27:00,78.8,76.6,29.97,SE,132,10.0,10.0,93,0.00,,OVC200,0.01,VWS V14.01,2013-06-04 23:27:00,
2013-06-04 19:28:00,78.8,76.6,29.97,SSE,150,10.0,10.0,93,0.00,,,0.01,VWS V14.01,2013-06-04 23:28:00,
2013-06-04 19:29:00,78.8,76.6,29.97,SSE,155,9.0,10.0,93,0.00,,,0.01,VWS V14.01,2013-06-04 23:29:00,
2013-06-04 19:30:00,79.0,76.8,29.98,SSE,163,5.0,9.0,93,0.00,,,0.01,VWS V14.01,2013-06-04 23:30:00,
2013-06-04 19:31:00,78.8,76.6,29.98,SSE,148,6.0,6.0,93,0.00,,,0.01,VWS V14.01,2013-06-04 23:31:00,
2013-06-04 19:32:00,78.8,76.6,29.98,SSE,159,4.0,6.0,93,0.00,,OVC200,0.01,VWS V14.01,2013-06-04 23:32:00,
2013-06-04 19:33:00,78.8,76.6,29.98,SSE,161,5.0,6.0,93,0.00,,,0.01,VWS V14.01,2013-06-04 23:33:00,
2013-06-04 19:34:00,79.0,76.8,29.98,SSE,155,4.0,6.0,93,0.00,,,0.01,VWS V14.01,2013-06-04 23:34:00,
2013-06-04 19:35:00,79.0,76.8,29.98,SSE,150,8.0,8.0,93,0.00,,,0.01,VWS V14.01,2013-06-04 23:35:00,
2013-06-04 19:36:00,78.8,76.6,29.98,SSE,148,9.0,9.0,93,0.00,,,0.01,VWS V14.01,2013-06-04 23:36:00,
2013-06-04 19:37:00,78.8,76.6,29.98,SSE,153,6.0,9.0,93,0.00,,OVC200,0.01,VWS V14.01,2013-06-04 23:37:00,
2013-06-04 19:38:00,78.8,76.6,29.98,SSE,148,8.0,9.0,93,0.00,,,0.01,VWS V14.01,2013-06-04 23:38:00,
2013-06-04 19:39:00,78.8,76.6,29.99,SE,144,10.0,10.0,93,0.00,,,0.01,VWS V14.01,2013-06-04 23:39:00,
2013-06-04 19:40:00,78.8,76.6,29.98,SSE,154,7.0,10.0,93,0.00,,,0.01,VWS V14.01,2013-06-04 23:40:00,
2013-06-04 19:41:00,78.8,76.6,29.98,SE,138,8.0,9.0,93,0.00,,,0.01,VWS V14.01,2013-06-04 23:41:00,
2013-06-04 19:42:00,78.8,76.6,29.99,SE,130,7.0,9.0,93,0.00,,OVC200,0.01,VWS V14.01,2013-06-04 23:42:00,
2013-06-04 19:43:00,78.8,76.6,29.99,SE,136,7.0,9.0,93,0.00,,,0.01,VWS V14.01,2013-06-04 23:43:00,
2013-06-04 19:44:00,78.8,76.6,29.98,SE,146,6.0,7.0,93,0.00,,,0.01,VWS V14.01,2013-06-04 23:44:00,
2013-06-04 19:45:00,78.8,76.6,29.98,SSE,163,5.0,6.0,93,0.00,,,0.01,VWS V14.01,2013-06-04 23:45:00,
2013-06-04 19:46:00,78.8,76.6,29.99,SSE,163,4.0,5.0,93,0.00,,,0.01,VWS V14.01,2013-06-04 23:46:00,
2013-06-04 19:47:00,78.8,76.6,29.99,SE,146,3.0,6.0,93,0.00,,OVC200,0.01,VWS V14.01,2013-06-04 23:47:00,
2013-06-04 19:48:00,78.8,76.6,29.99,SE,146,3.0,6.0,93,0.00,,,0.01,VWS V14.01,2013-06-04 23:48:00,
2013-06-04 19:49:00,78.8,76.6,29.99,SSE,151,3.0,4.0,93,0.00,,,0.01,VWS V14.01,2013-06-04 23:49:00,
2013-06-04 19:50:00,78.8,76.6,29.99,SSE,161,3.0,3.0,93,0.00,,,0.01,VWS V14.01,2013-06-04 23:50:00,
2013-06-04 19:51:00,78.8,76.6,29.99,SSE,161,2.0,3.0,93,0.00,,,0.01,VWS V14.01,2013-06-04 23:51:00,
2013-06-04 19:52:00,78.8,76.6,29.99,SSE,161,1.0,2.0,93,0.00,,OVC200,0.01,VWS V14.01,2013-06-04 23:52:00,
2013-06-04 19:53:00,78.8,76.6,29.99,SSE,161,2.0,2.0,93,0.00,,,0.01,VWS V14.01,2013-06-04 23:53:00,
2013-06-04 19:54:00,78.8,76.6,29.99,SSE,161,2.0,3.0,93,0.00,,,0.01,VWS V14.01,2013-06-04 23:54:00,
2013-06-04 19:55:00,78.8,76.6,29.99,SSE,162,2.0,2.0,93,0.00,,,0.01,VWS V14.01,2013-06-04 23:55:00,
2013-06-04 19:56:00,78.8,76.6,29.99,SSE,162,1.0,2.0,93,0.00,,,0.01,VWS V14.01,2013-06-04 23:56:00,
2013-06-04 19:57:00,78.8,76.6,30.00,SSE,161,2.0,2.0,93,0.00,,OVC200,0.01,VWS V14.01,2013-06-04 23:57:00,
2013-06-04 19:58:00,78.8,76.6,30.00,SSE,161,1.0,2.0,93,0.00,,,0.01,VWS V14.01,2013-06-04 23:58:00,
2013-06-04 19:59:00,78.8,76.6,30.00,SSE,161,2.0,2.0,93,0.00,,,0.01,VWS V14.01,2013-06-04 23:59:00,
2013-06-04 20:00:00,78.8,76.6,30.00,SSE,161,3.0,3.0,93,0.00,,,0.01,VWS V14.01,2013-06-05 00:00:00,
2013-06-04 20:01:00,78.8,76.6,30.00,SSE,161,2.0,3.0,93,0.00,,,0.01,VWS V14.01,2013-06-05 00:01:00,
2013-06-04 20:02:00,78.8,76.6,30.00,SSE,162,2.0,3.0,93,0.00,,OVC200,0.01,VWS V14.01,2013-06-05 00:02:00,
2013-06-04 20:03:00,78.8,76.6,30.00,SSE,162,2.0,3.0,93,0.00,,,0.01,VWS V14.01,2013-06-05 00:03:00,
2013-06-04 20:04:00,78.8,76.6,29.99,SSE,155,6.0,6.0,93,0.00,,,0.01,VWS V14.01,2013-06-05 00:04:00,
2013-06-04 20:05:00,78.8,76.6,29.99,SSE,148,5.0,6.0,93,0.00,,,0.01,VWS V14.01,2013-06-05 00:05:00,
2013-06-04 20:06:00,78.8,76.6,29.99,SSE,147,5.0,6.0,93,0.00,,,0.01,VWS V14.01,2013-06-05 00:06:00,
2013-06-04 20:07:00,78.6,76.4,29.99,SE,138,6.0,6.0,93,0.00,,OVC200,0.01,VWS V14.01,2013-06-05 00:07:00,
2013-06-04 20:08:00,78.8,76.6,29.99,SE,139,6.0,6.0,93,0.00,,,0.01,VWS V14.01,2013-06-05 00:08:00,
2013-06-04 20:09:00,78.6,76.4,29.99,SE,138,5.0,6.0,93,0.00,,,0.01,VWS V14.01,2013-06-05 00:09:00,
2013-06-04 20:10:00,78.6,76.4,29.99,SE,134,5.0,6.0,93,0.00,,,0.01,VWS V14.01,2013-06-05 00:10:00,
2013-06-04 20:11:00,78.6,76.4,29.99,SE,134,5.0,5.0,93,0.00,,,0.01,VWS V14.01,2013-06-05 00:11:00,
2013-06-04 20:12:00,78.8,76.6,29.99,SE,134,5.0,5.0,93,0.00,,OVC200,0.01,VWS V14.01,2013-06-05 00:12:00,
2013-06-04 20:13:00,78.8,76.6,29.99,SE,124,5.0,5.0,93,0.00,,,0.01,VWS V14.01,2013-06-05 00:13:00,
2013-06-04 20:14:00,78.8,76.6,29.99,SE,124,4.0,5.0,93,0.00,,,0.01,VWS V14.01,2013-06-05 00:14:00,
2013-06-04 20:15:00,78.8,76.6,29.99,SE,124,3.0,4.0,93,0.00,,,0.01,VWS V14.01,2013-06-05 00:15:00,
2013-06-04 20:16:00,78.8,76.6,29.99,SE,124,2.0,3.0,93,0.00,,,0.01,VWS V14.01,2013-06-05 00:16:00,
2013-06-04 20:17:00,78.8,76.6,29.99,SE,124,4.0,4.0,93,0.00,,OVC200,0.01,VWS V14.01,2013-06-05 00:17:00,
2013-06-04 20:18:00,78.8,76.6,29.99,SE,124,5.0,5.0,93,0.00,,,0.01,VWS V14.01,2013-06-05 00:18:00,
2013-06-04 20:19:00,78.6,76.4,29.99,SE,124,4.0,5.0,93,0.00,,,0.01,VWS V14.01,2013-06-05 00:19:00,
2013-06-04 20:20:00,78.6,76.4,29.99,SE,124,4.0,4.0,93,0.00,,,0.01,VWS V14.01,2013-06-05 00:20:00,
2013-06-04 20:21:00,78.6,76.4,29.99,SE,124,5.0,5.0,93,0.00,,,0.01,VWS V14.01,2013-06-05 00:21:00,
2013-06-04 20:22:00,78.6,76.4,29.98,SE,129,5.0,6.0,93,0.00,,OVC200,0.01,VWS V14.01,2013-06-05 00:22:00,
2013-06-04 20:23:00,78.6,76.4,29.98,SE,127,5.0,6.0,93,0.00,,,0.01,VWS V14.01,2013-06-05 00:23:00,
2013-06-04 20:24:00,78.6,76.4,29.98,SE,127,6.0,7.0,93,0.00,,,0.01,VWS V14.01,2013-06-05 00:24:00,
2013-06-04 20:25:00,78.6,76.4,29.98,SE,125,10.0,10.0,93,0.00,,,0.01,VWS V14.01,2013-06-05 00:25:00,
2013-06-04 20:26:00,78.8,76.6,29.98,SE,130,10.0,10.0,93,0.00,,,0.01,VWS V14.01,2013-06-05 00:26:00,
2013-06-04 20:27:00,78.6,76.4,29.98,SE,134,9.0,10.0,93,0.00,,OVC200,0.01,VWS V14.01,2013-06-05 00:27:00,
2013-06-04 20:28:00,78.8,76.6,29.98,ESE,123,10.0,10.0,93,0.00,,,0.01,VWS V14.01,2013-06-05 00:28:00,
2013-06-04 20:29:00,78.8,76.6,29.97,SE,132,12.0,13.0,93,0.00,,,0.01,VWS V14.01,2013-06-05 00:29:00,
2013-06-04 20:30:00,78.8,76.6,29.97,SE,130,14.0,14.0,93,0.00,,,0.01,VWS V14.01,2013-06-05 00:30:00,
2013-06-04 20:31:00,78.8,76.9,29.97,SE,140,14.0,14.0,94,0.00,,,0.01,VWS V14.01,2013-06-05 00:31:00,
2013-06-04 20:32:00,78.8,76.9,29.97,SE,138,14.0,14.0,94,0.00,,OVC200,0.01,VWS V14.01,2013-06-05 00:32:00,
2013-06-04 20:33:00,78.8,76.6,29.97,SE,129,14.0,14.0,93,0.00,,,0.01,VWS V14.01,2013-06-05 00:33:00,
2013-06-04 20:34:00,78.8,76.9,29.96,SE,138,14.0,15.0,94,0.00,,,0.01,VWS V14.01,2013-06-05 00:34:00,
2013-06-04 20:35:00,78.8,76.9,29.97,SE,134,13.0,15.0,94,0.00,,,0.01,VWS V14.01,2013-06-05 00:35:00,
2013-06-04 20:36:00,78.8,76.9,29.96,SE,132,13.0,16.0,94,0.00,,,0.01,VWS V14.01,2013-06-05 00:36:00,
2013-06-04 20:37:00,79.0,77.1,29.97,SE,137,13.0,14.0,94,0.00,,OVC200,0.01,VWS V14.01,2013-06-05 00:37:00,
2013-06-04 20:38:00,79.0,77.1,29.97,SE,128,11.0,14.0,94,0.00,,,0.01,VWS V14.01,2013-06-05 00:38:00,
2013-06-04 20:39:00,78.8,76.9,29.97,SE,132,10.0,14.0,94,0.00,,,0.01,VWS V14.01,2013-06-05 00:39:00,
2013-06-04 20:40:00,78.8,76.9,29.97,SE,140,12.0,12.0,94,0.00,,,0.01,VWS V14.01,2013-06-05 00:40:00,
2013-06-04 20:41:00,78.8,76.9,29.97,SE,141,12.0,12.0,94,0.00,,,0.01,VWS V14.01,2013-06-05 00:41:00,
2013-06-04 20:42:00,78.8,76.9,29.97,SE,138,12.0,13.0,94,0.00,,OVC200,0.01,VWS V14.01,2013-06-05 00:42:00,
2013-06-04 20:43:00,78.8,76.9,29.97,SE,134,12.0,13.0,94,0.00,,,0.01,VWS V14.01,2013-06-05 00:43:00,
2013-06-04 20:44:00,78.8,76.9,29.97,SE,142,11.0,13.0,94,0.00,,,0.01,VWS V14.01,2013-06-05 00:44:00,
2013-06-04 20:45:00,78.8,76.9,29.97,SE,136,12.0,12.0,94,0.00,,,0.01,VWS V14.01,2013-06-05 00:45:00,
2013-06-04 20:46:00,78.6,76.7,29.97,SE,132,12.0,13.0,94,0.00,,,0.01,VWS V14.01,2013-06-05 00:46:00,
2013-06-04 20:47:00,78.6,76.7,29.98,SE,136,11.0,12.0,94,0.00,,OVC200,0.01,VWS V14.01,2013-06-05 00:47:00,
2013-06-04 20:48:00,78.6,76.7,29.98,SE,133,9.0,12.0,94,0.00,,,0.01,VWS V14.01,2013-06-05 00:48:00,
2013-06-04 20:49:00,78.6,76.7,29.98,SE,139,7.0,9.0,94,0.00,,,0.01,VWS V14.01,2013-06-05 00:49:00,
2013-06-04 20:50:00,78.6,76.7,29.98,SE,130,5.0,7.0,94,0.00,,,0.01,VWS V14.01,2013-06-05 00:50:00,
2013-06-04 20:51:00,78.6,76.7,29.98,SE,130,9.0,9.0,94,0.00,,,0.01,VWS V14.01,2013-06-05 00:51:00,
2013-06-04 20:52:00,78.6,76.7,29.98,SE,132,9.0,9.0,94,0.00,,OVC200,0.01,VWS V14.01,2013-06-05 00:52:00,
2013-06-04 20:53:00,78.6,76.7,29.98,SE,131,6.0,9.0,94,0.00,,BKN030,0.01,VWS V14.01,2013-06-05 00:53:00,
2013-06-04 20:54:00,78.5,76.6,29.98,SE,126,6.0,7.0,94,0.00,,BKN030,0.01,VWS V14.01,2013-06-05 00:54:00,
2013-06-04 20:55:00,78.5,76.6,29.98,ESE,115,6.0,7.0,94,0.00,,BKN030,0.01,VWS V14.01,2013-06-05 00:55:00,
2013-06-04 20:56:00,78.6,76.7,29.98,SE,136,5.0,7.0,94,0.00,,BKN030,0.01,VWS V14.01,2013-06-05 00:56:00,
2013-06-04 20:57:00,78.5,76.6,29.98,SE,134,6.0,6.0,94,0.00,,OVC200,0.01,VWS V14.01,2013-06-05 00:57:00,
2013-06-04 20:58:00,78.5,76.6,29.98,SE,138,6.0,6.0,94,0.00,,BKN030,0.01,VWS V14.01,2013-06-05 00:58:00,
2013-06-04 20:59:00,78.5,76.6,29.98,SE,135,6.0,6.0,94,0.00,,BKN030,0.01,VWS V14.01,2013-06-05 00:59:00,
2013-06-04 21:00:00,78.5,76.6,29.98,SE,128,6.0,7.0,94,0.00,,BKN030,0.01,VWS V14.01,2013-06-05 01:00:00,
2013-06-04 21:01:00,78.6,76.7,29.97,SE,135,6.0,7.0,94,0.00,,BKN030,0.01,VWS V14.01,2013-06-05 01:01:00,
2013-06-04 21:02:00,78.6,76.7,29.97,SE,128,7.0,7.0,94,0.00,,,0.01,VWS V14.01,2013-06-05 01:02:00,
2013-06-04 21:03:00,78.6,76.7,29.97,SE,131,7.0,7.0,94,0.00,,BKN030,0.01,VWS V14.01,2013-06-05 01:03:00,
2013-06-04 21:04:00,78.6,76.7,29.97,SE,130,7.0,9.0,94,0.00,,BKN030,0.01,VWS V14.01,2013-06-05 01:04:00,
2013-06-04 21:05:00,78.5,76.6,29.97,SSE,155,7.0,10.0,94,0.00,,BKN030,0.01,VWS V14.01,2013-06-05 01:05:00,
2013-06-04 21:06:00,78.5,76.6,29.97,SE,141,9.0,10.0,94,0.00,,BKN030,0.01,VWS V14.01,2013-06-05 01:06:00,
2013-06-04 21:07:00,78.5,76.6,29.97,SE,136,8.0,11.0,94,0.00,,OVC200,0.01,VWS V14.01,2013-06-05 01:07:00,
2013-06-04 21:08:00,78.5,76.6,29.97,SE,139,8.0,11.0,94,0.00,,BKN030,0.01,VWS V14.01,2013-06-05 01:08:00,
2013-06-04 21:09:00,78.5,76.6,29.97,SSE,163,8.0,10.0,94,0.00,,BKN030,0.01,VWS V14.01,2013-06-05 01:09:00,
2013-06-04 21:10:00,78.5,76.6,29.97,SSE,148,9.0,10.0,94,0.00,,BKN030,0.01,VWS V14.01,2013-06-05 01:10:00,
2013-06-04 21:11:00,78.5,76.6,29.97,SSE,164,6.0,9.0,94,0.00,,BKN030,0.01,VWS V14.01,2013-06-05 01:11:00,
2013-06-04 21:12:00,78.5,76.6,29.97,SSE,148,9.0,9.0,94,0.00,,OVC200,0.01,VWS V14.01,2013-06-05 01:12:00,
2013-06-04 21:13:00,78.5,76.6,29.97,SE,145,7.0,9.0,94,0.00,,BKN030,0.01,VWS V14.01,2013-06-05 01:13:00,
2013-06-04 21:14:00,78.5,76.6,29.97,SSE,148,9.0,9.0,94,0.00,,BKN030,0.01,VWS V14.01,2013-06-05 01:14:00,
2013-06-04 21:15:00,78.5,76.6,29.97,SSE,161,6.0,10.0,94,0.00,,BKN030,0.01,VWS V14.01,2013-06-05 01:15:00,
2013-06-04 21:16:00,78.5,76.6,29.97,SSE,163,6.0,9.0,94,0.00,,BKN030,0.01,VWS V14.01,2013-06-05 01:16:00,
2013-06-04 21:17:00,78.5,76.6,29.97,SE,136,9.0,10.0,94,0.00,,OVC200,0.01,VWS V14.01,2013-06-05 01:17:00,
2013-06-04 21:18:00,78.5,76.6,29.97,SSE,148,7.0,10.0,94,0.00,,BKN030,0.01,VWS V14.01,2013-06-05 01:18:00,
2013-06-04 21:19:00,78.5,76.6,29.97,SE,143,4.0,7.0,94,0.00,,BKN030,0.01,VWS V14.01,2013-06-05 01:19:00,
2013-06-04 21:20:00,78.5,76.6,29.97,SSE,150,7.0,7.0,94,0.00,,BKN030,0.01,VWS V14.01,2013-06-05 01:20:00,
2013-06-04 21:21:00,78.5,76.6,29.97,SE,136,5.0,7.0,94,0.00,,BKN030,0.01,VWS V14.01,2013-06-05 01:21:00,
2013-06-04 21:22:00,78.5,76.6,29.98,SE,137,5.0,6.0,94,0.00,,OVC200,0.01,VWS V14.01,2013-06-05 01:22:00,
2013-06-04 21:23:00,78.5,76.6,29.98,SE,137,5.0,6.0,94,0.00,,BKN030,0.01,VWS V14.01,2013-06-05 01:23:00,
2013-06-04 21:24:00,78.5,76.6,29.98,SE,136,4.0,6.0,94,0.00,,BKN030,0.01,VWS V14.01,2013-06-05 01:24:00,
2013-06-04 21:25:00,78.5,76.6,29.98,SE,136,5.0,6.0,94,0.00,,BKN030,0.01,VWS V14.01,2013-06-05 01:25:00,
2013-06-04 21:26:00,78.5,76.6,29.98,SE,128,7.0,7.0,94,0.00,,BKN030,0.01,VWS V14.01,2013-06-05 01:26:00,
2013-06-04 21:27:00,78.5,76.6,29.98,SE,126,6.0,7.0,94,0.00,,OVC200,0.01,VWS V14.01,2013-06-05 01:27:00,
2013-06-04 21:28:00,78.5,76.6,29.98,SE,126,8.0,8.0,94,0.00,,BKN030,0.01,VWS V14.01,2013-06-05 01:28:00,
2013-06-04 21:29:00,78.5,76.6,29.98,SE,140,6.0,8.0,94,0.00,,BKN030,0.01,VWS V14.01,2013-06-05 01:29:00,
2013-06-04 21:30:00,78.5,76.6,29.98,SSE,147,5.0,7.0,94,0.00,,BKN030,0.01,VWS V14.01,2013-06-05 01:30:00,
2013-06-04 21:31:00,78.5,76.6,29.98,SE,136,5.0,7.0,94,0.00,,BKN030,0.01,VWS V14.01,2013-06-05 01:31:00,
2013-06-04 21:32:00,78.5,76.6,29.98,SE,136,5.0,9.0,94,0.00,,OVC200,0.01,VWS V14.01,2013-06-05 01:32:00,
2013-06-04 21:33:00,78.5,76.6,29.98,SE,136,6.0,9.0,94,0.00,,BKN030,0.01,VWS V14.01,2013-06-05 01:33:00,
2013-06-04 21:34:00,78.5,76.6,29.98,SE,136,6.0,7.0,94,0.00,,BKN030,0.01,VWS V14.01,2013-06-05 01:34:00,
2013-06-04 21:35:00,78.5,76.6,29.98,SE,138,6.0,7.0,94,0.00,,BKN030,0.01,VWS V14.01,2013-06-05 01:35:00,
2013-06-04 21:36:00,78.5,76.6,29.98,SE,137,5.0,6.0,94,0.00,,BKN030,0.01,VWS V14.01,2013-06-05 01:36:00,
2013-06-04 21:37:00,78.5,76.6,29.98,SE,136,5.0,5.0,94,0.00,,OVC200,0.01,VWS V14.01,2013-06-05 01:37:00,
2013-06-04 21:38:00,78.5,76.6,29.98,SE,136,5.0,5.0,94,0.00,,BKN030,0.01,VWS V14.01,2013-06-05 01:38:00,
2013-06-04 21:39:00,78.5,76.6,29.99,South,169,4.0,5.0,94,0.00,,BKN030,0.01,VWS V14.01,2013-06-05 01:39:00,
2013-06-04 21:40:00,78.5,76.6,29.99,SSE,165,4.0,5.0,94,0.00,,BKN030,0.01,VWS V14.01,2013-06-05 01:40:00,
2013-06-04 21:41:00,78.5,76.6,29.99,SSE,164,3.0,4.0,94,0.00,,BKN030,0.01,VWS V14.01,2013-06-05 01:41:00,
2013-06-04 21:42:00,78.5,76.6,29.99,SE,143,7.0,7.0,94,0.00,,,0.01,VWS V14.01,2013-06-05 01:42:00,
2013-06-04 21:43:00,78.5,76.6,29.99,SE,138,6.0,7.0,94,0.00,,BKN030,0.01,VWS V14.01,2013-06-05 01:43:00,
2013-06-04 21:44:00,78.5,76.6,29.99,ESE,123,8.0,9.0,94,0.00,,BKN030,0.01,VWS V14.01,2013-06-05 01:44:00,
2013-06-04 21:45:00,78.5,76.6,29.99,SE,129,7.0,8.0,94,0.00,,BKN030,0.01,VWS V14.01,2013-06-05 01:45:00,
2013-06-04 21:46:00,78.5,76.6,29.99,SE,134,5.0,7.0,94,0.00,,BKN030,0.01,VWS V14.01,2013-06-05 01:46:00,
2013-06-04 21:47:00,78.5,76.6,30.00,SE,134,6.0,7.0,94,0.00,,,0.01,VWS V14.01,2013-06-05 01:47:00,
2013-06-04 21:48:00,78.5,76.6,30.00,SE,134,6.0,7.0,94,0.00,,BKN030,0.01,VWS V14.01,2013-06-05 01:48:00,
2013-06-04 21:49:00,78.5,76.6,29.99,SE,127,6.0,7.0,94,0.00,,BKN030,0.01,VWS V14.01,2013-06-05 01:49:00,
2013-06-04 21:50:00,78.6,76.7,30.00,SE,136,5.0,8.0,94,0.00,,BKN030,0.01,VWS V14.01,2013-06-05 01:50:00,
2013-06-04 21:51:00,78.6,76.7,30.00,SE,134,5.0,6.0,94,0.00,,BKN030,0.01,VWS V14.01,2013-06-05 01:51:00,
2013-06-04 21:52:00,78.5,76.6,30.00,SE,134,3.0,4.0,94,0.00,,,0.01,VWS V14.01,2013-06-05 01:52:00,
2013-06-04 21:53:00,78.6,76.7,30.00,SE,134,2.0,4.0,94,0.00,,BKN030,0.01,VWS V14.01,2013-06-05 01:53:00,
2013-06-04 21:54:00,78.6,76.7,30.00,SE,146,4.0,4.0,94,0.00,,BKN030,0.01,VWS V14.01,2013-06-05 01:54:00,
2013-06-04 21:55:00,78.6,76.7,30.00,SSE,158,4.0,5.0,94,0.00,,BKN030,0.01,VWS V14.01,2013-06-05 01:55:00,
2013-06-04 21:56:00,78.6,76.7,30.00,SSE,158,4.0,4.0,94,0.00,,BKN030,0.01,VWS V14.01,2013-06-05 01:56:00,
2013-06-04 21:57:00,78.6,76.7,30.00,SSE,158,3.0,3.0,94,0.00,,,0.01,VWS V14.01,2013-06-05 01:57:00,
2013-06-04 21:58:00,78.6,76.7,30.00,SSE,158,2.0,3.0,94,0.00,,BKN030,0.01,VWS V14.01,2013-06-05 01:58:00,
2013-06-04 21:59:00,78.6,76.7,30.00,SSE,158,1.0,2.0,94,0.00,,BKN030,0.01,VWS V14.01,2013-06-05 01:59:00,
2013-06-04 22:00:00,78.6,76.7,30.00,SSE,158,2.0,2.0,94,0.00,,BKN030,0.01,VWS V14.01,2013-06-05 02:00:00,
2013-06-04 22:01:00,78.5,76.6,30.00,SSE,158,2.0,2.0,94,0.00,,BKN030,0.01,VWS V14.01,2013-06-05 02:01:00,
2013-06-04 22:02:00,78.5,76.6,30.00,SSE,158,4.0,4.0,94,0.00,,,0.01,VWS V14.01,2013-06-05 02:02:00,
2013-06-04 22:03:00,78.5,76.6,30.00,SSE,158,3.0,4.0,94,0.00,,BKN030,0.01,VWS V14.01,2013-06-05 02:03:00,
2013-06-04 22:04:00,78.5,76.6,30.00,SSE,158,3.0,3.0,94,0.00,,BKN030,0.01,VWS V14.01,2013-06-05 02:04:00,
2013-06-04 22:05:00,78.5,76.6,30.00,SSE,158,3.0,3.0,94,0.00,,BKN030,0.01,VWS V14.01,2013-06-05 02:05:00,
2013-06-04 22:06:00,78.5,76.6,30.00,SSE,158,2.0,3.0,94,0.00,,BKN030,0.01,VWS V14.01,2013-06-05 02:06:00,
2013-06-04 22:07:00,78.5,76.6,30.00,SE,135,4.0,4.0,94,0.00,,,0.01,VWS V14.01,2013-06-05 02:07:00,
2013-06-04 22:08:00,78.5,76.6,30.00,SE,135,4.0,4.0,94,0.00,,BKN030,0.01,VWS V14.01,2013-06-05 02:08:00,
2013-06-04 22:09:00,78.5,76.6,30.00,ESE,118,5.0,5.0,94,0.00,,BKN030,0.01,VWS V14.01,2013-06-05 02:09:00,
2013-06-04 22:10:00,78.5,76.6,30.00,ESE,118,4.0,5.0,94,0.00,,BKN030,0.01,VWS V14.01,2013-06-05 02:10:00,
2013-06-04 22:11:00,78.5,76.6,30.00,ESE,118,4.0,5.0,94,0.00,,BKN030,0.01,VWS V14.01,2013-06-05 02:11:00,
2013-06-04 22:12:00,78.5,76.6,30.00,ESE,118,4.0,4.0,94,0.00,,,0.01,VWS V14.01,2013-06-05 02:12:00,
2013-06-04 22:13:00,78.5,76.6,30.00,ESE,113,4.0,4.0,94,0.00,,BKN030,0.01,VWS V14.01,2013-06-05 02:13:00,
2013-06-04 22:14:00,78.5,76.6,30.00,ESE,113,4.0,4.0,94,0.00,,BKN030,0.01,VWS V14.01,2013-06-05 02:14:00,
2013-06-04 22:15:00,78.5,76.6,30.00,ESE,113,3.0,4.0,94,0.00,,BKN030,0.01,VWS V14.01,2013-06-05 02:15:00,
2013-06-04 22:16:00,78.5,76.6,30.00,ESE,113,2.0,3.0,94,0.00,,BKN030,0.01,VWS V14.01,2013-06-05 02:16:00,
2013-06-04 22:17:00,78.5,76.6,30.01,ESE,113,2.0,2.0,94,0.00,,,0.01,VWS V14.01,2013-06-05 02:17:00,
2013-06-04 22:18:00,78.5,76.6,30.01,ESE,113,3.0,3.0,94,0.00,,BKN030,0.01,VWS V14.01,2013-06-05 02:18:00,
2013-06-04 22:19:00,78.5,76.6,30.01,ESE,113,2.0,3.0,94,0.00,,BKN030,0.01,VWS V14.01,2013-06-05 02:19:00,
2013-06-04 22:20:00,78.5,76.6,30.01,ESE,113,2.0,4.0,94,0.00,,BKN030,0.01,VWS V14.01,2013-06-05 02:20:00,
2013-06-04 22:21:00,78.5,76.6,30.01,ESE,113,3.0,3.0,94,0.00,,BKN030,0.01,VWS V14.01,2013-06-05 02:21:00,
2013-06-04 22:22:00,78.5,76.6,30.01,ESE,113,2.0,3.0,94,0.00,,,0.01,VWS V14.01,2013-06-05 02:22:00,
2013-06-04 22:23:00,78.5,76.6,30.01,ESE,113,2.0,3.0,94,0.00,,BKN030,0.01,VWS V14.01,2013-06-05 02:23:00,
2013-06-04 22:24:00,78.5,76.6,30.01,ESE,113,2.0,4.0,94,0.00,,BKN030,0.01,VWS V14.01,2013-06-05 02:24:00,
2013-06-04 22:25:00,78.5,76.6,30.01,ESE,113,2.0,2.0,94,0.00,,BKN030,0.01,VWS V14.01,2013-06-05 02:25:00,
2013-06-04 22:26:00,78.5,76.6,30.01,ESE,113,3.0,3.0,94,0.00,,BKN030,0.01,VWS V14.01,2013-06-05 02:26:00,
2013-06-04 22:27:00,78.5,76.6,30.01,ESE,113,1.0,2.0,94,0.00,,,0.01,VWS V14.01,2013-06-05 02:27:00,
2013-06-04 22:28:00,78.5,76.6,30.01,ESE,113,2.0,2.0,94,0.00,,BKN030,0.01,VWS V14.01,2013-06-05 02:28:00,
2013-06-04 22:29:00,78.5,76.6,30.01,ESE,113,3.0,3.0,94,0.00,,BKN030,0.01,VWS V14.01,2013-06-05 02:29:00,
2013-06-04 22:30:00,78.5,76.6,30.01,ESE,113,2.0,3.0,94,0.00,,BKN030,0.01,VWS V14.01,2013-06-05 02:30:00,
2013-06-04 22:31:00,78.5,76.6,30.01,ESE,113,4.0,4.0,94,0.00,,BKN030,0.01,VWS V14.01,2013-06-05 02:31:00,
2013-06-04 22:32:00,78.5,76.6,30.01,ESE,113,2.0,3.0,94,0.00,,,0.01,VWS V14.01,2013-06-05 02:32:00,
2013-06-04 22:33:00,78.5,76.6,30.01,ESE,113,2.0,3.0,94,0.00,,BKN030,0.01,VWS V14.01,2013-06-05 02:33:00,
2013-06-04 22:34:00,78.5,76.6,30.01,ESE,113,2.0,3.0,94,0.00,,BKN030,0.01,VWS V14.01,2013-06-05 02:34:00,
2013-06-04 22:35:00,78.5,76.6,30.01,ESE,113,2.0,2.0,94,0.00,,BKN030,0.01,VWS V14.01,2013-06-05 02:35:00,
2013-06-04 22:36:00,78.5,76.6,30.01,ESE,114,4.0,4.0,94,0.00,,BKN030,0.01,VWS V14.01,2013-06-05 02:36:00,
2013-06-04 22:37:00,78.5,76.6,30.01,ESE,114,4.0,4.0,94,0.00,,,0.01,VWS V14.01,2013-06-05 02:37:00,
2013-06-04 22:38:00,78.5,76.6,30.01,ESE,114,3.0,4.0,94,0.00,,BKN030,0.01,VWS V14.01,2013-06-05 02:38:00,
2013-06-04 22:39:00,78.5,76.6,30.01,ESE,114,4.0,6.0,94,0.00,,BKN030,0.01,VWS V14.01,2013-06-05 02:39:00,
2013-06-04 22:40:00,78.5,76.6,30.01,ESE,114,4.0,4.0,94,0.00,,BKN030,0.01,VWS V14.01,2013-06-05 02:40:00,
2013-06-04 22:41:00,78.6,76.7,30.01,ESE,114,5.0,5.0,94,0.00,,BKN030,0.01,VWS V14.01,2013-06-05 02:41:00,
2013-06-04 22:42:00,78.6,77.1,30.01,ESE,117,6.0,6.0,95,0.00,,BKN200,0.01,VWS V14.01,2013-06-05 02:42:00,
2013-06-04 22:43:00,78.6,77.1,30.01,ESE,117,5.0,6.0,95,0.00,,BKN030,0.01,VWS V14.01,2013-06-05 02:43:00,
2013-06-04 22:44:00,78.6,77.1,30.01,SE,126,6.0,6.0,95,0.00,,BKN030,0.01,VWS V14.01,2013-06-05 02:44:00,
2013-06-04 22:45:00,78.6,77.1,30.01,SE,131,5.0,6.0,95,0.00,,BKN030,0.01,VWS V14.01,2013-06-05 02:45:00,
2013-06-04 22:46:00,78.6,77.1,30.01,SE,129,4.0,5.0,95,0.00,,BKN030,0.01,VWS V14.01,2013-06-05 02:46:00,
2013-06-04 22:47:00,78.6,77.1,30.01,SE,129,5.0,5.0,95,0.01,,BKN200,0.02,VWS V14.01,2013-06-05 02:47:00,
2013-06-04 22:48:00,78.6,77.1,30.01,SE,129,5.0,5.0,95,0.01,,BKN030,0.02,VWS V14.01,2013-06-05 02:48:00,
2013-06-04 22:49:00,78.6,77.1,30.01,SE,132,6.0,6.0,95,0.01,,BKN030,0.02,VWS V14.01,2013-06-05 02:49:00,
2013-06-04 22:50:00,78.6,77.1,30.01,SE,128,6.0,6.0,95,0.01,,BKN030,0.02,VWS V14.01,2013-06-05 02:50:00,
2013-06-04 22:51:00,78.6,77.1,30.00,SE,127,4.0,6.0,95,0.01,,BKN030,0.02,VWS V14.01,2013-06-05 02:51:00,
2013-06-04 22:52:00,78.5,76.9,30.00,SE,126,4.0,5.0,95,0.01,,BKN200,0.02,VWS V14.01,2013-06-05 02:52:00,
2013-06-04 22:53:00,78.5,76.9,30.00,SE,126,5.0,5.0,95,0.01,,BKN030,0.02,VWS V14.01,2013-06-05 02:53:00,
2013-06-04 22:54:00,78.5,76.9,30.00,ESE,111,6.0,6.0,95,0.01,,BKN030,0.02,VWS V14.01,2013-06-05 02:54:00,
2013-06-04 22:55:00,78.5,76.9,30.01,ESE,109,5.0,6.0,95,0.01,,BKN030,0.02,VWS V14.01,2013-06-05 02:55:00,
2013-06-04 22:56:00,78.5,76.9,30.00,ESE,112,7.0,7.0,95,0.01,,BKN030,0.02,VWS V14.01,2013-06-05 02:56:00,
2013-06-04 22:57:00,78.5,76.9,30.00,ESE,111,7.0,7.0,95,0.01,,BKN200,0.02,VWS V14.01,2013-06-05 02:57:00,
2013-06-04 22:58:00,78.5,76.9,30.00,ESE,107,9.0,9.0,95,0.01,,BKN030,0.02,VWS V14.01,2013-06-05 02:58:00,
2013-06-04 22:59:00,78.5,76.9,30.00,ESE,108,5.0,9.0,95,0.01,,BKN030,0.02,VWS V14.01,2013-06-05 02:59:00,
2013-06-04 23:00:00,78.5,76.9,30.00,ESE,105,7.0,7.0,95,0.01,,BKN030,0.02,VWS V14.01,2013-06-05 03:00:00,
2013-06-04 23:01:00,78.5,76.9,30.00,ESE,110,4.0,7.0,95,0.01,,BKN030,0.02,VWS V14.01,2013-06-05 03:01:00,
2013-06-04 23:02:00,78.5,76.9,30.00,ESE,110,4.0,4.0,95,0.02,,BKN200,0.03,VWS V14.01,2013-06-05 03:02:00,
2013-06-04 23:03:00,78.5,76.9,30.00,ESE,106,9.0,9.0,95,0.02,,BKN030,0.03,VWS V14.01,2013-06-05 03:03:00,
2013-06-04 23:04:00,78.3,77.1,30.00,ESE,123,7.0,9.0,96,0.02,,BKN030,0.03,VWS V14.01,2013-06-05 03:04:00,
2013-06-04 23:05:00,78.3,76.8,30.00,ESE,116,7.0,7.0,95,0.02,,BKN030,0.03,VWS V14.01,2013-06-05 03:05:00,
2013-06-04 23:06:00,78.3,77.1,30.00,ESE,119,7.0,7.0,96,0.02,,BKN030,0.03,VWS V14.01,2013-06-05 03:06:00,
2013-06-04 23:07:00,78.3,77.1,30.00,ESE,115,6.0,7.0,96,0.02,,BKN200,0.03,VWS V14.01,2013-06-05 03:07:00,
2013-06-04 23:08:00,78.3,77.1,30.00,ESE,115,6.0,7.0,96,0.02,,BKN030,0.03,VWS V14.01,2013-06-05 03:08:00,
2013-06-04 23:09:00,78.3,77.1,30.00,ESE,113,9.0,10.0,96,0.02,,BKN030,0.03,VWS V14.01,2013-06-05 03:09:00,
2013-06-04 23:10:00,78.3,77.1,30.00,ESE,119,6.0,9.0,96,0.02,,BKN030,0.03,VWS V14.01,2013-06-05 03:10:00,
2013-06-04 23:11:00,78.3,77.1,30.00,SE,137,6.0,7.0,96,0.02,,BKN030,0.03,VWS V14.01,2013-06-05 03:11:00,
2013-06-04 23:12:00,78.1,76.6,30.00,SE,130,5.0,7.0,95,0.02,,BKN200,0.03,VWS V14.01,2013-06-05 03:12:00,
2013-06-04 23:13:00,78.1,76.6,30.00,SE,130,6.0,7.0,95,0.02,,BKN030,0.03,VWS V14.01,2013-06-05 03:13:00,
2013-06-04 23:14:00,78.1,76.9,30.00,SE,133,9.0,10.0,96,0.02,,BKN030,0.03,VWS V14.01,2013-06-05 03:14:00,
2013-06-04 23:15:00,78.1,76.9,30.00,SE,137,7.0,10.0,96,0.02,,BKN030,0.03,VWS V14.01,2013-06-05 03:15:00,
2013-06-04 23:16:00,78.1,76.6,30.00,SE,133,9.0,9.0,95,0.02,,BKN030,0.03,VWS V14.01,2013-06-05 03:16:00,
2013-06-04 23:17:00,78.1,76.9,29.99,SE,145,10.0,10.0,96,0.02,,BKN200,0.03,VWS V14.01,2013-06-05 03:17:00,
2013-06-04 23:18:00,78.1,76.9,29.99,SE,146,10.0,10.0,96,0.02,,BKN030,0.03,VWS V14.01,2013-06-05 03:18:00,
2013-06-04 23:19:00,78.1,76.6,29.99,SE,146,11.0,11.0,95,0.02,,BKN030,0.03,VWS V14.01,2013-06-05 03:19:00,
2013-06-04 23:20:00,78.1,76.6,29.99,SSE,162,7.0,11.0,95,0.02,,BKN030,0.03,VWS V14.01,2013-06-05 03:20:00,
2013-06-04 23:21:00,78.3,77.1,29.99,SSE,155,9.0,12.0,96,0.02,,BKN030,0.03,VWS V14.01,2013-06-05 03:21:00,
2013-06-04 23:22:00,78.3,76.8,29.99,SSE,148,9.0,11.0,95,0.02,,BKN200,0.03,VWS V14.01,2013-06-05 03:22:00,
2013-06-04 23:23:00,78.3,76.8,29.99,SSE,162,8.0,11.0,95,0.02,,BKN030,0.03,VWS V14.01,2013-06-05 03:23:00,
2013-06-04 23:24:00,78.3,77.1,29.99,SSE,158,10.0,10.0,96,0.02,,BKN030,0.03,VWS V14.01,2013-06-05 03:24:00,
2013-06-04 23:25:00,78.3,77.1,29.99,SSE,159,5.0,10.0,96,0.02,,BKN030,0.03,VWS V14.01,2013-06-05 03:25:00,
2013-06-04 23:26:00,78.5,77.3,29.99,SSE,161,10.0,10.0,96,0.02,,BKN030,0.03,VWS V14.01,2013-06-05 03:26:00,
2013-06-04 23:27:00,78.3,77.1,29.99,SSE,161,7.0,10.0,96,0.02,,BKN200,0.03,VWS V14.01,2013-06-05 03:27:00,
2013-06-04 23:28:00,78.3,77.1,29.99,SSE,149,7.0,10.0,96,0.02,,BKN030,0.03,VWS V14.01,2013-06-05 03:28:00,
2013-06-04 23:29:00,78.5,76.9,29.99,SE,146,9.0,10.0,95,0.02,,BKN030,0.03,VWS V14.01,2013-06-05 03:29:00,
2013-06-04 23:30:00,78.3,77.1,29.99,SE,146,9.0,11.0,96,0.02,,BKN030,0.03,VWS V14.01,2013-06-05 03:30:00,
2013-06-04 23:31:00,78.5,77.3,29.99,SE,142,8.0,9.0,96,0.02,,BKN030,0.03,VWS V14.01,2013-06-05 03:31:00,
2013-06-04 23:32:00,78.5,77.3,29.99,SE,142,9.0,9.0,96,0.02,,BKN200,0.03,VWS V14.01,2013-06-05 03:32:00,
2013-06-04 23:33:00,78.5,77.3,29.99,SSE,147,10.0,10.0,96,0.02,,BKN030,0.03,VWS V14.01,2013-06-05 03:33:00,
2013-06-04 23:34:00,78.5,77.3,29.99,SE,146,9.0,10.0,96,0.02,,BKN030,0.03,VWS V14.01,2013-06-05 03:34:00,
2013-06-04 23:35:00,78.5,77.3,29.98,SSE,161,5.0,9.0,96,0.02,,BKN030,0.03,VWS V14.01,2013-06-05 03:35:00,
2013-06-04 23:36:00,78.5,77.3,29.99,SSE,167,8.0,8.0,96,0.02,,BKN030,0.03,VWS V14.01,2013-06-05 03:36:00,
2013-06-04 23:37:00,78.5,77.3,29.98,SSE,157,6.0,8.0,96,0.02,,BKN200,0.03,VWS V14.01,2013-06-05 03:37:00,
2013-06-04 23:38:00,78.5,77.3,29.98,SE,143,8.0,8.0,96,0.02,,BKN030,0.03,VWS V14.01,2013-06-05 03:38:00,
2013-06-04 23:39:00,78.5,77.3,29.98,SSE,148,8.0,9.0,96,0.02,,BKN030,0.03,VWS V14.01,2013-06-05 03:39:00,
2013-06-04 23:40:00,78.5,77.3,29.98,SSE,160,7.0,8.0,96,0.02,,BKN030,0.03,VWS V14.01,2013-06-05 03:40:00,
2013-06-04 23:41:00,78.5,77.3,29.98,SSE,165,9.0,9.0,96,0.02,,BKN030,0.03,VWS V14.01,2013-06-05 03:41:00,
2013-06-04 23:42:00,78.3,77.1,29.98,SSE,165,6.0,10.0,96,0.02,,BKN200,0.03,VWS V14.01,2013-06-05 03:42:00,
2013-06-04 23:43:00,78.3,77.1,29.98,SSE,160,7.0,10.0,96,0.02,,BKN030,0.03,VWS V14.01,2013-06-05 03:43:00,
2013-06-04 23:44:00,78.3,77.1,29.98,South,184,8.0,10.0,96,0.02,,BKN030,0.03,VWS V14.01,2013-06-05 03:44:00,
2013-06-04 23:45:00,78.1,76.9,29.98,SSE,162,7.0,10.0,96,0.02,,BKN030,0.03,VWS V14.01,2013-06-05 03:45:00,
2013-06-04 23:46:00,78.1,76.9,29.98,SSE,157,10.0,10.0,96,0.02,,BKN030,0.03,VWS V14.01,2013-06-05 03:46:00,
2013-06-04 23:47:00,78.3,77.1,29.98,SSE,155,6.0,9.0,96,0.01,,BKN200,0.03,VWS V14.01,2013-06-05 03:47:00,
2013-06-04 23:48:00,78.3,77.1,29.98,SSE,154,9.0,9.0,96,0.01,,BKN030,0.03,VWS V14.01,2013-06-05 03:48:00,
2013-06-04 23:49:00,78.3,77.1,29.98,South,169,10.0,10.0,96,0.01,,BKN030,0.03,VWS V14.01,2013-06-05 03:49:00,
2013-06-04 23:50:00,78.3,77.1,29.98,SSE,160,9.0,11.0,96,0.01,,BKN030,0.03,VWS V14.01,2013-06-05 03:50:00,
2013-06-04 23:51:00,78.3,77.1,29.98,SSE,156,11.0,11.0,96,0.01,,BKN030,0.03,VWS V14.01,2013-06-05 03:51:00,
2013-06-04 23:52:00,78.3,77.1,29.98,SSE,160,7.0,9.0,96,0.01,,BKN200,0.03,VWS V14.01,2013-06-05 03:52:00,
2013-06-04 23:53:00,78.3,77.1,29.98,SSE,162,11.0,11.0,96,0.01,,BKN030,0.03,VWS V14.01,2013-06-05 03:53:00,
2013-06-04 23:54:00,78.3,77.1,29.98,SSE,165,9.0,11.0,96,0.01,,BKN030,0.03,VWS V14.01,2013-06-05 03:54:00,
2013-06-04 23:55:00,78.3,77.1,29.98,SSE,154,7.0,9.0,96,0.01,,BKN030,0.03,VWS V14.01,2013-06-05 03:55:00,
2013-06-04 23:56:00,78.5,77.3,29.98,SSE,156,8.0,9.0,96,0.01,,BKN030,0.03,VWS V14.01,2013-06-05 03:56:00,
2013-06-04 23:57:00,78.5,77.3,29.98,SSE,154,8.0,8.0,96,0.01,,BKN200,0.03,VWS V14.01,2013-06-05 03:57:00,
2013-06-04 23:58:00,78.5,77.3,29.98,SSE,160,10.0,10.0,96,0.01,,BKN030,0.03,VWS V14.01,2013-06-05 03:58:00,
2013-06-04 23:59:00,78.3,77.1,29.98,SSE,150,7.0,10.0,96,0.01,,BKN030,0.03,VWS V14.01,2013-06-05 03:59:00,